[[{"header":{"parameterUnit":"m.s-1","parameterCategory":1,"la1":30.6,"la2":29.2853,"lo1":-89.7004,"lo2":-87.6739,"dy":0.0162,"dx":0.0183,"nx":112,"ny":82,"refTime":"2024-03-20T00:00:00:Z","depth":0,"parameterNumber":2,"parameterNumberName":"U-component_of_WINDS"},"data":[0.0,0.0,0.0,0.0,0.0,0.0,0.0,0.0,0.0,0.0,0.0,0.0,0.0,0.0,0.0,0.0,0.0,0.0,0.0,0.0,0.0,0.0,0.0,0.0,0.0,0.0,0.0,0.0,0.0,0.0,0.0,0.0,0.0,0.0,0.0,0.0,0.0,0.0,0.0,0.0,0.0,0.0,0.0,0.0,0.0,0.0,0.0,0.0,0.0,0.0,0.0,0.0,0.0,0.0,0.0,0.0,0.0,0.0,0.0,0.0,0.0,0.0,0.0,0.0,0.0,0.0,0.0,0.0,0.0,0.0,0.0,0.0,0.0,0.0,0.0,0.0,0.0,0.0,0.0,0.0,0.0,0.0,0.0,0.0,0.0,0.0,0.0,0.0,0.0,0.0,6.4159,7.2539,8.4308,9.1471,9.1252,8.8857,8.1454,6.7753,0.0,0.0,0.0,0.0,0.0,0.0,0.0,0.0,0.0,0.0,0.0,0.0,0.0,0.0,0.0,0.0,0.0,0.0,0.0,0.0,0.0,0.0,0.0,0.0,0.0,0.0,0.0,0.0,0.0,0.0,0.0,0.0,0.0,0.0,0.0,0.0,0.0,0.0,0.0,0.0,0.0,0.0,0.0,0.0,0.0,0.0,0.0,0.0,0.0,0.0,0.0,0.0,0.0,0.0,0.0,0.0,0.0,0.0,0.0,0.0,0.0,0.0,0.0,0.0,0.0,0.0,0.0,0.0,0.0,0.0,0.0,0.0,0.0,0.0,0.0,0.0,0.0,0.0,0.0,0.0,0.0,0.0,0.0,0.0,0.0,0.0,0.0,0.0,0.0,0.0,0.0,0.0,0.0,0.0,0.0,0.0,0.0,0.0,0.0,0.0,0.0,0.0,0.0,0.0,6.5923,8.1044,8.8063,9.1596,9.1596,8.6163,7.9023,7.0207,0.0,0.0,0.0,0.0,0.0,0.0,0.0,0.0,0.0,0.0,0.0,0.0,0.0,0.0,0.0,0.0,0.0,0.0,0.0,0.0,0.0,0.0,0.0,0.0,0.0,0.0,0.0,0.0,0.0,0.0,0.0,0.0,0.0,0.0,0.0,0.0,0.0,0.0,0.0,0.0,0.0,0.0,0.0,0.0,0.0,0.0,0.0,0.0,0.0,0.0,0.0,0.0,0.0,0.0,0.0,0.0,0.0,0.0,0.0,0.0,0.0,0.0,0.0,0.0,0.0,0.0,0.0,0.0,0.0,0.0,0.0,0.0,0.0,0.0,0.0,0.0,0.0,0.0,0.0,0.0,0.0,0.0,0.0,0.0,0.0,0.0,0.0,0.0,0.0,0.0,0.0,0.0,0.0,0.0,0.0,0.0,0.0,0.0,0.0,0.0,0.0,0.0,0.0,6.4854,7.3023,8.5332,8.9674,9.143,9.1032,8.6097,7.9429,7.0798,6.5633,0.0,0.0,0.0,0.0,0.0,0.0,0.0,0.0,0.0,0.0,0.0,0.0,0.0,0.0,0.0,0.0,0.0,0.0,0.0,0.0,0.0,0.0,0.0,0.0,0.0,0.0,0.0,0.0,0.0,0.0,0.0,0.0,0.0,0.0,0.0,0.0,0.0,0.0,0.0,0.0,0.0,0.0,0.0,0.0,0.0,0.0,0.0,0.0,0.0,0.0,0.0,0.0,0.0,0.0,0.0,0.0,0.0,0.0,0.0,0.0,0.0,0.0,0.0,0.0,0.0,0.0,0.0,0.0,0.0,0.0,0.0,0.0,0.0,0.0,0.0,0.0,0.0,0.0,0.0,0.0,0.0,0.0,0.0,0.0,0.0,0.0,0.0,0.0,0.0,0.0,0.0,0.0,0.0,0.0,0.0,0.0,0.0,0.0,0.0,0.0,0.0,0.0,7.22,7.888,8.7137,8.9873,9.0767,9.0072,8.5549,7.9177,7.0566,6.4091,0.0,0.0,0.0,0.0,0.0,0.0,0.0,0.0,0.0,0.0,0.0,0.0,0.0,0.0,0.0,0.0,0.0,0.0,0.0,0.0,0.0,0.0,0.0,0.0,0.0,0.0,0.0,0.0,0.0,0.0,0.0,0.0,0.0,0.0,0.0,0.0,0.0,0.0,0.0,0.0,0.0,0.0,0.0,0.0,0.0,0.0,0.0,0.0,0.0,0.0,0.0,0.0,0.0,0.0,0.0,0.0,0.0,0.0,0.0,0.0,0.0,0.0,0.0,0.0,0.0,0.0,0.0,0.0,0.0,0.0,0.0,0.0,0.0,0.0,0.0,0.0,0.0,0.0,0.0,0.0,0.0,0.0,0.0,0.0,0.0,0.0,0.0,0.0,0.0,0.0,0.0,0.0,0.0,0.0,0.0,0.0,0.0,0.0,0.0,0.0,0.0,0.0,7.2106,7.9352,8.6627,8.868,8.9277,8.8548,8.2758,7.6354,6.9696,6.2236,0.0,0.0,0.0,0.0,0.0,0.0,0.0,0.0,0.0,0.0,0.0,0.0,0.0,0.0,0.0,0.0,0.0,0.0,0.0,0.0,0.0,0.0,0.0,0.0,0.0,0.0,0.0,0.0,0.0,0.0,0.0,0.0,0.0,0.0,0.0,0.0,0.0,0.0,0.0,0.0,0.0,0.0,0.0,0.0,0.0,0.0,0.0,0.0,0.0,0.0,0.0,0.0,0.0,0.0,0.0,0.0,0.0,0.0,0.0,0.0,0.0,0.0,0.0,0.0,0.0,0.0,0.0,0.0,0.0,0.0,0.0,0.0,0.0,0.0,0.0,0.0,0.0,0.0,0.0,0.0,0.0,0.0,0.0,0.0,0.0,0.0,0.0,0.0,0.0,0.0,0.0,0.0,0.0,0.0,0.0,0.0,0.0,0.0,0.0,0.0,0.0,0.0,7.2175,7.9023,0.0,8.6792,8.6971,8.5854,8.185,7.6037,6.8402,0.0,0.0,0.0,0.0,0.0,0.0,0.0,0.0,0.0,0.0,0.0,0.0,0.0,0.0,0.0,0.0,0.0,0.0,0.0,0.0,0.0,0.0,0.0,0.0,0.0,0.0,0.0,0.0,0.0,0.0,0.0,0.0,0.0,0.0,0.0,0.0,0.0,0.0,0.0,0.0,0.0,0.0,0.0,0.0,0.0,0.0,0.0,0.0,0.0,0.0,0.0,0.0,0.0,0.0,0.0,0.0,0.0,0.0,0.0,0.0,0.0,0.0,0.0,0.0,0.0,0.0,0.0,0.0,0.0,0.0,0.0,0.0,0.0,0.0,0.0,0.0,0.0,0.0,0.0,0.0,0.0,0.0,0.0,0.0,0.0,0.0,0.0,0.0,0.0,0.0,0.0,0.0,0.0,0.0,0.0,0.0,0.0,0.0,0.0,0.0,0.0,0.0,6.4882,7.227,7.8892,0.0,8.4804,8.4918,8.4189,8.0063,7.4496,6.754,0.0,0.0,0.0,0.0,0.0,0.0,0.0,0.0,0.0,0.0,0.0,0.0,0.0,0.0,0.0,0.0,0.0,0.0,0.0,0.0,0.0,0.0,0.0,0.0,0.0,0.0,0.0,0.0,0.0,0.0,0.0,0.0,0.0,0.0,0.0,0.0,0.0,0.0,0.0,0.0,0.0,0.0,0.0,0.0,0.0,0.0,0.0,0.0,0.0,0.0,0.0,0.0,0.0,0.0,0.0,0.0,0.0,0.0,0.0,0.0,0.0,0.0,0.0,0.0,0.0,0.0,0.0,0.0,0.0,0.0,0.0,0.0,0.0,0.0,0.0,0.0,0.0,0.0,0.0,0.0,0.0,0.0,0.0,0.0,0.0,0.0,0.0,0.0,0.0,0.0,0.0,0.0,0.0,0.0,0.0,0.0,0.0,0.0,0.0,0.0,0.0,0.0,6.4637,7.2696,7.9056,8.1722,8.2706,8.3366,8.3862,7.7153,7.1132,0.0,0.0,0.0,0.0,0.0,0.0,0.0,0.0,0.0,0.0,0.0,0.0,0.0,0.0,0.0,0.0,0.0,0.0,0.0,0.0,0.0,0.0,0.0,0.0,0.0,0.0,0.0,0.0,0.0,0.0,0.0,0.0,0.0,0.0,0.0,0.0,0.0,0.0,0.0,0.0,0.0,0.0,0.0,0.0,0.0,0.0,0.0,0.0,0.0,0.0,0.0,0.0,0.0,0.0,0.0,0.0,0.0,0.0,0.0,0.0,0.0,0.0,0.0,0.0,0.0,0.0,0.0,0.0,0.0,0.0,0.0,0.0,0.0,0.0,0.0,0.0,0.0,0.0,0.0,0.0,0.0,0.0,0.0,0.0,0.0,0.0,0.0,0.0,0.0,0.0,0.0,0.0,0.0,0.0,0.0,0.0,0.0,0.0,0.0,0.0,0.0,0.0,0.0,6.5701,7.2802,7.8824,8.1919,8.2707,8.2329,8.059,7.6495,7.1325,6.5145,0.0,0.0,0.0,0.0,0.0,0.0,0.0,0.0,0.0,0.0,0.0,0.0,0.0,0.0,0.0,0.0,0.0,0.0,0.0,0.0,0.0,0.0,0.0,0.0,0.0,0.0,0.0,0.0,0.0,0.0,0.0,0.0,0.0,0.0,0.0,0.0,0.0,0.0,0.0,0.0,0.0,0.0,0.0,0.0,0.0,0.0,0.0,0.0,0.0,0.0,0.0,0.0,0.0,0.0,0.0,0.0,0.0,0.0,0.0,0.0,0.0,0.0,0.0,0.0,0.0,0.0,0.0,0.0,0.0,0.0,0.0,0.0,0.0,0.0,0.0,0.0,0.0,0.0,0.0,0.0,0.0,0.0,0.0,0.0,0.0,0.0,0.0,0.0,0.0,0.0,0.0,0.0,0.0,0.0,0.0,0.0,0.0,0.0,0.0,0.0,0.0,0.0,6.5772,7.2326,7.7916,8.0917,8.0754,8.0181,7.9425,7.5747,7.1092,6.5744,0.0,0.0,0.0,0.0,0.0,0.0,0.0,0.0,0.0,0.0,0.0,0.0,0.0,0.0,0.0,0.0,0.0,0.0,0.0,0.0,0.0,0.0,0.0,0.0,0.0,0.0,0.0,0.0,0.0,0.0,0.0,0.0,0.0,0.0,0.0,0.0,0.0,0.0,0.0,0.0,0.0,0.0,0.0,0.0,0.0,0.0,0.0,0.0,0.0,0.0,0.0,0.0,0.0,0.0,0.0,0.0,0.0,0.0,0.0,0.0,0.0,0.0,0.0,0.0,0.0,0.0,0.0,0.0,0.0,0.0,0.0,0.0,0.0,0.0,0.0,0.0,0.0,0.0,0.0,0.0,0.0,0.0,0.0,0.0,0.0,0.0,0.0,0.0,0.0,0.0,0.0,0.0,0.0,0.0,0.0,0.0,0.0,0.0,0.0,0.0,0.0,0.0,6.522,7.139,7.6476,7.9064,7.7992,7.7821,7.9483,7.4921,7.0711,6.8044,0.0,0.0,0.0,0.0,0.0,0.0,0.0,0.0,0.0,0.0,0.0,0.0,0.0,0.0,0.0,0.0,0.0,0.0,0.0,0.0,0.0,0.0,0.0,0.0,0.0,0.0,0.0,0.0,0.0,0.0,0.0,0.0,0.0,0.0,0.0,0.0,0.0,0.0,0.0,0.0,0.0,0.0,0.0,0.0,0.0,0.0,0.0,0.0,0.0,0.0,0.0,0.0,0.0,0.0,0.0,0.0,0.0,0.0,0.0,0.0,6.0251,0.0,0.0,0.0,0.0,0.0,0.0,0.0,0.0,0.0,0.0,0.0,0.0,0.0,0.0,0.0,0.0,0.0,0.0,0.0,0.0,0.0,0.0,0.0,0.0,0.0,0.0,0.0,0.0,0.0,0.0,0.0,0.0,0.0,0.0,0.0,0.0,0.0,0.0,0.0,0.0,0.0,6.5156,7.0518,7.5215,7.8377,7.8558,7.8183,7.7575,7.4427,7.1091,6.7862,6.3671,0.0,0.0,0.0,0.0,0.0,0.0,0.0,0.0,0.0,0.0,0.0,0.0,0.0,0.0,0.0,0.0,0.0,0.0,0.0,0.0,0.0,0.0,0.0,0.0,0.0,0.0,0.0,0.0,0.0,0.0,0.0,0.0,0.0,0.0,0.0,0.0,0.0,0.0,0.0,0.0,0.0,0.0,0.0,0.0,0.0,0.0,0.0,0.0,0.0,0.0,0.0,0.0,0.0,0.0,0.0,0.0,0.0,0.0,0.0,0.0,6.282,0.0,0.0,0.0,0.0,0.0,0.0,0.0,0.0,0.0,0.0,0.0,0.0,0.0,0.0,0.0,0.0,0.0,0.0,0.0,0.0,0.0,0.0,0.0,0.0,0.0,0.0,0.0,0.0,0.0,0.0,0.0,0.0,0.0,0.0,0.0,0.0,0.0,0.0,0.0,0.0,6.567,6.9958,7.4043,7.7531,7.7425,7.6774,7.6569,7.4447,7.1787,6.8402,6.4801,0.0,0.0,0.0,0.0,0.0,0.0,0.0,0.0,0.0,0.0,0.0,0.0,0.0,0.0,0.0,0.0,0.0,0.0,0.0,0.0,0.0,0.0,0.0,0.0,0.0,0.0,0.0,0.0,0.0,0.0,0.0,0.0,0.0,0.0,0.0,0.0,0.0,0.0,0.0,0.0,0.0,0.0,0.0,0.0,0.0,0.0,0.0,0.0,0.0,0.0,0.0,0.0,0.0,6.829,7.0105,7.022,7.2175,7.3091,7.2962,7.0707,6.8044,6.5319,0.0,0.0,0.0,0.0,0.0,0.0,0.0,0.0,0.0,0.0,0.0,0.0,0.0,0.0,0.0,0.0,0.0,0.0,0.0,0.0,0.0,0.0,0.0,0.0,0.0,6.4768,6.4738,0.0,0.0,0.0,0.0,0.0,0.0,0.0,0.0,0.0,0.0,0.0,0.0,6.6149,6.974,7.3338,7.6807,7.6021,7.534,7.594,7.4802,7.2724,6.9728,6.6476,6.3304,0.0,0.0,0.0,0.0,0.0,0.0,0.0,0.0,0.0,0.0,0.0,0.0,0.0,0.0,0.0,0.0,0.0,0.0,0.0,0.0,0.0,0.0,0.0,0.0,0.0,0.0,0.0,0.0,0.0,0.0,0.0,0.0,5.439,5.5219,0.0,0.0,0.0,0.0,0.0,0.0,0.0,0.0,0.0,0.0,0.0,0.0,0.0,6.4094,6.7497,6.9905,7.1981,7.3702,7.6249,7.8143,7.9224,7.9633,7.9762,7.9698,7.8726,0.0,7.0338,6.9205,0.0,0.0,0.0,0.0,0.0,0.0,0.0,0.0,0.0,0.0,0.0,0.0,0.0,0.0,0.0,0.0,0.0,0.0,0.0,0.0,0.0,0.0,6.8626,7.029,7.0123,6.9691,0.0,6.4766,5.9952,6.0993,6.0154,0.0,0.0,0.0,0.0,0.0,0.0,0.0,6.5943,7.0013,7.357,7.5997,7.5972,7.5877,7.5972,7.5245,7.3989,7.2359,6.9162,6.5871,6.2688,6.0677,0.0,0.0,0.0,0.0,0.0,0.0,0.0,0.0,0.0,0.0,0.0,0.0,0.0,0.0,0.0,0.0,0.0,0.0,0.0,0.0,0.0,0.0,0.0,0.0,0.0,0.0,0.0,0.0,0.0,5.55,5.8172,5.7716,5.9009,5.8558,0.0,0.0,0.0,0.0,0.0,0.0,0.0,0.0,0.0,6.7593,6.9375,7.1574,7.4314,7.7122,7.9374,8.1003,8.326,8.4939,8.6195,8.6492,8.6813,8.7032,8.6281,8.4096,8.0573,7.4735,7.0636,6.7883,0.0,0.0,0.0,0.0,6.3166,6.476,6.5861,6.6711,0.0,6.7492,0.0,0.0,0.0,0.0,0.0,0.0,0.0,0.0,0.0,0.0,7.0884,7.2848,7.3044,7.2776,7.3208,6.9482,6.5608,0.0,6.2575,6.0741,5.9041,0.0,0.0,0.0,0.0,6.4615,6.695,7.0854,7.4075,7.5814,7.6319,7.6297,7.5372,7.4717,7.3262,7.0597,6.8405,6.5932,6.3123,6.1051,5.8767,0.0,0.0,0.0,0.0,0.0,0.0,0.0,0.0,0.0,0.0,0.0,0.0,0.0,0.0,0.0,0.0,0.0,0.0,0.0,0.0,0.0,0.0,0.0,0.0,0.0,0.0,0.0,0.0,5.8542,6.1326,6.0083,6.2424,6.2327,0.0,0.0,0.0,0.0,0.0,0.0,6.5842,6.8363,7.1574,7.5346,7.7299,7.9418,8.1867,8.4128,8.6106,8.7761,8.9317,9.0682,9.1988,9.2346,9.2808,9.3171,9.2417,9.1301,8.93,8.0671,7.5343,7.2424,6.9574,6.7818,6.6777,6.7329,6.821,6.9547,7.1647,7.2195,7.2111,7.2783,0.0,6.8078,6.6712,0.0,0.0,0.0,0.0,6.6841,6.9349,7.1411,7.3214,7.512,7.5677,7.5635,7.5685,7.3868,7.1336,0.0,6.6063,6.3835,6.1165,0.0,0.0,0.0,0.0,6.6406,6.8774,7.2167,7.4904,7.6084,7.6523,7.6119,7.4837,7.4256,7.259,6.9676,6.8165,6.6343,6.3952,6.1604,5.9555,5.8175,0.0,0.0,0.0,0.0,0.0,0.0,0.0,0.0,0.0,0.0,0.0,0.0,0.0,0.0,0.0,0.0,0.0,0.0,0.0,0.0,0.0,0.0,0.0,0.0,0.0,0.0,0.0,0.0,0.0,6.1695,6.5728,0.0,0.0,0.0,0.0,6.3542,6.724,7.0952,7.4269,7.6567,7.9892,8.4148,8.5051,8.6921,8.9963,9.0554,9.2082,9.44,9.4229,9.518,9.72,9.6548,9.6394,9.6774,9.6021,9.5175,9.3596,8.6544,8.236,8.0114,7.6538,7.4701,7.3842,7.3323,7.3312,7.3853,7.4989,7.5386,7.5793,7.8015,7.6828,7.3825,7.0529,6.8958,0.0,0.0,6.9635,7.148,7.3323,7.5092,7.6878,7.8186,7.8826,7.912,7.8991,7.7533,7.5611,0.0,7.1607,6.9903,6.8405,0.0,6.7096,6.5445,6.7213,6.9536,7.1664,7.4224,7.6146,7.6684,7.6184,7.5509,7.4676,7.4001,7.3073,7.1655,6.9646,6.8044,6.6606,6.3791,6.1378,5.9512,5.7547,0.0,0.0,0.0,0.0,0.0,0.0,0.0,0.0,0.0,0.0,0.0,0.0,0.0,0.0,0.0,0.0,0.0,0.0,0.0,0.0,0.0,0.0,0.0,0.0,0.0,0.0,0.0,0.0,6.9414,7.3327,0.0,6.9702,7.0514,7.1413,7.1676,7.5313,7.8893,8.193,8.3918,8.6694,9.051,9.1351,9.287,9.5404,9.6031,9.6809,9.7671,9.7976,9.8607,9.9643,9.9668,9.9592,9.952,9.8934,9.8349,9.7293,9.3393,8.9042,8.4518,8.2165,8.0147,7.8704,7.8933,7.9051,7.9266,8.0099,7.997,7.9267,7.8046,7.6287,7.4463,7.3241,7.2859,7.2867,7.3429,7.4547,7.6037,7.7621,7.9044,8.0241,8.119,8.1586,8.1605,8.1566,8.0992,8.001,7.8727,7.444,7.0598,6.9343,6.8652,6.8023,6.7277,6.9491,7.1655,7.3117,7.5561,7.7026,7.6283,7.64,7.5662,7.3444,7.2364,7.1159,6.9782,6.8221,6.7004,6.6151,6.415,6.2164,6.0588,5.8633,5.6317,0.0,0.0,0.0,0.0,0.0,0.0,0.0,0.0,0.0,0.0,0.0,0.0,0.0,0.0,0.0,0.0,0.0,0.0,0.0,0.0,0.0,0.0,0.0,0.0,0.0,0.0,7.4277,7.5473,7.9612,8.1044,7.768,7.8034,7.9032,8.036,8.3342,8.6437,8.9536,9.0963,9.304,9.589,9.6667,9.7736,9.916,10.0198,10.0653,10.0733,10.1255,10.1776,10.2297,10.2357,10.1844,10.1207,10.1428,10.0772,9.941,9.832,9.5143,9.0816,8.8128,8.6118,8.4668,8.5044,8.4794,8.4281,8.4424,8.3911,8.2812,8.0457,7.8649,7.7413,7.7041,7.7088,7.733,7.8042,7.892,7.9964,8.1407,8.218,8.2674,8.3169,8.3268,8.3383,8.3383,8.2905,8.228,8.1984,7.7767,7.3609,7.1649,7.092,7.022,6.9295,7.1266,7.3159,7.4107,7.6049,7.7245,7.6752,7.6528,7.5731,7.3657,7.1824,7.0054,6.8513,6.6734,6.5471,6.4803,6.3073,6.1573,6.0152,5.7966,5.5639,5.3387,0.0,0.0,0.0,0.0,0.0,0.0,0.0,0.0,0.0,0.0,0.0,0.0,0.0,0.0,0.0,0.0,0.0,0.0,0.0,0.0,0.0,0.0,0.0,6.5696,7.2143,7.7571,7.9795,8.4374,8.6372,8.4026,8.473,8.6437,8.9242,9.1027,9.3526,9.6991,9.7833,9.8869,10.0294,10.0974,10.1363,10.1363,10.2755,10.3769,10.404,10.4063,10.4534,10.5193,10.4468,10.3381,10.2129,10.3181,10.2255,9.9955,10.1031,10.0606,9.8917,9.4577,9.2424,9.1761,9.1695,9.0486,8.8852,8.7758,8.7192,8.6623,8.5593,8.426,8.2865,8.1878,8.1564,8.1597,8.1916,8.2322,8.3008,8.432,8.4399,8.4162,8.4194,8.4194,8.4346,8.4734,8.3381,8.2327,8.2982,8.1584,7.9382,7.5896,7.5247,7.4397,7.168,7.2764,0.0,7.4921,7.5714,7.6789,7.8088,7.6577,7.5478,7.5339,7.2412,6.9834,6.8112,6.5582,6.3813,6.2865,6.1091,5.9626,5.8578,5.558,5.3923,5.3584,0.0,0.0,0.0,0.0,0.0,0.0,0.0,0.0,0.0,0.0,0.0,0.0,0.0,0.0,0.0,0.0,0.0,0.0,0.0,0.0,0.0,6.9053,7.3037,7.3444,7.9333,8.5174,8.9378,9.245,9.3808,9.2709,9.3226,9.4196,9.5522,9.7088,9.8966,10.1524,10.0877,10.1103,10.2496,10.2205,10.2484,10.3272,10.3836,10.4626,10.5208,10.5045,10.5045,10.5474,10.508,10.4699,10.4271,10.381,10.3256,10.2487,10.1766,10.1202,10.0606,9.8353,9.6697,9.5471,9.4087,9.218,8.9858,8.7745,8.7477,8.7791,8.6144,8.4977,8.4096,8.3049,8.2822,8.3063,8.315,8.3432,8.3879,8.4838,8.5549,8.6195,8.6722,8.737,8.7975,8.8096,8.6853,8.5449,8.451,8.2871,8.1157,7.9247,7.8043,7.703,7.6578,7.668,0.0,7.7109,7.7334,7.6865,7.5369,7.4129,7.2643,7.0819,6.865,6.6999,6.6031,6.4327,6.2943,6.212,6.1309,6.0069,5.8604,5.6221,5.4928,0.0,0.0,0.0,0.0,0.0,0.0,0.0,0.0,0.0,0.0,0.0,0.0,0.0,0.0,0.0,0.0,0.0,0.0,0.0,0.0,0.0,0.0,7.5555,8.0874,8.4592,8.7826,9.1583,9.5987,9.8124,9.9322,9.9517,9.9355,9.9808,10.1103,10.1427,10.2399,10.4212,10.3273,10.2885,10.3435,10.3597,10.3911,10.4161,10.5288,10.6115,10.657,10.6721,10.6904,10.7021,10.6593,10.59,0.0,10.4736,10.3843,10.295,10.2262,10.1699,0.0,0.0,0.0,0.0,0.0,9.3957,9.2117,9.0411,8.9628,8.9207,8.8104,8.6874,8.5713,8.5323,8.4771,8.4406,8.465,8.4576,8.4631,8.5593,8.6557,8.7502,8.8523,8.8976,8.9231,8.9438,8.8046,8.6594,8.542,8.389,0.0,8.1758,7.9503,7.7638,7.7036,7.7316,7.7358,7.6714,7.6862,7.6577,7.5497,7.4321,7.3236,7.1827,6.9326,0.0,0.0,0.0,6.1093,5.9634,5.922,0.0,0.0,0.0,5.5308,5.5464,5.5242,0.0,0.0,5.2844,5.2598,0.0,0.0,0.0,0.0,0.0,0.0,0.0,0.0,0.0,0.0,0.0,0.0,0.0,0.0,0.0,0.0,8.1916,8.8664,9.6408,9.6667,9.725,10.0326,10.1784,10.3176,10.4504,10.3468,10.3565,10.567,10.4601,10.4536,10.5994,0.0,0.0,0.0,0.0,10.554,10.5014,10.693,10.8011,10.8099,10.8737,10.9153,10.9087,10.8325,10.7151,10.557,10.5795,10.4637,10.2436,10.2685,10.2229,10.1302,9.991,9.9347,9.9016,9.6896,9.577,9.514,9.4146,0.0,0.0,9.0908,8.938,8.776,8.7919,8.6882,8.5908,8.6405,8.598,8.5719,8.6952,8.7732,8.8589,8.9808,8.961,8.9189,8.9595,8.8027,8.6412,8.6081,8.4795,8.3642,8.3245,8.0333,7.7506,7.5908,7.6673,7.6973,7.5613,7.5893,7.6434,7.6944,0.0,0.0,7.5187,7.1953,6.8982,6.6771,6.2809,5.9404,5.6844,5.6761,5.636,5.5524,5.5793,5.5992,5.6304,5.7356,5.8159,5.8419,5.5261,5.5026,0.0,0.0,0.0,0.0,0.0,0.0,0.0,0.0,0.0,0.0,0.0,0.0,0.0,0.0,0.0,8.2078,8.8699,9.4756,9.9743,10.2205,10.3597,10.3694,10.3921,10.4407,10.5281,10.5087,10.5605,10.7159,10.6997,10.7483,10.8908,10.7775,10.7289,10.771,10.7483,10.7474,10.7933,10.8659,10.9289,10.9765,0.0,0.0,10.9087,10.8325,10.7828,10.7383,10.6933,10.6138,10.4968,10.4515,10.3124,10.1302,10.0407,9.9778,9.9082,9.7192,9.6895,9.7161,9.4417,9.412,9.4583,9.2542,9.1006,8.9803,8.9087,8.86,0.0,8.85,8.8953,8.9567,8.9825,8.9989,9.0153,9.0448,9.0383,9.0317,9.0703,8.9567,8.8209,8.7243,8.5503,8.3962,8.3309,8.2102,8.1219,8.0807,8.0586,8.0238,7.9949,7.8841,7.7718,7.7015,7.4984,7.3271,7.2415,6.9905,6.7919,6.6561,6.3306,6.0947,5.9913,5.9859,5.983,5.9609,5.9718,5.9694,5.983,6.0048,6.0234,6.0325,5.9023,5.8494,0.0,0.0,0.0,0.0,0.0,0.0,0.0,0.0,0.0,0.0,0.0,6.7931,7.1403,0.0,8.1641,8.8311,9.3566,9.825,10.2269,10.5087,10.6382,10.5605,10.5896,10.6382,10.7095,10.7192,10.7613,10.8681,10.839,10.8714,10.9718,10.8811,10.8293,10.8196,10.8293,10.8225,10.8275,10.8991,10.9501,10.9795,10.9949,10.9859,10.9317,10.8739,10.8325,10.7927,10.6801,10.6304,10.6304,10.5178,10.3389,10.1401,10.1004,10.0209,9.9182,9.8318,9.8054,9.7956,9.6367,9.5739,9.5574,9.432,9.2843,9.1598,9.0946,9.0228,8.9545,8.9803,8.9803,8.9996,9.0773,9.1134,9.1463,9.2081,9.218,9.2081,9.1719,9.1196,9.0222,8.8117,8.6953,8.5984,8.4448,8.3967,8.3353,8.2141,8.1663,8.0997,7.9748,7.8917,7.7883,7.6537,7.5239,7.4099,7.2833,6.9895,6.7564,6.6546,6.4067,6.2392,6.1493,6.1465,6.1329,6.0782,6.1054,6.1189,6.1189,6.1515,6.1739,6.1816,6.1342,6.0626,0.0,0.0,0.0,0.0,0.0,0.0,0.0,6.4222,6.6509,6.7882,7.0653,7.425,7.8933,8.3155,8.776,9.3655,9.7762,10.1173,10.4245,10.6803,10.8001,10.7289,10.771,10.8293,10.8908,10.9005,10.9297,11.0009,10.9523,10.9426,11.0009,10.9523,10.8908,10.8293,10.8908,10.894,10.8419,10.9321,10.974,10.9736,11.0395,11.0245,10.9509,10.9383,10.8838,10.7927,10.6403,10.6205,10.6801,10.531,10.3588,10.1799,10.1699,10.0805,9.9679,9.9546,9.9115,9.8585,9.842,9.7491,9.6234,9.6069,9.4782,9.3335,9.3434,9.2319,9.1175,9.1435,9.1107,9.0749,9.1883,9.2308,9.2671,9.3522,9.3455,9.2964,9.2209,9.2237,9.162,8.8895,8.844,8.792,8.6174,8.561,8.4824,8.2667,8.2125,8.1175,7.9333,7.8627,7.7817,7.6674,7.6224,7.5531,7.4126,7.0922,6.8501,6.7321,6.5609,6.4225,6.3105,6.2969,6.2501,6.1651,6.2085,6.2248,6.2139,6.2628,6.2996,6.3087,6.3087,6.2192,6.3099,6.0135,5.9652,6.264,6.4479,6.6678,0.0,7.3586,7.5491,7.7551,8.0827,8.3987,8.6469,9.1124,9.521,9.7282,10.2172,10.5637,10.5475,10.839,11.0301,10.9523,10.9523,10.9621,10.9718,10.9718,11.0009,11.0722,11.0689,11.0689,11.0786,11.0689,11.0624,11.0527,11.0592,11.0787,11.1174,11.1206,11.1106,11.0835,11.0993,11.0583,10.9509,11.0102,10.9581,10.7927,10.6403,10.6205,10.6801,10.531,10.4184,10.3289,10.2627,10.1898,10.1103,10.0407,10.0109,9.9977,9.938,9.9049,9.8817,9.8155,9.6664,9.5343,9.5968,9.5606,9.4848,9.498,9.5541,9.6102,9.554,9.4351,9.3168,9.3396,9.215,9.1069,9.1224,9.1191,9.1032,8.9936,8.9155,8.8374,8.7717,8.6895,8.5989,8.5023,8.3735,8.2723,8.2357,8.0375,7.892,7.8793,7.7457,7.598,7.4182,7.2895,7.1484,6.9716,6.8214,6.7105,6.6427,6.5911,6.5341,6.4717,6.4771,6.4527,6.4012,6.4355,6.4511,6.4358,6.4638,6.3744,6.6316,6.4835,6.49,6.6831,6.9922,7.327,7.6167,7.9129,8.1988,8.4116,8.7857,9.1545,9.4131,9.6906,9.9646,0.0,10.4268,10.5825,10.6674,10.8811,10.9718,10.8131,10.8484,10.9195,11.004,11.0333,11.056,11.0592,11.0819,11.0884,11.0884,11.0884,11.0884,11.0884,11.0884,11.1079,11.1176,11.1241,11.1079,11.0948,11.1236,11.0873,10.9984,11.0625,10.9795,10.7843,10.7912,10.7268,10.5947,10.5927,10.5012,10.3588,10.3289,10.2288,10.1025,10.0436,10.0308,10.0308,9.9977,9.9612,9.9215,9.8917,9.7988,9.6994,9.6695,9.6627,9.6627,9.6199,9.6728,9.7391,9.736,9.6367,9.5342,9.4913,9.4351,9.3429,9.227,9.2666,9.274,9.0946,9.0619,9.0122,8.881,8.8143,8.7593,8.6622,8.5525,8.3984,8.2047,8.0902,7.9704,7.8403,7.7477,7.6486,7.5727,7.4158,7.2738,7.1962,7.0529,6.9269,6.8362,6.7762,6.7162,6.6264,6.5911,6.545,6.4826,6.4972,6.5108,6.5103,6.5245,6.4917,6.8157,6.8344,6.9407,7.1617,7.5763,7.9814,8.1839,8.5147,8.8277,9.044,9.3776,9.712,9.9614,10.0928,10.2667,10.5152,10.5955,10.6629,10.7548,10.8908,10.8779,10.6214,10.6304,10.6915,10.8031,10.9321,11.0364,11.0557,11.0982,11.111,11.0916,11.1078,11.111,11.0884,11.0884,11.0884,11.0884,11.0884,11.0884,11.0884,11.1209,11.0948,11.0392,11.0541,10.978,10.8591,10.86,10.7466,10.5702,10.6093,10.531,10.3886,10.3347,10.2412,10.1042,10.0258,10.0067,10.0204,10.0204,9.984,9.9546,9.9347,9.8784,9.8088,9.7258,9.719,9.7388,9.7058,9.7322,9.7886,9.8155,9.7658,9.6929,9.62,9.5836,9.5206,9.3384,9.372,9.3891,9.1861,9.1825,9.1485,8.9883,8.9246,8.8789,8.7898,8.674,8.4876,8.1948,8.0861,7.9925,7.8393,7.7666,7.7245,7.7076,7.5351,7.3916,7.3257,7.1898,7.0759,6.9525,6.9088,6.8334,6.7268,6.6834,6.6155,6.5178,6.5499,6.5491,6.549,6.5775,6.5808,6.7157,6.8516,7.0792,7.7074,8.1867,8.598,8.9478,9.2522,9.521,9.7379,9.8999,10.0488,10.1978,10.3403,10.4666,10.5475,10.7904,10.92,10.7872,10.8908,10.8419,10.4443,10.3251,10.2458,0.0,10.5842,10.9159,11.0722,11.1564,11.1661,11.0916,11.1564,11.1596,11.0916,11.0884,11.0884,11.0884,11.0884,11.0884,11.0884,11.0884,11.0625,11.0392,10.9461,10.9476,11.0431,10.7598,10.6674,10.6735,10.531,10.4714,10.4515,10.2667,10.1964,10.1734,9.9864,9.9479,9.9823,9.9823,10.0034,10.0209,9.948,9.8784,9.8155,9.8155,9.7658,9.7293,9.7956,9.8155,9.8155,9.8188,9.7658,9.6929,9.62,9.5438,9.471,9.3948,9.3558,9.317,9.2679,9.2183,9.1545,9.1273,8.9979,8.8948,8.8948,8.7163,8.5139,8.286,8.0252,7.8818,7.9436,7.8931,7.8312,7.7694,7.675,7.5147,7.3024,7.2354,7.1328,6.9737,6.9656,6.9086,6.7892,6.7838,6.6969,6.5178,6.5938,6.6098,6.549,6.6173,6.6595,6.9417,7.4326,8.0329,8.4007,8.8761,9.3001,9.5122,9.7055,9.8772,9.997,9.9598,9.9256,9.9744,10.0066,10.0783,10.2881,10.5343,10.7232,10.7674,10.8118,10.6679,10.1933,10.1662,0.0,0.0,0.0,0.0,10.8692,10.991,11.0624,11.0884,11.111,11.1175,11.0884,11.0884,11.0884,11.0884,11.0884,11.0884,11.0884,11.0398,11.0333,11.0625,10.939,10.8996,10.9317,10.8129,10.6877,10.5653,10.572,10.4844,10.3667,10.3634,10.3106,10.1899,10.0979,10.0629,10.0482,9.9955,9.9769,9.9579,9.9347,9.8784,9.8088,9.7625,9.7625,9.7757,9.7525,9.779,9.8188,9.8188,9.7658,9.7062,9.6797,9.6167,9.5438,9.4676,9.4649,9.442,9.3663,9.3458,9.3112,9.1835,9.113,9.005,8.7581,8.5607,8.3789,8.2448,8.0498,7.9324,7.9549,7.8987,7.8509,7.8312,7.7222,7.6023,7.4508,7.3556,7.2656,7.1383,7.0656,7.0117,6.971,6.8896,6.7783,6.6399,6.6997,6.6799,6.6098,6.6672,6.6929,7.4253,8.0313,8.6823,9.0392,9.4366,9.7753,9.9014,10.01,10.0877,10.0585,9.9176,9.7665,9.6658,9.5929,9.6361,9.8978,10.075,10.295,10.5857,10.5321,10.3486,10.0458,9.974,9.9232,0.0,0.0,0.0,10.6888,10.8546,10.9653,11.0268,11.0624,11.0884,11.0884,11.0884,11.0884,11.0884,11.0884,11.0884,11.0884,11.0398,11.0301,11.0495,10.9297,10.8582,10.7961,10.7598,10.632,10.4634,10.5491,10.4897,10.3381,10.3601,10.2898,10.1757,10.0837,10.0313,10.0169,9.9676,9.9632,9.9612,9.9347,9.895,9.842,9.7724,9.779,9.8122,9.7789,9.8054,9.8349,9.858,9.815,9.7556,9.7292,9.6797,9.62,9.5438,9.5244,9.5011,9.4285,9.4176,9.3825,9.2682,9.2007,9.0603,8.7492,8.5594,8.3924,8.2339,8.0783,7.997,8.0195,7.9464,7.8931,7.8931,7.7835,7.6605,7.5281,7.4736,7.3781,7.2473,7.1581,7.1121,7.0931,6.9927,6.8842,6.7648,6.7886,6.7557,6.7037,6.7252,6.7461,8.1166,8.6269,9.0485,9.5792,9.8885,10.0636,10.1168,10.1784,10.1557,9.9387,9.7541,9.5436,9.2554,9.1234,9.1497,9.4279,9.5164,9.7514,10.2755,10.1265,9.963,0.0,0.0,0.0,0.0,0.0,0.0,10.5766,0.0,10.8906,10.9354,11.0268,11.0884,11.0884,11.0884,11.0884,11.0884,11.0884,11.0884,11.0884,11.0819,11.043,10.9815,10.9102,10.7771,10.632,10.6255,10.5169,10.372,10.4735,10.4619,10.3908,10.259,10.1855,10.1197,9.946,9.8796,9.8873,9.9123,9.9618,10.0142,9.948,9.9248,9.9082,9.8387,9.8188,9.8186,9.8609,9.8637,9.8664,9.9044,9.8888,9.8472,9.7715,9.7325,9.6896,9.6167,9.5441,9.4874,9.4874,9.4366,9.3817,9.3817,9.2575,9.0858,8.8427,8.7089,8.5494,8.2679,8.1263,8.0785,8.1347,8.0335,7.9605,7.9577,7.8425,7.7054,7.5526,7.5512,7.48,7.3102,7.2723,7.2125,7.1528,7.0931,7.0036,6.8814,6.8678,6.8531,6.8225,6.8058,6.7881,8.5472,9.2282,9.8368,9.948,10.1787,10.3224,10.231,10.0974,9.9096,9.6138,9.1332,8.6776,8.3192,8.3723,8.6216,9.0783,9.5917,10.1033,10.5516,10.5952,0.0,10.2379,0.0,10.1743,10.1075,10.1674,0.0,0.0,10.6889,10.8066,11.0398,11.0722,11.0884,11.0884,11.0884,11.0884,11.0884,11.0884,11.0884,11.0884,10.9815,10.9523,10.9815,10.8519,10.7645,10.7284,10.7284,10.6052,10.4258,10.494,10.4194,10.2915,10.3013,10.26,10.1855,10.1301,10.0825,10.03,10.0051,9.947,9.8658,9.8493,9.8066,9.7573,9.7682,9.7751,9.7784,9.7846,9.7879,9.7776,9.7561,9.7462,9.7272,9.6822,9.666,9.6465,9.6036,9.5441,9.4874,9.4874,9.4092,9.3261,9.2981,9.2397,9.0925,8.8001,8.7297,8.6305,8.3939,8.2568,8.174,8.1431,8.0701,8.0054,7.9605,7.8818,7.7863,7.6493,7.6224,7.5485,7.4222,7.3677,7.3077,7.2152,7.1555,7.066,6.9466,6.9615,6.9316,6.886,6.8993,6.867,9.124,9.6911,10.179,10.1597,10.2755,10.327,9.9596,9.7847,9.5294,8.9089,8.4781,8.0623,7.5873,7.7839,8.164,8.6634,9.2712,9.874,10.4431,10.5267,10.496,10.3975,10.4268,0.0,10.3759,10.4115,10.5274,0.0,10.6928,10.7771,11.0169,11.0236,11.0592,11.0884,11.0884,11.0884,11.0884,11.0884,11.0884,11.0884,11.0106,10.9718,10.9815,10.8681,10.7677,10.6771,0.0,10.5799,10.3629,10.4887,10.4456,10.2901,10.3145,10.2797,10.2206,10.1661,10.1058,10.0563,10.0158,9.9472,9.8894,9.8986,9.8763,9.8296,9.8675,9.8811,9.8675,9.8571,9.8434,9.8263,9.788,9.7512,9.7153,9.7037,9.6813,9.6621,9.6496,9.5993,9.5585,9.5448,9.4895,9.4239,9.3494,9.251,9.0986,8.8745,8.7127,8.5832,8.4233,8.3079,8.219,8.1825,8.101,8.0223,7.9605,7.924,7.8621,7.7666,7.7282,7.6649,7.5793,7.4746,7.3842,7.2776,7.2179,7.1581,7.0787,7.0658,7.0473,7.0602,7.0165,6.9707,9.7275,10.0537,10.2526,10.2472,10.295,10.1675,9.5725,9.3709,9.0261,8.1113,7.8042,7.556,7.0531,7.3356,7.8179,8.3421,8.8757,9.4903,10.2526,10.303,10.3454,10.5441,10.5669,10.5809,10.622,10.6123,10.6835,10.8908,10.7807,10.7803,10.9419,10.9782,11.0236,11.0884,11.0884,11.0884,11.0884,11.0884,11.0884,11.0884,11.0786,11.0398,10.9815,10.9102,10.771,10.5896,10.6479,10.5184,10.2723,10.4745,10.4718,10.3425,10.327,10.2797,10.2264,10.1417,10.0621,10.0312,10.0084,9.9936,9.9851,10.0021,9.9929,9.979,10.0171,10.027,10.0166,9.9955,9.9643,9.9222,9.8971,9.8275,9.7862,9.7764,9.752,9.7168,9.7207,9.6793,9.6516,9.6128,9.589,9.5631,9.442,9.2633,9.0962,8.9655,8.7018,8.4902,8.43,8.3164,8.2274,8.219,8.1235,8.0364,7.9745,7.9689,7.9408,7.8762,7.8345,7.7844,7.7591,7.5901,7.4524,7.3702,7.2912,7.2424,7.2066,7.1624,7.1769,7.2439,7.1269,7.0679,9.9363,10.1832,10.3327,10.3311,10.246,10.0726,9.6658,9.0844,8.4439,7.8271,7.2907,6.9058,6.794,7.0992,7.6932,8.6732,9.2221,9.8052,10.6247,10.7335,10.7713,10.9003,10.8822,10.8996,10.9847,10.9195,0.0,0.0,0.0,10.9588,11.0657,11.0657,11.0786,11.0884,11.0884,11.0884,11.0884,11.0884,11.0884,11.0884,11.0301,10.9912,10.9815,10.9102,10.8293,10.7289,10.7483,0.0,10.4148,10.4865,10.4353,10.3016,10.3359,10.2787,10.2037,10.2379,10.1825,10.0734,10.1336,10.1108,10.0537,9.9625,9.9339,9.9339,9.979,10.0079,10.029,10.0258,10.0149,9.9974,9.9688,9.9276,9.8871,9.8559,9.8467,9.8341,9.8018,9.748,9.6793,9.6128,9.5749,9.5155,9.4072,9.3352,9.1985,8.9443,8.7839,8.6676,8.5658,8.3535,8.2106,8.16,8.1375,8.0982,8.0392,8.0307,8.0054,7.9436,7.8902,7.8513,7.8539,7.7038,7.5846,7.5207,7.4327,7.3319,7.2369,7.2414,7.2313,7.1944,7.1869,7.14,10.1217,10.3513,10.5563,10.3817,10.2377,9.9388,9.1566,8.5441,7.9022,7.024,6.6073,6.3908,6.3331,6.7188,7.3371,8.2563,8.7843,9.4118,10.372,10.5058,10.6027,10.937,10.9866,11.0037,11.0268,11.004,11.0037,11.0268,11.0171,11.0236,11.0884,11.0884,11.0884,11.0884,11.0884,11.0884,11.0884,11.0884,11.0884,11.0884,11.0527,11.0398,11.0333,10.9621,10.8908,10.8196,10.7483,0.0,10.3435,10.4247,10.3635,10.2151,10.3016,10.3147,10.2706,10.295,10.2361,10.166,10.1743,10.1695,10.1239,10.0596,10.0203,10.0138,10.0342,10.0408,10.0497,10.0243,10.021,10.0037,9.9756,9.9461,9.91,9.9052,9.8986,9.8888,9.8559,9.8216,9.7796,9.723,9.6939,9.6582,9.5625,9.3882,9.2195,9.0452,8.7591,8.561,8.5287,8.3649,8.233,8.2359,8.2078,8.1488,8.056,8.0785,8.0701,8.0083,7.9436,7.9072,7.8875,7.7538,7.6539,7.6011,7.5295,7.4719,7.4442,7.3827,7.3535,7.3387,7.2932,7.2159,10.2689,10.4732,10.6436,10.4288,10.1839,9.7319,8.6725,8.046,7.3901,6.3573,6.075,6.0271,6.0351,6.4047,6.9908,7.8372,8.2509,8.8695,9.9982,10.1972,10.3975,10.8959,11.0229,11.0623,11.0463,11.0364,0.0,11.0268,11.0429,0.0,11.0884,11.0786,11.0722,11.0884,11.0722,11.0722,11.0884,11.0884,11.0884,11.0884,11.0884,11.0884,11.0884,11.0009,10.9297,10.8714,10.7095,0.0,0.0,10.3629,10.2983,10.1577,10.2999,10.3458,10.3311,10.3048,10.2634,10.2452,10.205,10.2003,10.1938,10.1613,10.1367,10.0975,10.0957,10.1066,10.1066,10.0753,10.0654,10.0375,10.0515,10.021,9.9906,9.9742,9.947,9.9199,9.8949,9.8665,9.8555,9.8124,9.7995,9.7703,9.6945,9.4271,9.1962,9.125,8.7027,8.4213,8.4852,8.3449,8.2499,8.3033,8.2611,8.1853,8.0757,8.1122,8.1207,8.0701,8.0111,7.9661,7.9435,7.7956,7.7121,7.6899,7.6041,7.5847,7.6176,7.5225,7.4856,7.5147,7.4069,7.317,10.3769,10.4092,10.3922,10.434,10.0015,9.3767,8.7073,7.8387,6.9975,6.3686,6.0279,5.9343,6.2338,6.3659,6.8141,7.948,8.1225,8.5621,9.8707,10.1857,10.4692,10.9708,11.0946,11.1761,11.2567,11.1241,11.0818,11.1661,0.0,0.0,11.0884,11.0301,11.0203,11.0884,11.0301,11.0203,11.0884,11.0884,11.0884,11.0884,11.0884,11.0884,11.0884,10.9491,10.8908,10.8714,10.6609,0.0,0.0,10.3857,10.3161,10.2037,10.3082,10.3344,10.2933,10.29,10.2634,10.2366,10.2452,10.2452,10.2237,10.2322,10.1923,10.1217,10.1295,10.1675,10.1874,10.2147,10.2147,10.2259,10.2579,10.2577,10.199,10.1362,10.0423,9.9651,9.9199,9.8949,9.8555,9.8124,9.786,9.7405,9.6625,9.3858,9.1549,9.0798,8.6928,8.4213,8.4852,8.3449,8.233,8.2387,8.2359,8.205,8.1375,8.1375,8.1375,8.1319,8.0729,8.0645,8.1207,7.8988,7.8151,7.8708,7.7065,7.6318,7.6429,7.6093,7.595,7.6112,7.5203,7.4435,10.2492,10.4652,10.5933,10.5358,10.0105,9.3001,8.5662,7.6854,6.8667,6.2628,5.938,5.8329,6.0815,6.1386,6.4024,7.2234,7.2948,7.6958,8.9577,9.231,9.6463,10.5785,10.7961,10.9555,11.2082,0.0,11.1013,11.0949,0.0,0.0,11.0884,11.0624,11.0398,11.0236,11.0398,11.0398,11.0236,11.0689,11.0884,11.0884,11.0884,11.0689,11.0203,10.9685,10.8908,10.8066,10.6771,0.0,0.0,10.349,10.2686,10.0196,10.2787,10.344,10.29,10.29,10.2634,10.2366,10.2366,10.2776,10.3467,10.3467,10.3193,10.2869,10.2053,10.1955,10.2231,10.2062,10.225,10.2535,10.2709,10.2586,10.2329,10.16,10.0925,10.0145,9.9437,9.8949,9.8555,9.8124,9.8009,9.7847,9.7559,9.4959,9.289,9.2283,8.8056,8.5097,8.5403,8.3506,8.2302,8.2302,8.2302,8.2078,8.1459,8.1403,8.1403,8.1403,8.0813,8.0588,8.0841,7.9605,7.9325,7.9942,7.8933,7.8514,7.8849,7.801,7.7534,7.7699,7.6465,7.5727,10.0298,10.3887,10.6428,10.5638,9.9264,9.137,8.438,7.5625,6.7358,6.1764,5.9085,5.8083,5.9361,5.948,6.1206,6.6679,6.7715,7.1666,8.2774,8.5883,9.0741,10.078,10.3014,10.5605,0.0,11.1761,11.2054,0.0,0.0,0.0,11.1499,11.111,11.0689,11.0139,11.0398,11.043,11.0106,11.0624,11.0884,11.0884,11.0884,11.0301,10.92,10.9426,10.8617,10.6997,10.6512,0.0,0.0,10.3694,10.2764,10.0196,10.2816,10.3369,10.29,10.2784,10.2634,10.2366,10.2776,10.3467,10.3975,10.3975,10.4157,10.3896,10.2574,10.2363,10.246,10.2612,10.2842,10.3124,10.2892,10.2693,10.2329,10.1494,10.0819,10.0136,9.9189,9.8808,9.8412,9.8124,9.8124,9.7947,9.7478,9.4964,9.2599,9.1788,8.7625,8.461,8.4703,8.325,8.205,8.205,8.205,8.1853,8.1431,8.1403,8.1403,8.1403,8.0982,8.0757,8.0757,8.0167,8.0054,8.0476,7.9886,7.9858,8.0476,7.9408,7.8987,7.9127,7.7919,7.6907,9.7348,10.1007,10.3555,10.4456,9.6761,8.7916,8.3672,7.4555,6.5652,6.1295,5.9651,5.8905,5.8648,5.8648,6.0299,6.5319,6.7877,7.2282,8.0928,8.5818,9.0352,9.5469,9.6667,9.9873,10.7062,11.1596,11.3798,0.0,0.0,0.0,11.2891,11.1693,11.0884,11.0884,11.0203,11.0203,11.0884,11.0884,11.0884,11.0884,11.0884,10.9782,10.7677,10.8487,10.7613,10.5605,0.0,10.5184,0.0,10.4504,10.3966,10.2933,10.3295,10.3251,10.2933,10.2484,10.2366,10.2647,10.3564,10.3975,10.3975,10.3975,10.4307,10.4473,10.3244,10.29,10.3048,10.3961,10.4394,10.4482,10.3786,10.3024,10.2189,10.1215,10.0005,9.9058,9.8808,9.8412,9.8124,9.8124,9.8124,9.7624,9.5899,9.2877,9.0134,8.8392,8.4876,8.2302,8.233,8.1797,8.1403,8.1403,8.1403,8.1403,8.1403,8.1403,8.1403,8.1403,8.1375,8.1375,8.1375,8.0785,8.0476,8.0476,7.9886,7.9858,8.0476,7.9858,7.9858,8.042,7.9155,7.7947,8.8217,9.1361,9.3135,9.3399,8.8283,8.2151,7.8532,7.1966,6.5633,6.2273,6.025,5.9068,5.9295,5.8972,6.0591,6.6582,6.7715,7.0857,7.9438,8.517,9.0902,9.7412,10.4795,11.0106,0.0,0.0,0.0,0.0,0.0,0.0,11.1596,11.2082,11.1887,11.0916,11.0689,11.043,11.0203,11.0624,11.0884,11.0884,11.0884,10.9491,10.6997,10.8228,10.7386,0.0,10.5896,10.5087,10.3176,10.5119,10.4365,10.1966,10.3468,10.3727,10.3166,10.2528,10.2366,10.2647,10.3564,10.3975,10.4223,10.5161,10.5113,10.4654,10.4751,10.4323,10.3783,10.4427,10.4538,10.4614,10.4383,10.4042,10.3393,10.2459,10.134,10.0256,9.9799,9.888,9.8236,9.8775,9.756,9.6348,9.5986,9.2617,8.9918,8.9525,8.6371,8.4087,8.4157,8.3314,8.2499,8.2078,8.2021,8.1853,8.1431,8.1403,8.1403,8.1403,8.1059,8.1059,8.1403,8.0864,8.0752,8.1094,8.0926,8.0897,8.1094,8.0897,8.0701,8.0448,7.9633,7.8818,8.0526,8.4753,8.7019,8.7557,8.3165,7.8177,7.5745,7.0069,6.4659,6.2606,6.1247,6.0314,5.9781,5.9781,6.1044,6.4801,6.6841,7.0112,7.6297,8.3001,0.0,9.6764,0.0,0.0,0.0,0.0,0.0,0.0,0.0,0.0,11.1693,11.2017,11.192,11.1305,11.1013,11.0689,11.0203,11.0689,11.0884,11.0884,11.0884,10.9394,10.6674,10.8098,10.7224,10.4601,10.5994,10.5605,0.0,10.5896,10.5119,10.2982,10.4083,10.4018,10.3338,10.2593,10.2366,10.2647,10.404,10.4666,10.4764,10.5852,10.5146,10.4293,10.5055,10.4902,10.4394,10.4681,10.4681,10.4614,10.4383,10.3998,10.3513,10.2612,10.1544,10.0685,10.0341,9.9433,9.8769,9.9309,9.8012,9.6678,9.5666,9.3171,9.0801,8.967,8.7,8.5281,8.5365,8.4382,8.3483,8.3061,8.3033,8.278,8.2162,8.1684,8.1403,8.1403,8.1059,8.1059,8.1403,8.1059,8.1059,8.1403,8.1403,8.1403,8.1403,8.1403,8.1207,8.0813,8.0195,7.9689,0.0,7.9636,8.3443,8.4814,8.0099,7.4974,7.4356,6.8535,0.0,6.2509,6.2685,6.2307,6.0429,6.1174,6.1886,6.14,6.5902,7.0241,7.2476,8.054,0.0,0.0,10.1978,0.0,0.0,0.0,0.0,0.0,0.0,0.0,11.2891,11.1693,11.1272,11.1887,11.1272,11.0884,11.0884,11.0884,11.0819,11.0786,11.0884,10.9297,10.6512,10.8131,10.7289,0.0,10.6026,10.6609,10.6512,10.6609,10.6188,10.5475,10.4795,10.4018,10.3338,10.269,10.2366,10.2711,10.4895,10.562,10.5554,10.5522,10.4604,10.367,10.4361,10.4714,10.4681,10.4681,10.4681,10.4515,10.3886,10.3403,10.2777,10.1832,10.1203,10.0702,10.0441,9.9971,9.9708,9.9708,9.9297,9.8077,9.4962,9.4105,9.2564,8.902,8.7063,8.5988,8.6068,8.5084,8.4297,8.4269,8.4213,8.396,8.3342,8.2162,8.1459,8.1459,8.1431,8.1403,8.1403,8.1403,8.1403,8.1403,8.1403,8.1403,8.1403,8.1403,8.1403,8.1375,8.0757,8.0476,6.254,0.0,6.8732,6.909,6.7685,6.6385,0.0,6.4467,6.2561,6.4053,0.0,6.3084,6.3667,6.4056,6.4736,6.6226,6.8978,7.2055,7.5326,8.6919,0.0,10.3176,0.0,0.0,0.0,0.0,0.0,0.0,0.0,11.2082,11.2179,11.1887,11.1564,11.1175,11.0981,11.0884,11.0884,11.0884,11.0398,10.9297,11.0398,10.8811,10.5119,10.8196,10.771,0.0,10.6576,10.6803,10.5896,10.6382,10.5896,10.4698,10.4601,10.4018,10.3403,10.3208,10.282,10.2744,10.4594,10.4333,10.3154,10.3454,10.3752,10.3961,10.425,10.4571,10.4681,10.4681,10.4681,10.4681,10.4482,10.3986,10.3342,10.3065,10.2168,10.1155,10.1548,10.0393,9.9451,9.9995,9.8609,9.666,9.4867,9.3239,9.1724,8.9891,8.8268,8.747,8.7911,8.653,8.5421,8.4944,8.4466,8.396,8.3342,8.2555,8.2106,8.2106,8.1311,8.1059,8.1403,8.1059,8.1059,8.1403,8.1403,8.1403,8.1403,8.1403,8.1403,8.1375,8.0757,8.0476,5.7312,6.0554,6.4348,6.5657,6.4984,6.4406,6.5803,6.3631,6.1951,6.4121,6.3667,6.3246,6.4347,6.4637,6.5316,6.6938,6.9436,7.3815,8.1543,0.0,9.9128,10.5799,10.9977,0.0,0.0,0.0,0.0,0.0,0.0,11.1855,11.1499,11.179,11.1661,11.0916,11.0884,11.0884,11.0884,11.0884,11.0203,10.8811,11.0203,10.92,10.6026,10.8325,10.8098,10.5994,10.6188,10.6188,10.5994,10.5411,10.5087,10.499,10.4601,10.4018,10.3435,10.3435,10.2982,10.2679,10.4052,10.3955,10.3121,10.357,10.372,10.3961,10.404,10.4394,10.4681,10.4681,10.4681,10.4681,10.4681,10.4106,10.349,10.349,10.2607,10.1966,10.2115,10.1125,10.0359,10.0942,9.9663,9.7796,9.5738,9.4719,9.3232,9.0914,8.9429,8.8417,8.8575,8.7417,8.6236,8.559,8.5225,8.4775,8.4185,8.3539,8.2921,8.2359,8.1568,8.1171,8.1797,8.1372,8.1232,8.1403,8.1403,8.1403,8.1403,8.1403,8.1403,8.1375,8.1066,8.0897,5.6042,6.0087,6.4821,6.6939,6.5998,6.5092,6.723,6.4121,6.1562,6.425,6.4153,6.3862,6.493,6.577,0.0,6.6777,6.9928,7.6586,8.8797,9.3623,9.8545,10.5702,0.0,0.0,0.0,0.0,0.0,0.0,0.0,11.1596,11.1078,11.1564,11.1499,11.0916,11.0884,11.0884,11.0884,11.0884,11.0106,10.8681,11.0203,10.9685,10.758,10.8519,10.8487,10.758,0.0,0.0,10.6285,10.4504,10.431,10.5184,10.4601,10.3921,10.3306,10.3403,10.2982,10.2431,10.3434,10.3845,10.3812,10.426,10.4015,10.367,10.3961,10.4361,10.4681,10.4714,10.4714,10.4538,10.4505,10.3961,10.3344,10.3344,10.2933,10.2366,10.2366,10.1955,10.1497,10.1792,10.1348,10.0068,9.7209,9.6783,9.5581,9.2028,9.0413,8.9465,8.907,8.801,8.6995,8.6236,8.6068,8.5787,8.5169,8.455,8.3735,8.2668,8.2021,8.1909,8.2443,8.1965,8.1684,8.1684,8.1572,8.1544,8.1544,8.1431,8.1403,8.1403,8.1403,8.1403,5.8389,6.1646,6.4007,6.2366,6.2113,6.2858,6.5027,6.3052,6.2242,6.7424,6.7424,6.7393,7.0127,7.2981,7.3815,0.0,0.0,8.3033,0.0,0.0,0.0,0.0,0.0,0.0,0.0,0.0,0.0,0.0,0.0,11.1305,11.179,11.1305,11.1013,11.0884,11.0884,11.0884,11.0884,11.0884,10.988,10.7872,10.9912,10.9426,10.6803,10.8811,10.8908,10.7677,0.0,10.6674,10.5702,10.5378,10.4698,10.3727,10.3629,10.3176,10.2593,10.3208,10.2982,10.2366,10.2647,10.2764,10.3063,10.303,10.3261,10.367,10.3961,10.4073,10.4283,10.4538,10.4571,10.4073,10.3816,10.3311,10.3048,10.3048,10.2634,10.2366,10.2366,10.1836,10.1433,10.1858,10.1841,10.0805,9.7858,9.7464,9.6572,9.3672,9.1889,9.0933,9.0748,8.9466,8.8119,8.6967,8.6349,8.5787,8.5169,8.455,8.4101,8.3932,8.3342,8.3033,8.3117,8.3033,8.2977,8.2977,8.2443,8.2162,8.2162,8.1656,8.1403,8.1403,8.1403,8.1403,5.7029,5.9869,6.275,6.3926,6.5346,6.7004,6.9631,0.0,6.5049,7.0539,6.8431,6.707,7.1597,0.0,7.6294,7.9462,0.0,0.0,0.0,0.0,0.0,0.0,0.0,0.0,0.0,0.0,0.0,0.0,0.0,0.0,11.1402,11.1466,11.1305,11.0916,11.0884,11.0884,11.0884,11.0884,11.0009,10.8293,10.9685,10.92,10.7192,10.8196,10.8098,10.7062,0.0,10.5605,10.4925,10.418,10.3694,10.3435,10.3435,10.2982,10.2431,10.2959,10.2776,10.2334,10.2634,10.2784,10.29,10.29,10.3344,10.3961,10.404,10.4283,10.4361,10.4394,10.4394,10.4361,10.3928,10.349,10.3229,10.2933,10.2602,10.2366,10.2366,10.2082,10.2086,10.2867,10.2673,10.1654,9.9174,9.8425,9.7214,9.4204,9.2649,9.1619,9.1276,8.9748,8.8344,8.7135,8.6405,8.5787,8.5169,8.4859,8.441,8.3735,8.3735,8.3623,8.3286,8.3595,8.3623,8.3286,8.2977,8.2668,8.2302,8.2387,8.205,8.1403,8.174,8.1712,5.6737,5.9036,6.2334,6.6193,6.8144,0.0,0.0,0.0,0.0,0.0,0.0,6.8795,7.3551,7.544,0.0,8.7659,0.0,0.0,0.0,0.0,0.0,0.0,0.0,0.0,0.0,0.0,0.0,0.0,0.0,0.0,11.0916,11.1402,11.1466,11.0916,11.0884,11.0884,11.0884,11.0884,11.0301,10.9038,10.9588,10.92,10.7904,10.758,10.7095,10.6512,10.5281,10.4601,10.4212,10.3273,10.2982,10.3208,10.3208,10.2885,10.2334,10.2784,10.2634,10.2549,10.2933,10.3048,10.2867,10.3048,10.3637,10.4073,10.4217,10.4571,10.4648,10.4361,10.4394,10.4361,10.3895,10.3637,10.3376,10.2933,10.2602,10.2484,10.2484,10.2657,10.2853,10.3784,10.3229,10.2022,10.0181,9.8898,9.7173,9.4306,9.3038,9.2219,9.1546,9.0314,8.8878,8.736,8.677,8.6096,8.5197,8.5112,8.4719,8.3764,8.4157,8.4185,8.3735,8.4016,8.4045,8.3707,8.3426,8.3117,8.2752,8.3117,8.278,8.1853,8.233,8.2218,6.0623,6.2198,6.3752,6.655,6.6452,0.0,7.6669,7.3519,0.0,7.8874,0.0,0.0,0.0,8.1342,8.536,9.1458,0.0,0.0,0.0,0.0,0.0,0.0,0.0,0.0,0.0,0.0,0.0,0.0,0.0,0.0,11.0884,11.0981,11.0981,11.0884,11.0884,11.0884,11.0884,11.0884,11.0495,10.9718,10.9815,10.9426,10.8681,10.7289,10.6674,10.6576,10.5799,10.4731,10.3532,10.4115,10.3597,10.2464,10.2464,10.2366,10.2334,10.2784,10.2634,10.2517,10.3196,10.3196,10.3016,10.3816,10.4139,10.425,10.4505,10.4714,10.4681,10.4714,10.4394,10.3961,10.3196,10.3081,10.2933,10.2484,10.2667,10.2933,10.2933,10.3196,10.3637,10.3994,10.2841,10.1508,10.0306,9.8393,9.6476,9.5028,9.3798,9.2829,9.2421,9.1791,9.0479,8.8091,8.781,8.7051,8.5253,8.5112,8.5056,8.5,8.5028,8.5028,8.4972,8.4466,8.4438,8.4972,8.3848,8.3539,8.4045,8.3539,8.323,8.3145,8.3173,8.2864,5.8874,6.1069,6.3891,6.7553,6.8304,0.0,0.0,7.7525,7.703,8.4193,8.304,0.0,0.0,0.0,9.0131,0.0,0.0,0.0,0.0,0.0,0.0,0.0,0.0,0.0,0.0,0.0,0.0,0.0,0.0,0.0,11.0884,11.0884,11.0884,11.0884,11.0884,11.0884,11.0884,11.0884,11.0527,10.9815,10.9394,10.8811,10.8066,10.6609,10.5508,10.4633,10.4828,10.4083,10.2787,10.3532,10.3273,10.2366,10.2366,10.2366,10.2334,10.2784,10.2634,10.2517,10.3196,10.3344,10.3376,10.3928,10.425,10.4538,10.4714,10.4681,10.4648,10.4394,10.4217,10.3961,10.3344,10.3048,10.2751,10.2517,10.2667,10.29,10.29,10.3344,10.4125,10.4699,10.4096,10.3014,10.1103,9.9683,9.8054,9.5705,9.4418,9.3676,9.3485,9.2378,9.076,8.8709,8.7445,8.6292,8.5197,8.5449,8.5674,8.5674,8.5337,8.5112,8.5112,8.4888,8.4691,8.455,8.4466,8.4157,8.3623,8.4157,8.4016,8.3286,8.3679,8.3286,5.8389,6.0453,6.3566,6.7327,0.0,0.0,8.1187,8.1662,8.2126,8.9513,8.7984,0.0,0.0,0.0,0.0,0.0,0.0,0.0,0.0,0.0,0.0,0.0,0.0,0.0,0.0,0.0,0.0,0.0,0.0,0.0,0.0,11.0884,11.0884,11.0884,11.0884,11.0884,11.0884,11.0689,11.0301,10.9815,10.8617,10.7969,10.758,10.5994,10.4698,10.3791,10.4018,10.35,10.2464,10.3111,10.3014,10.2366,10.2366,10.2366,10.2334,10.2784,10.2784,10.2667,10.3344,10.3637,10.3816,10.425,10.4526,10.5012,10.4604,10.4835,10.5166,10.4238,10.4125,10.4177,10.3736,10.3392,10.2933,10.2484,10.2965,10.3163,10.3048,10.3637,10.4349,10.4877,10.4113,10.2686,10.1166,9.9578,9.79,9.5606,9.4619,9.4019,9.3827,9.2689,9.1238,8.958,8.7557,8.6236,8.6011,8.6011,8.6124,8.6321,8.5927,8.5618,8.5393,8.5225,8.4916,8.4494,8.4522,8.4213,8.3567,8.441,8.4382,8.3567,8.3988,8.3623,6.0193,6.0931,6.2867,0.0,0.0,0.0,8.5523,8.5701,8.5523,9.4594,9.341,9.0417,8.9769,0.0,0.0,0.0,0.0,0.0,0.0,0.0,0.0,0.0,0.0,0.0,0.0,0.0,0.0,0.0,0.0,0.0,0.0,11.0884,11.0884,11.0884,11.0884,11.0884,11.0884,11.0203,10.9815,10.9718,10.7613,10.6997,10.758,10.5475,10.4504,10.4439,10.3727,10.3014,10.2464,10.3111,10.3014,10.2366,10.2366,10.2366,10.2334,10.2784,10.29,10.3048,10.3783,10.4106,10.425,10.4571,10.5178,10.5674,10.4514,10.5418,10.6423,10.403,10.4015,10.4423,10.4157,10.3817,10.3344,10.2667,10.3261,10.3961,10.3637,10.4073,10.4681,10.4681,10.2224,10.0039,10.007,9.7579,9.5405,9.4809,9.4429,9.3827,9.3278,9.2863,9.2025,9.0816,8.8484,8.7248,8.7838,8.677,8.6321,8.6967,8.6995,8.6714,8.6068,8.5449,8.5112,8.5112,8.3932,8.3595,8.4185,8.4213,8.4213,8.4185,8.4185,8.3848,6.0591,6.171,0.0,6.7037,0.0,0.0,0.0,8.6496,0.0,0.0,9.5823,9.3969,9.3741,0.0,0.0,0.0,0.0,0.0,0.0,0.0,0.0,0.0,0.0,0.0,0.0,0.0,0.0,0.0,0.0,0.0,0.0,11.0884,11.0884,11.0884,11.0398,11.0106,11.0106,10.9426,10.8584,10.7516,10.7386,10.7192,10.6868,10.4698,10.3727,10.3727,10.2982,10.2561,10.2366,10.2593,10.2561,10.2366,10.2366,10.2366,10.2334,10.2784,10.2816,10.2634,10.3637,10.3928,10.3783,10.4538,10.5178,10.5741,10.5398,10.5629,10.5894,10.467,10.408,10.3802,10.3576,10.3694,10.3864,10.3564,10.4013,10.4326,10.406,10.4361,10.4681,10.4681,10.4211,10.2983,10.0469,9.9531,9.8295,9.5664,9.4619,9.3635,9.2891,9.1937,9.0929,9.0114,8.899,8.7793,8.6722,8.6722,8.6834,8.703,8.703,8.6963,8.6714,8.6096,8.5534,8.5112,8.5169,8.4888,8.4185,8.4635,8.4607,8.4185,8.3735,8.3202,6.2793,6.4114,0.0,7.1674,7.6242,8.1309,8.8276,0.0,0.0,0.0,0.0,9.8035,9.8444,0.0,0.0,0.0,0.0,0.0,0.0,0.0,0.0,0.0,0.0,0.0,0.0,0.0,0.0,0.0,0.0,0.0,0.0,11.0884,11.0786,11.0495,11.0009,10.9718,10.9426,10.8422,10.7483,10.6609,10.6188,10.5896,10.5702,10.4439,10.3727,10.3403,10.269,10.2366,10.2366,10.2366,10.2366,10.2366,10.2366,10.2366,10.2334,10.2602,10.2667,10.2784,10.3523,10.3783,10.3848,10.4869,10.5608,10.6238,10.6059,10.6343,10.656,10.5194,10.4554,10.4027,10.3879,10.4009,10.4161,10.4161,10.4581,10.4932,10.4654,10.4816,10.5075,10.4857,10.4703,10.3653,10.0532,9.9902,9.871,9.6066,9.4619,9.355,9.2359,9.1491,9.0816,8.9789,8.895,8.8035,8.7158,8.6991,8.7206,8.7457,8.7672,8.7719,8.7726,8.7107,8.6489,8.5871,8.5955,8.5534,8.455,8.4916,8.4803,8.4185,8.3567,8.3061,6.5837,6.7362,0.0,7.7686,8.034,0.0,9.1828,9.7749,10.2249,10.4884,0.0,10.2043,0.0,0.0,0.0,0.0,0.0,0.0,0.0,0.0,0.0,0.0,0.0,0.0,0.0,0.0,0.0,0.0,0.0,0.0,11.0689,11.0689,11.0398,10.9718,10.9621,10.92,10.8617,10.7127,10.6382,10.6285,10.4407,10.3824,10.431,10.431,10.3921,10.3306,10.2658,10.2366,10.2366,10.2366,10.2366,10.2366,10.2366,10.2366,10.2366,10.2334,10.2602,10.3081,10.3344,10.3783,10.4349,10.5365,10.6205,10.6721,10.6329,10.7203,10.7909,10.5744,10.5082,10.493,10.4755,10.4601,10.4601,10.4698,10.5245,10.5601,10.5103,10.5352,10.5638,10.508,10.422,10.2841,10.0556,9.9243,9.7816,9.5751,9.4619,9.3436,9.1909,9.1603,9.113,9.0129,8.885,8.8159,8.8276,8.7658,8.7429,8.8014,8.8446,8.8821,8.8821,8.8231,8.7641,8.7079,8.6489,8.5871,8.5197,8.5197,8.4831,8.4101,8.3483,8.3173,6.5514,6.7752,0.0,0.0,8.5593,9.3073,10.0344,10.2296,10.2867,10.3782,10.4161,10.4713,0.0,0.0,0.0,0.0,0.0,0.0,0.0,0.0,0.0,0.0,0.0,0.0,0.0,0.0,0.0,0.0,0.0,0.0,10.9297,10.9297,10.92,10.9005,10.7904,10.7192,10.7095,10.5702,10.4698,10.4115,10.4212,10.3791,10.2852,10.2852,10.2755,10.2593,10.2464,10.2366,10.2366,10.2366,10.2366,10.2366,10.2366,10.2366,10.2334,10.2634,10.2719,10.3048,10.3637,10.4073,10.4283,10.4769,10.5807,10.6622,10.5735,10.6478,10.7284,10.5646,10.5082,10.5061,10.5338,10.5378,10.5475,10.5994,10.6045,10.5744,10.467,10.5015,10.5292,10.4129,10.4757,10.4214,10.0453,10.0133,9.9163,9.4941,9.421,9.3578,9.25,9.1468,9.0965,9.0569,8.9431,8.8627,8.8103,8.8014,8.7902,8.8042,8.8258,8.8446,8.8821,8.8231,8.7838,8.7726,8.7585,8.6939,8.5843,8.5843,8.5028,8.3454,8.2808,8.2274,6.6972,0.0,0.0,8.4674,0.0,9.8514,10.1952,10.2959,10.3479,10.4245,10.5176,0.0,0.0,0.0,0.0,0.0,0.0,0.0,0.0,0.0,0.0,0.0,0.0,0.0,0.0,0.0,0.0,0.0,10.9329,10.9005,10.8293,10.8617,10.8325,10.7289,10.6803,10.6285,10.5605,10.4504,10.3824,10.3435,10.35,10.3079,10.2366,10.1978,10.1881,10.1848,10.1492,10.1492,10.1881,10.1881,10.2075,10.2366,10.2366,10.2366,10.2334,10.2784,10.29,10.3048,10.3783,10.4106,10.4139,10.4968,10.5708,10.647,10.6329,10.6659,10.695,10.6278,10.5711,10.5428,10.5663,10.5573,10.554,10.5882,10.611,10.6134,10.5058,10.5267,10.5462,10.4438,10.5148,10.4532,10.0724,9.92,9.7453,9.4372,9.3571,9.3017,9.2247,9.0659,8.9604,8.949,8.8523,8.7642,8.7339,8.7501,8.788,8.807,8.8258,8.8634,8.8821,8.8512,8.8344,8.8344,8.8344,8.7726,8.6489,8.6489,8.5674,8.4157,8.3511,8.3033,6.7948,0.0,8.1793,9.1985,9.784,0.0,10.1222,10.2245,10.3435,10.4892,10.5994,0.0,0.0,0.0,0.0,0.0,0.0,0.0,0.0,0.0,0.0,0.0,0.0,0.0,0.0,10.9523,10.92,10.8487,10.8422,10.8001,10.7192,10.7807,10.7386,10.5475,10.5799,10.5508,10.431,10.35,10.3014,10.3014,10.2302,10.1978,10.1978,10.1265,10.1071,10.1265,10.0521,10.0618,10.1298,10.1298,10.1686,10.2366,10.2366,10.2366,10.2334,10.2784,10.2867,10.3048,10.375,10.4073,10.4382,10.5266,10.5708,10.5828,10.6478,10.6739,10.655,10.6581,10.6045,10.5411,10.5573,10.5475,10.5436,10.5451,10.5915,10.6058,10.5533,10.5346,10.5338,10.4735,10.4454,10.3771,10.1011,9.779,9.5216,9.421,9.3123,9.24,9.1909,8.9604,8.825,8.8525,8.7342,8.6573,8.6875,8.7175,8.7529,8.8398,8.8502,8.8634,8.8821,8.8821,8.8821,8.8821,8.8821,8.8231,8.6995,8.6995,8.6292,8.4944,8.455,8.4241,6.4963,0.0,8.7265,0.0,9.7372,10.0158,0.0,0.0,10.2245,0.0,10.5216,0.0,0.0,0.0,0.0,0.0,0.0,0.0,0.0,0.0,0.0,0.0,0.0,10.8908,10.8908,10.839,10.7677,10.69,10.69,10.6317,10.499,10.5605,10.5605,10.4698,10.4115,10.3727,10.3532,10.2205,10.1589,10.1589,10.0812,10.0488,10.0488,9.9776,10.01,10.1265,10.0521,10.0618,10.1298,10.1298,10.1686,10.2366,10.2366,10.2366,10.2334,10.2784,10.3048,10.349,10.3928,10.4361,10.4681,10.4813,10.5277,10.5563,10.4374,10.4834,10.5601,10.4323,10.4277,10.4795,10.5411,10.5119,10.5079,10.6557,10.5817,10.4755,10.4312,10.4333,10.4277,10.3068,10.1224,10.0116,10.092,9.7938,9.5216,9.421,9.3505,9.2896,9.2472,8.9854,8.8581,8.9521,8.7782,8.7122,8.8603,8.7778,8.7913,8.9391,8.8726,8.8446,8.8821,8.8821,8.8821,8.8821,8.8821,8.8231,8.6995,8.6995,8.6068,8.4326,8.4775,8.441,7.118,7.8616,8.6314,0.0,9.7656,9.8394,10.2517,10.231,10.1678,10.3047,10.4212,0.0,0.0,0.0,0.0,0.0,0.0,0.0,0.0,0.0,10.6803,10.758,10.7969,10.8001,10.7613,10.7289,10.6609,10.5508,10.5411,10.499,10.3921,10.4601,10.4471,10.337,10.3403,10.3014,10.2205,10.1589,10.1103,10.0682,10.0391,10.0197,10.0197,9.9517,9.9549,10.01,9.9355,9.9646,10.0682,10.0682,10.1363,10.2366,10.2366,10.2366,10.2549,10.3048,10.3311,10.3637,10.4217,10.4571,10.4681,10.4681,10.4769,10.4778,10.4293,10.4423,10.4614,10.4171,10.4212,10.4601,10.4892,10.4698,10.4666,10.5436,10.5111,10.4439,10.4236,10.443,10.4066,10.2874,10.1252,10.0036,9.9602,9.7116,9.4809,9.4019,9.2932,9.235,9.2418,8.9716,8.825,8.9411,8.7451,8.6655,8.7861,8.7944,8.8163,8.9243,8.9111,8.8999,8.8849,8.8821,8.8821,8.8821,8.8821,8.8231,8.6995,8.6995,8.6377,8.5225,8.514,8.5197,7.3771,0.0,8.266,9.3468,9.5375,9.5781,0.0,0.0,10.062,0.0,10.2949,0.0,0.0,0.0,0.0,0.0,0.0,10.5994,10.6285,10.5767,10.5702,10.6771,10.7062,10.6868,10.6123,10.6091,10.5573,10.431,10.4212,10.3921,10.3208,10.3694,10.35,10.2366,10.2496,10.2205,10.1298,10.0909,10.0391,9.9679,9.9679,9.9679,9.9646,9.916,9.8934,9.8901,9.8351,9.8804,9.9938,9.9938,10.0682,10.1784,10.1784,10.2063,10.2407,10.2935,10.3327,10.3816,10.4571,10.4681,10.4681,10.4681,10.4361,10.4027,10.4326,10.4013,10.3727,10.3944,10.3986,10.405,10.4528,10.4495,10.4463,10.5005,10.4625,10.443,10.4471,10.4504,10.4234,10.3,10.1658,10.021,9.8628,9.6379,9.4619,9.4019,9.274,9.1993,9.2418,8.9716,8.8057,8.9023,8.7394,8.6572,8.7341,8.8084,8.8551,8.8914,8.9279,8.9279,8.8849,8.8821,8.8821,8.8821,8.8821,8.8288,8.722,8.722,8.6883,8.6264,8.5955,8.6152,6.6388,7.131,7.6556,8.3357,8.7949,9.1894,0.0,0.0,9.8796,10.0587,10.1757,10.2658,10.3403,10.5216,10.6382,10.5702,10.6188,10.6317,10.5702,10.499,10.4601,10.4698,10.5281,10.5411,10.4698,10.4601,10.431,10.3532,10.35,10.3208,10.2464,10.2464,10.2464,10.2366,10.1071,10.0682,10.1298,9.997,9.8934,9.8221,9.8221,9.8221,9.8221,9.8189,9.8189,9.8189,9.8124,9.8545,9.9258,9.9258,9.9679,10.0294,10.0294,10.1043,10.1955,10.2362,10.3224,10.4073,10.4571,10.4681,10.4681,10.4681,10.4361,10.3928,10.3702,10.3261,10.2816,10.2614,10.2464,10.2938,10.4573,10.4594,10.4549,10.6255,10.5352,10.4085,10.4342,10.4504,10.4234,10.3,10.1284,9.966,9.8538,9.6379,9.4619,9.4019,9.3123,9.2378,9.2418,8.991,8.8443,8.9023,8.8139,8.7367,8.7588,8.8498,8.8996,8.8961,8.8961,8.89,8.8849,8.8821,8.8821,8.8821,8.8821,8.8512,8.7866,8.7866,8.7529,8.6967,8.7501,8.7164,6.6485,6.8918,7.2136,8.0669,8.3942,8.6553,9.176,9.5187,9.7274,9.7916,10.0426,10.2172,10.1492,10.3111,10.4633,10.4892,10.4698,10.4633,10.4892,10.431,10.4018,10.4407,10.4698,10.4601,10.3921,10.3824,10.3306,10.2107,10.1622,10.1427,10.1686,10.1201,10.1201,10.1686,10.1168,10.0585,9.9938,9.8999,9.8383,9.8124,9.8124,9.8124,9.8124,9.8124,9.8124,9.8124,9.8124,9.8513,9.9193,9.9193,9.9614,10.0197,10.0197,10.0326,10.0913,10.2166,10.2751,10.3191,10.4372,10.4681,10.4681,10.4681,10.4283,10.3637,10.3458,10.3081,10.2517,10.2334,10.2366,10.2744,10.3955,10.3727,10.3414,10.4963,10.5168,10.5144,10.567,10.5508,10.4532,10.218,10.1261,9.977,9.7116,9.5347,9.421,9.4019,9.308,9.2444,9.2474,9.0966,9.0021,9.0244,8.9134,8.8581,8.8968,8.9716,9.002,8.9426,8.9924,8.97,8.8878,8.8821,8.8821,8.8821,8.8821,8.8512,8.7894,8.7894,8.781,8.7585,8.7388,8.7304,6.4833,6.6095,6.8501,7.7042,7.8958,8.0607,8.8075,9.1923,9.4333,9.5709,9.9127,10.1686,10.0715,10.1913,10.3306,10.4018,10.3727,10.3629,10.4115,10.35,10.3176,10.3403,10.3597,10.3403,10.2431,10.2528,10.2205,10.1006,10.0488,0.0,10.0909,10.0294,9.997,10.0197,10.0488,10.0002,9.8837,9.8351,9.8124,9.8124,9.8124,9.8124,9.8124,9.8124,9.8124,9.8124,9.8124,9.8383,9.8837,9.8837,9.9096,9.9517,9.9517,9.9793,10.0231,10.153,10.2278,10.2718,10.3986,10.4538,10.4538,10.4538,10.404,10.349,10.349,10.2933,10.2366,10.2366,10.2711,10.3186,10.4321,10.4321,10.4235,10.4616,10.5241,10.589,10.6155,10.5588,10.4216,10.154,10.0598,9.9193,9.5909,9.4619,9.4019,9.3827,9.3057,9.2474,9.2474,9.1552,9.0772,9.0772,9.0021,8.9716,8.9688,9.0438,9.0464,8.9426,9.0339,9.0142,8.8878,8.9205,8.9205,8.8821,8.8821,8.8625,8.8203,8.8203,8.8203,8.8203,8.781,8.7726,0.0,0.0,0.0,7.1699,7.2599,7.4547,8.4653,8.7843,8.987,9.3758,9.797,10.1071,10.1168,10.1784,10.2496,10.3208,10.3338,10.3338,10.3403,10.2787,10.2075,10.1395,10.1881,10.1784,10.0326,10.0812,10.0974,10.0197,10.0197,10.0132,10.0197,9.9549,9.8869,9.8189,9.8804,9.8837,9.8124,9.8124,9.8124,9.8124,9.8124,9.8124,9.8124,9.8124,9.8124,9.8124,9.8124,9.8124,9.8124,9.8124,9.8124,9.8124,9.8124,9.8802,9.9805,10.0988,10.1885,10.254,10.3698,10.4106,10.4106,10.4106,10.3783,10.349,10.349,10.2933,10.2366,10.2366,10.3186,10.4321,10.5339,10.6575,10.7053,10.543,10.5701,10.6069,10.5573,10.4601,10.3214,10.1492,9.9517,9.7605,9.5158,9.4429,9.3827,9.3278,9.2891,9.2474,9.2474,9.158,9.08,9.08,9.08,9.0383,8.9189,9.0271,9.0271,8.9073,9.012,9.0086,8.8878,8.9946,8.9975,8.8821,8.8821,8.8821,8.8821,8.8821,8.8821,8.8821,8.8793,8.8484,6.0656,0.0,0.0,0.0,0.0,0.0,7.4342,7.8649,8.3082,8.8108,9.2273,9.5954,9.8513,9.997,10.0877,10.1103,10.1524,10.2075,10.2593,10.1589,10.0909,10.1265,10.1006,10.0618,10.0229,10.0391,10.0197,0.0,9.8999,9.8934,9.9452,9.929,9.9096,9.8901,9.8578,9.8318,9.8124,9.8124,9.8124,9.8124,9.8124,9.8124,9.8124,9.8124,9.8124,9.8124,9.8124,9.8124,9.8124,9.8124,9.8124,9.8124,9.8124,9.8545,9.9549,10.0844,10.1708,10.2314,10.3553,10.4106,10.4139,10.3816,10.3637,10.3458,10.3229,10.2816,10.2366,10.2366,10.3186,10.4321,10.5339,10.6904,10.7843,10.6245,10.6418,10.6474,10.4761,10.3088,10.1632,10.129,9.9517,9.7605,9.5158,9.4429,9.3827,9.3278,9.2891,9.2474,9.2474,9.2139,9.2027,9.2027,9.2027,9.1971,9.1608,9.1522,9.1045,9.0288,9.0142,8.9636,8.8849,8.9177,8.9177,8.8821,8.8821,8.8821,8.8821,8.8821,8.8821,8.8821,8.8372,8.8063,6.1271,6.166,6.2696,6.4963,0.0,0.0,7.1466,7.493,7.8809,8.4699,8.9383,9.3137,9.5825,9.7476,9.8545,9.8804,9.9225,9.997,10.1298,10.0715,10.0294,10.0391,10.0002,9.9679,9.9355,9.9322,9.916,9.8772,9.8351,9.8286,9.8707,9.8448,9.8416,9.8739,9.8027,9.7638,9.7638,9.7638,9.7638,9.7638,9.7962,9.8124,9.8124,9.8124,9.8124,9.8124,9.8124,9.8124,9.8124,9.8124,9.8124,9.8124,9.8124,9.8528,9.9159,10.0857,10.1479,10.1857,10.3276,10.3961,10.3928,10.3458,10.3376,10.3311,10.3016,10.2667,10.2366,10.2366,10.3499,10.4797,10.4862,10.6871,10.8224,10.5994,10.6516,10.6857,10.44,10.2312,10.0945,10.0075,9.8509,9.6594,9.478,9.421,9.3827,9.3085,9.2697,9.2474,9.2474,9.2474,9.2474,9.2474,9.2474,9.2474,9.2474,9.1718,9.113,9.0732,9.0592,9.0114,8.9243,8.9881,8.9909,8.9215,8.9215,8.9074,8.8821,8.8821,8.8821,8.8821,8.8456,8.8147,6.2502,6.3117,6.4866,6.7942,6.5513,0.0,7.1949,7.3825,7.5728,8.2129,8.6947,9.0481,9.2392,9.3947,9.5048,9.5501,9.6116,9.7347,9.9743,10.0002,9.9743,9.916,9.8999,9.8707,9.8059,9.7995,9.7962,9.7897,9.7865,9.7865,9.7865,9.7315,9.7282,9.7962,9.7347,9.6991,9.6991,9.6926,9.6861,9.6894,9.7638,9.7995,9.7995,9.8059,9.8124,9.8124,9.8124,9.8124,9.8124,9.8124,9.8124,9.8124,9.8124,9.8444,9.8959,10.0628,10.1328,10.1689,10.2966,10.375,10.3928,10.3163,10.3163,10.3376,10.2933,10.2602,10.2366,10.2431,10.3975,10.5274,10.4386,10.6444,10.8077,10.5353,10.5971,10.6538,10.4173,10.2143,10.0219,9.8299,9.6623,9.5216,9.421,9.4019,9.3635,9.2669,9.2474,9.2474,9.2474,9.2474,9.2474,9.2474,9.2474,9.2474,9.2474,9.1524,9.0965,9.0845,9.1238,9.0985,8.9889,9.1226,9.1255,8.9749,8.9664,8.9383,8.8821,8.8821,8.8821,8.8821,8.8821,8.854,0.0,0.0,0.0,0.0,0.0,0.0,6.5415,6.7491,7.063,7.4917,7.7366,8.0313,8.5203,8.7275,8.7923,8.6854,9.0579,9.4983,9.8837,9.8901,9.848,9.8351,9.78,9.7347,9.7217,9.7217,9.6991,9.644,9.6375,9.6375,9.6375,9.6764,9.7055,9.7185,9.7055,9.6991,9.6991,9.644,9.6181,9.6181,9.6894,9.7217,9.7217,9.7833,9.8124,9.8124,9.8124,9.8124,9.8124,9.8124,9.8124,9.8124,9.8124,9.8737,9.9545,9.9949,10.0975,10.2311,10.2573,10.3032,10.3458,10.3081,10.2933,10.2933,10.2634,10.2549,10.2647,10.3434,10.3975,10.4451,10.5208,10.5966,10.636,10.5864,10.4943,10.3799,10.1988,10.025,9.8329,9.6467,9.578,9.5216,9.421,9.4019,9.3635,9.2669,9.2474,9.2474,9.2474,9.2474,9.2474,9.2474,9.2474,9.2474,9.2474,9.1912,9.1519,9.1407,9.1069,9.076,9.0535,9.0254,8.9973,8.9749,8.9243,8.8934,8.8821,8.8821,8.8821,8.8821,8.8821,8.8765,0.0,0.0,0.0,6.655,0.0,0.0,0.0,6.6647,6.8363,7.2703,7.3868,7.5423,7.973,8.1122,8.1964,8.3001,8.6174,8.951,9.2425,9.5242,9.7185,9.7509,9.6926,9.6473,9.6473,9.6473,9.6343,9.6019,9.5631,9.5598,9.5954,9.5954,9.6116,9.6473,9.6116,9.5954,9.5954,9.5598,9.5436,9.5436,9.6149,9.6667,9.6991,9.7379,9.7768,9.8124,9.8124,9.8124,9.8124,9.8124,9.8124,9.8124,9.8124,9.8607,9.9537,10.0289,10.1472,10.2557,10.3027,10.3487,10.3637,10.3048,10.29,10.2719,10.2517,10.2366,10.2431,10.3121,10.3564,10.3975,10.3975,10.4862,10.5503,10.493,10.3889,10.2328,10.0519,9.8995,9.734,9.5443,9.5389,9.5405,9.4619,9.421,9.3827,9.3085,9.2697,9.2474,9.2474,9.2474,9.2474,9.2474,9.2474,9.2474,9.2474,9.2193,9.1884,9.1603,9.1575,9.1322,9.0732,9.0676,9.0367,8.9749,8.913,8.8821,8.8821,8.8821,8.8821,8.8821,8.8821,8.8821,0.0,0.0,0.0,0.0,0.0,6.642,0.0,0.0,0.0,7.118,7.1699,7.2282,0.0,0.0,0.0,7.9212,0.0,0.0,0.0,8.9607,0.0,9.5015,9.4918,9.4789,9.4918,9.4821,9.5015,9.5728,9.4853,9.4659,9.5501,9.5145,9.5145,9.576,9.521,9.4886,9.4886,9.4756,9.4691,9.4691,9.5436,9.6116,9.6796,9.6926,9.7412,9.8124,9.8124,9.8027,9.7897,9.8059,9.7962,9.7879,9.7995,9.8523,9.9222,10.0367,10.145,10.2379,10.3459,10.3731,10.3816,10.3196,10.29,10.2784,10.2517,10.2366,10.2366,10.2366,10.3057,10.3499,10.2647,10.3629,10.4712,10.3162,10.2365,10.1116,9.9209,9.7864,9.6382,9.5122,9.5244,9.5463,9.4982,9.4486,9.3884,9.3448,9.3061,9.2671,9.2671,9.2783,9.2811,9.2671,9.2671,9.2615,9.2502,9.2474,9.2278,9.1772,9.2109,9.1884,9.0901,9.1097,9.0704,8.958,8.9074,8.8821,8.8821,8.8821,8.8821,8.8821,8.8821,8.8821,0.0,0.0,0.0,0.0,7.1129,0.0,0.0,0.0,6.7586,6.6258,0.0,6.8266,0.0,0.0,0.0,0.0,7.5682,7.9115,7.8046,8.122,8.4879,8.8117,8.9575,9.0546,9.1162,9.0676,9.1615,9.4789,9.3202,9.2651,9.3979,9.4594,9.4918,9.5015,9.495,9.4886,9.4886,9.427,9.3947,9.3947,9.4659,9.5404,9.6116,9.6699,9.7412,9.8124,9.8124,9.7736,9.7185,9.7833,9.749,9.6766,9.7749,9.8412,9.884,9.9003,10.017,10.1537,10.2162,10.2587,10.3048,10.3311,10.2933,10.2334,10.2366,10.2366,10.2366,10.2366,10.2431,10.2647,10.2366,10.2647,10.2571,10.1351,9.9812,9.8333,9.7689,9.6112,9.4966,9.5389,9.5564,9.5578,9.5749,9.4773,9.4027,9.4015,9.3681,9.3289,9.3289,9.3795,9.3935,9.3345,9.3289,9.3064,9.253,9.2474,9.2446,9.239,9.194,9.1603,9.1463,9.0479,8.9636,8.8934,8.8849,8.8821,8.8821,8.8821,8.8821,8.8821,8.8821,8.8821,0.0,0.0,0.0,0.0,0.0,0.0,6.9626,0.0,6.6452,0.0,0.0,0.0,0.0,0.0,0.0,0.0,7.3124,7.5261,7.5488,7.7528,8.0669,8.5041,0.0,0.0,8.734,8.7664,8.8506,9.0417,8.9737,8.9866,9.1291,9.2846,9.3849,9.427,9.427,9.427,9.427,9.3979,9.3817,9.3817,9.4108,9.4659,9.5371,9.5631,9.6181,9.6894,9.7282,9.7198,9.6723,9.747,9.746,9.6891,9.7796,9.8188,9.8427,9.9243,10.0367,10.157,10.2283,10.2784,10.29,10.2933,10.2699,10.2366,10.2366,10.2366,10.2366,10.2366,10.2366,10.2366,10.2366,10.1663,10.074,10.0242,9.8291,9.6415,9.629,9.5277,9.4693,9.4983,9.5331,9.5796,9.6216,9.5022,9.4104,9.4005,9.3764,9.3261,9.2924,9.3739,9.3992,9.298,9.3177,9.3149,9.253,9.2474,9.2474,9.2474,9.1603,9.0901,9.0535,8.9664,8.9074,8.8821,8.8821,8.8821,8.8821,8.8821,8.8821,8.8821,8.8821,8.8821,7.6951,0.0,0.0,0.0,0.0,0.0,0.0,0.0,0.0,0.0,0.0,0.0,0.0,0.0,6.914,7.1342,0.0,7.3026,7.3642,7.4322,7.6427,8.1025,8.1414,0.0,0.0,8.5203,8.5883,8.6757,8.6466,8.7146,8.9186,9.1129,9.2619,9.3526,9.372,9.3817,9.3817,9.3817,9.3817,9.3817,9.3817,9.4206,9.4886,9.4886,9.5274,9.5987,9.6614,9.6593,9.6255,9.7144,9.7153,9.6977,9.779,9.815,9.8453,9.9667,10.075,10.1426,10.2382,10.2737,10.2867,10.2484,10.2366,10.2366,10.2366,10.2366,10.2366,10.2366,10.2366,10.2366,10.1848,10.0708,9.9515,9.8524,9.674,9.5311,9.4961,9.4679,9.4664,9.4838,9.5273,9.5738,9.6173,9.5241,9.4467,9.4304,9.4185,9.3908,9.3092,9.3935,9.4216,9.3121,9.3233,9.3149,9.253,9.2474,9.2362,9.2025,9.1182,9.0339,8.9524,8.9046,8.8821,8.8821,8.8821,8.8821,8.8821,8.8821,8.8821,8.8821,8.8821,8.8821,0.0,0.0,0.0,7.5158,0.0,0.0,0.0,0.0,6.9853,0.0,0.0,0.0,0.0,0.0,7.3901,7.267,7.3059,0.0,0.0,7.0371,7.0857,7.4484,7.9147,8.2385,0.0,8.3292,8.3875,0.0,8.4102,8.4847,8.8344,8.9899,9.1323,9.2781,9.3461,9.3817,9.3817,9.3817,9.3817,9.3817,9.3817,9.4206,9.4886,9.4886,9.5274,9.5987,9.6408,9.6125,9.5506,9.6637,9.678,9.6693,9.7732,9.8289,9.8802,9.9559,10.0465,10.157,10.1823,10.2344,10.2867,10.2484,10.2366,10.2366,10.2366,10.2366,10.2366,10.2366,10.2366,10.2032,10.0145,9.9673,9.8846,9.5377,9.4917,9.5079,9.4022,9.4141,9.4809,9.5447,9.5593,9.5622,9.5651,9.5737,9.5539,9.4961,9.5627,9.563,9.4385,9.4863,9.5003,9.4385,9.3767,9.3149,9.253,9.2474,9.1997,9.0845,9.0732,9.0142,8.8906,8.8821,8.8821,8.8821,8.8821,8.8821,8.8821,8.8821,8.8821,8.8821,8.8821,8.8821,0.0,0.0,8.9177,8.1787,0.0,0.0,0.0,0.0,0.0,0.0,0.0,0.0,0.0,0.0,7.5002,7.403,7.4095,7.3447,0.0,6.9496,6.9529,7.2184,7.5682,7.7787,7.7528,0.0,0.0,0.0,7.9471,0.0,8.3389,8.6272,8.87,9.0611,9.2263,9.3364,9.3817,9.3817,9.3817,9.3817,9.3817,9.3947,9.4173,9.4173,9.4474,9.501,9.5465,9.565,9.5435,9.6292,9.6759,9.6928,9.7886,9.8547,9.9142,9.9947,10.0717,10.1492,10.2297,10.2542,10.2517,10.2334,10.2366,10.2366,10.2366,10.2366,10.2366,10.2366,10.1511,10.0521,9.9863,9.8039,9.5885,9.4723,9.4428,9.4087,9.3802,9.4519,9.5447,9.6086,9.5883,9.5738,9.6144,9.5997,9.5424,9.4419,9.4298,9.402,9.3205,9.402,9.4273,9.3233,9.3289,9.3345,9.3142,9.325,9.2932,9.1304,9.1219,9.0465,8.8878,8.8821,8.8821,8.8821,8.8821,8.8821,8.8821,8.8821,8.8821,8.8821,8.8821,8.8821,9.1255,9.2738,0.0,8.6925,8.5182,0.0,7.7833,0.0,0.0,0.0,0.0,0.0,0.0,0.0,7.6912,7.6099,7.5015,7.3156,0.0,6.9011,6.9011,7.0144,7.3253,7.5131,7.4646,7.5714,7.6168,7.5585,7.539,7.6394,0.0,8.2774,8.6077,8.8733,9.1129,9.2846,9.3817,9.3817,9.3817,9.3817,9.3817,9.3817,9.3817,9.3817,9.3955,9.4431,9.4991,9.53,9.5441,9.6069,9.673,9.7392,9.7989,9.8784,9.9538,10.0449,10.1045,10.1918,10.2804,10.2784,10.2366,10.2366,10.2366,10.2366,10.2366,10.2366,10.2442,10.2732,10.1285,9.9577,9.9251,9.6754,9.4236,9.3569,9.3389,9.3386,9.3619,9.4489,9.5447,9.6057,9.5883,9.5738,9.6115,9.5604,9.4974,9.439,9.4327,9.4049,9.3233,9.3879,9.3964,9.2924,9.298,9.3119,9.3307,9.3443,9.3017,9.2156,9.172,9.0803,8.9374,8.9159,8.9355,8.9994,8.9159,8.9159,8.9994,8.9159,8.8821,8.8821,8.8821,8.8821]},{"header":{"parameterUnit":"m.s-1","parameterCategory":1,"la1":30.6,"la2":29.2853,"lo1":-89.7004,"lo2":-87.6739,"dy":0.0162,"dx":0.0183,"nx":112,"ny":82,"refTime":"2024-03-20T00:00:00:Z","depth":0,"parameterNumber":3,"parameterNumberName":"V-component_of_WINDS"},"data":[0.0,0.0,0.0,0.0,0.0,0.0,0.0,0.0,0.0,0.0,0.0,0.0,0.0,0.0,0.0,0.0,0.0,0.0,0.0,0.0,0.0,0.0,0.0,0.0,0.0,0.0,0.0,0.0,0.0,0.0,0.0,0.0,0.0,0.0,0.0,0.0,0.0,0.0,0.0,0.0,0.0,0.0,0.0,0.0,0.0,0.0,0.0,0.0,0.0,0.0,0.0,0.0,0.0,0.0,0.0,0.0,0.0,0.0,0.0,0.0,0.0,0.0,0.0,0.0,0.0,0.0,0.0,0.0,0.0,0.0,0.0,0.0,0.0,0.0,0.0,0.0,0.0,0.0,0.0,0.0,0.0,0.0,0.0,0.0,0.0,0.0,0.0,0.0,0.0,0.0,-4.2064,-4.6659,-5.3195,-5.7435,-5.7854,-5.5794,-5.1642,-4.4845,0.0,0.0,0.0,0.0,0.0,0.0,0.0,0.0,0.0,0.0,0.0,0.0,0.0,0.0,0.0,0.0,0.0,0.0,0.0,0.0,0.0,0.0,0.0,0.0,0.0,0.0,0.0,0.0,0.0,0.0,0.0,0.0,0.0,0.0,0.0,0.0,0.0,0.0,0.0,0.0,0.0,0.0,0.0,0.0,0.0,0.0,0.0,0.0,0.0,0.0,0.0,0.0,0.0,0.0,0.0,0.0,0.0,0.0,0.0,0.0,0.0,0.0,0.0,0.0,0.0,0.0,0.0,0.0,0.0,0.0,0.0,0.0,0.0,0.0,0.0,0.0,0.0,0.0,0.0,0.0,0.0,0.0,0.0,0.0,0.0,0.0,0.0,0.0,0.0,0.0,0.0,0.0,0.0,0.0,0.0,0.0,0.0,0.0,0.0,0.0,0.0,0.0,0.0,0.0,-4.3221,-5.1631,-5.5295,-5.7235,-5.7235,-5.384,-4.9859,-4.5375,0.0,0.0,0.0,0.0,0.0,0.0,0.0,0.0,0.0,0.0,0.0,0.0,0.0,0.0,0.0,0.0,0.0,0.0,0.0,0.0,0.0,0.0,0.0,0.0,0.0,0.0,0.0,0.0,0.0,0.0,0.0,0.0,0.0,0.0,0.0,0.0,0.0,0.0,0.0,0.0,0.0,0.0,0.0,0.0,0.0,0.0,0.0,0.0,0.0,0.0,0.0,0.0,0.0,0.0,0.0,0.0,0.0,0.0,0.0,0.0,0.0,0.0,0.0,0.0,0.0,0.0,0.0,0.0,0.0,0.0,0.0,0.0,0.0,0.0,0.0,0.0,0.0,0.0,0.0,0.0,0.0,0.0,0.0,0.0,0.0,0.0,0.0,0.0,0.0,0.0,0.0,0.0,0.0,0.0,0.0,0.0,0.0,0.0,0.0,0.0,0.0,0.0,0.0,-4.2926,-4.7422,-5.3841,-5.6035,-5.7132,-5.6883,-5.3799,-4.9874,-4.5539,-4.3236,0.0,0.0,0.0,0.0,0.0,0.0,0.0,0.0,0.0,0.0,0.0,0.0,0.0,0.0,0.0,0.0,0.0,0.0,0.0,0.0,0.0,0.0,0.0,0.0,0.0,0.0,0.0,0.0,0.0,0.0,0.0,0.0,0.0,0.0,0.0,0.0,0.0,0.0,0.0,0.0,0.0,0.0,0.0,0.0,0.0,0.0,0.0,0.0,0.0,0.0,0.0,0.0,0.0,0.0,0.0,0.0,0.0,0.0,0.0,0.0,0.0,0.0,0.0,0.0,0.0,0.0,0.0,0.0,0.0,0.0,0.0,0.0,0.0,0.0,0.0,0.0,0.0,0.0,0.0,0.0,0.0,0.0,0.0,0.0,0.0,0.0,0.0,0.0,0.0,0.0,0.0,0.0,0.0,0.0,0.0,0.0,0.0,0.0,0.0,0.0,0.0,0.0,-4.7111,-5.0737,-5.4714,-5.6159,-5.6718,-5.6283,-5.3717,-5.0199,-4.5826,-4.3434,0.0,0.0,0.0,0.0,0.0,0.0,0.0,0.0,0.0,0.0,0.0,0.0,0.0,0.0,0.0,0.0,0.0,0.0,0.0,0.0,0.0,0.0,0.0,0.0,0.0,0.0,0.0,0.0,0.0,0.0,0.0,0.0,0.0,0.0,0.0,0.0,0.0,0.0,0.0,0.0,0.0,0.0,0.0,0.0,0.0,0.0,0.0,0.0,0.0,0.0,0.0,0.0,0.0,0.0,0.0,0.0,0.0,0.0,0.0,0.0,0.0,0.0,0.0,0.0,0.0,0.0,0.0,0.0,0.0,0.0,0.0,0.0,0.0,0.0,0.0,0.0,0.0,0.0,0.0,0.0,0.0,0.0,0.0,0.0,0.0,0.0,0.0,0.0,0.0,0.0,0.0,0.0,0.0,0.0,0.0,0.0,0.0,0.0,0.0,0.0,0.0,0.0,-4.6826,-5.0797,-5.413,-5.5414,-5.5786,-5.5331,-5.2722,-4.9822,-4.679,-4.4188,0.0,0.0,0.0,0.0,0.0,0.0,0.0,0.0,0.0,0.0,0.0,0.0,0.0,0.0,0.0,0.0,0.0,0.0,0.0,0.0,0.0,0.0,0.0,0.0,0.0,0.0,0.0,0.0,0.0,0.0,0.0,0.0,0.0,0.0,0.0,0.0,0.0,0.0,0.0,0.0,0.0,0.0,0.0,0.0,0.0,0.0,0.0,0.0,0.0,0.0,0.0,0.0,0.0,0.0,0.0,0.0,0.0,0.0,0.0,0.0,0.0,0.0,0.0,0.0,0.0,0.0,0.0,0.0,0.0,0.0,0.0,0.0,0.0,0.0,0.0,0.0,0.0,0.0,0.0,0.0,0.0,0.0,0.0,0.0,0.0,0.0,0.0,0.0,0.0,0.0,0.0,0.0,0.0,0.0,0.0,0.0,0.0,0.0,0.0,0.0,0.0,0.0,-4.6647,-5.0586,0.0,-5.4234,-5.461,-5.4695,-5.1893,-4.9379,-4.7232,0.0,0.0,0.0,0.0,0.0,0.0,0.0,0.0,0.0,0.0,0.0,0.0,0.0,0.0,0.0,0.0,0.0,0.0,0.0,0.0,0.0,0.0,0.0,0.0,0.0,0.0,0.0,0.0,0.0,0.0,0.0,0.0,0.0,0.0,0.0,0.0,0.0,0.0,0.0,0.0,0.0,0.0,0.0,0.0,0.0,0.0,0.0,0.0,0.0,0.0,0.0,0.0,0.0,0.0,0.0,0.0,0.0,0.0,0.0,0.0,0.0,0.0,0.0,0.0,0.0,0.0,0.0,0.0,0.0,0.0,0.0,0.0,0.0,0.0,0.0,0.0,0.0,0.0,0.0,0.0,0.0,0.0,0.0,0.0,0.0,0.0,0.0,0.0,0.0,0.0,0.0,0.0,0.0,0.0,0.0,0.0,0.0,0.0,0.0,0.0,0.0,0.0,-4.2741,-4.6932,-5.0502,0.0,-5.3507,-5.3839,-5.3893,-5.1498,-4.9308,-4.7512,0.0,0.0,0.0,0.0,0.0,0.0,0.0,0.0,0.0,0.0,0.0,0.0,0.0,0.0,0.0,0.0,0.0,0.0,0.0,0.0,0.0,0.0,0.0,0.0,0.0,0.0,0.0,0.0,0.0,0.0,0.0,0.0,0.0,0.0,0.0,0.0,0.0,0.0,0.0,0.0,0.0,0.0,0.0,0.0,0.0,0.0,0.0,0.0,0.0,0.0,0.0,0.0,0.0,0.0,0.0,0.0,0.0,0.0,0.0,0.0,0.0,0.0,0.0,0.0,0.0,0.0,0.0,0.0,0.0,0.0,0.0,0.0,0.0,0.0,0.0,0.0,0.0,0.0,0.0,0.0,0.0,0.0,0.0,0.0,0.0,0.0,0.0,0.0,0.0,0.0,0.0,0.0,0.0,0.0,0.0,0.0,0.0,0.0,0.0,0.0,0.0,0.0,-4.3393,-4.7209,-5.0607,-5.2818,-5.3454,-5.3366,-5.2657,-5.1309,-4.9807,0.0,0.0,0.0,0.0,0.0,0.0,0.0,0.0,0.0,0.0,0.0,0.0,0.0,0.0,0.0,0.0,0.0,0.0,0.0,0.0,0.0,0.0,0.0,0.0,0.0,0.0,0.0,0.0,0.0,0.0,0.0,0.0,0.0,0.0,0.0,0.0,0.0,0.0,0.0,0.0,0.0,0.0,0.0,0.0,0.0,0.0,0.0,0.0,0.0,0.0,0.0,0.0,0.0,0.0,0.0,0.0,0.0,0.0,0.0,0.0,0.0,0.0,0.0,0.0,0.0,0.0,0.0,0.0,0.0,0.0,0.0,0.0,0.0,0.0,0.0,0.0,0.0,0.0,0.0,0.0,0.0,0.0,0.0,0.0,0.0,0.0,0.0,0.0,0.0,0.0,0.0,0.0,0.0,0.0,0.0,0.0,0.0,0.0,0.0,0.0,0.0,0.0,0.0,-4.3486,-4.6828,-4.9734,-5.244,-5.2437,-5.245,-5.2837,-5.0391,-4.8564,-4.7767,0.0,0.0,0.0,0.0,0.0,0.0,0.0,0.0,0.0,0.0,0.0,0.0,0.0,0.0,0.0,0.0,0.0,0.0,0.0,0.0,0.0,0.0,0.0,0.0,0.0,0.0,0.0,0.0,0.0,0.0,0.0,0.0,0.0,0.0,0.0,0.0,0.0,0.0,0.0,0.0,0.0,0.0,0.0,0.0,0.0,0.0,0.0,0.0,0.0,0.0,0.0,0.0,0.0,0.0,0.0,0.0,0.0,0.0,0.0,0.0,0.0,0.0,0.0,0.0,0.0,0.0,0.0,0.0,0.0,0.0,0.0,0.0,0.0,0.0,0.0,0.0,0.0,0.0,0.0,0.0,0.0,0.0,0.0,0.0,0.0,0.0,0.0,0.0,0.0,0.0,0.0,0.0,0.0,0.0,0.0,0.0,0.0,0.0,0.0,0.0,0.0,0.0,-4.4155,-4.7419,-5.0358,-5.3052,-5.2944,-5.282,-5.3321,-5.1092,-4.9318,-4.8205,0.0,0.0,0.0,0.0,0.0,0.0,0.0,0.0,0.0,0.0,0.0,0.0,0.0,0.0,0.0,0.0,0.0,0.0,0.0,0.0,0.0,0.0,0.0,0.0,0.0,0.0,0.0,0.0,0.0,0.0,0.0,0.0,0.0,0.0,0.0,0.0,0.0,0.0,0.0,0.0,0.0,0.0,0.0,0.0,0.0,0.0,0.0,0.0,0.0,0.0,0.0,0.0,0.0,0.0,0.0,0.0,0.0,0.0,0.0,0.0,0.0,0.0,0.0,0.0,0.0,0.0,0.0,0.0,0.0,0.0,0.0,0.0,0.0,0.0,0.0,0.0,0.0,0.0,0.0,0.0,0.0,0.0,0.0,0.0,0.0,0.0,0.0,0.0,0.0,0.0,0.0,0.0,0.0,0.0,0.0,0.0,0.0,0.0,0.0,0.0,0.0,0.0,-4.5034,-4.8608,-5.1827,-5.4339,-5.4105,-5.3735,-5.3865,-5.2704,-5.1139,-4.876,0.0,0.0,0.0,0.0,0.0,0.0,0.0,0.0,0.0,0.0,0.0,0.0,0.0,0.0,0.0,0.0,0.0,0.0,0.0,0.0,0.0,0.0,0.0,0.0,0.0,0.0,0.0,0.0,0.0,0.0,0.0,0.0,0.0,0.0,0.0,0.0,0.0,0.0,0.0,0.0,0.0,0.0,0.0,0.0,0.0,0.0,0.0,0.0,0.0,0.0,0.0,0.0,0.0,0.0,0.0,0.0,0.0,0.0,0.0,0.0,-4.1023,0.0,0.0,0.0,0.0,0.0,0.0,0.0,0.0,0.0,0.0,0.0,0.0,0.0,0.0,0.0,0.0,0.0,0.0,0.0,0.0,0.0,0.0,0.0,0.0,0.0,0.0,0.0,0.0,0.0,0.0,0.0,0.0,0.0,0.0,0.0,0.0,0.0,0.0,0.0,0.0,0.0,-4.499,-4.8014,-5.0972,-5.3615,-5.3488,-5.3483,-5.3816,-5.2115,-5.0475,-4.9079,-4.733,0.0,0.0,0.0,0.0,0.0,0.0,0.0,0.0,0.0,0.0,0.0,0.0,0.0,0.0,0.0,0.0,0.0,0.0,0.0,0.0,0.0,0.0,0.0,0.0,0.0,0.0,0.0,0.0,0.0,0.0,0.0,0.0,0.0,0.0,0.0,0.0,0.0,0.0,0.0,0.0,0.0,0.0,0.0,0.0,0.0,0.0,0.0,0.0,0.0,0.0,0.0,0.0,0.0,0.0,0.0,0.0,0.0,0.0,0.0,0.0,-4.2174,0.0,0.0,0.0,0.0,0.0,0.0,0.0,0.0,0.0,0.0,0.0,0.0,0.0,0.0,0.0,0.0,0.0,0.0,0.0,0.0,0.0,0.0,0.0,0.0,0.0,0.0,0.0,0.0,0.0,0.0,0.0,0.0,0.0,0.0,0.0,0.0,0.0,0.0,0.0,0.0,-4.5345,-4.8758,-5.1846,-5.4288,-5.3962,-5.4008,-5.4365,-5.3102,-5.1917,-5.1311,-4.9723,0.0,0.0,0.0,0.0,0.0,0.0,0.0,0.0,0.0,0.0,0.0,0.0,0.0,0.0,0.0,0.0,0.0,0.0,0.0,0.0,0.0,0.0,0.0,0.0,0.0,0.0,0.0,0.0,0.0,0.0,0.0,0.0,0.0,0.0,0.0,0.0,0.0,0.0,0.0,0.0,0.0,0.0,0.0,0.0,0.0,0.0,0.0,0.0,0.0,0.0,0.0,0.0,0.0,-4.6497,-4.751,-4.8036,-4.8912,-4.9301,-4.9213,-4.7245,-4.5466,-4.4058,0.0,0.0,0.0,0.0,0.0,0.0,0.0,0.0,0.0,0.0,0.0,0.0,0.0,0.0,0.0,0.0,0.0,0.0,0.0,0.0,0.0,0.0,0.0,0.0,0.0,-4.3687,-4.3872,0.0,0.0,0.0,0.0,0.0,0.0,0.0,0.0,0.0,0.0,0.0,0.0,-4.5889,-4.9745,-5.3039,-5.5039,-5.4728,-5.4737,-5.5174,-5.4347,-5.3813,-5.3504,-5.2405,-5.1492,0.0,0.0,0.0,0.0,0.0,0.0,0.0,0.0,0.0,0.0,0.0,0.0,0.0,0.0,0.0,0.0,0.0,0.0,0.0,0.0,0.0,0.0,0.0,0.0,0.0,0.0,0.0,0.0,0.0,0.0,0.0,0.0,-3.7207,-3.9025,0.0,0.0,0.0,0.0,0.0,0.0,0.0,0.0,0.0,0.0,0.0,0.0,0.0,-4.4671,-4.6824,-4.7596,-4.8781,-5.0418,-5.1673,-5.2708,-5.3689,-5.3713,-5.38,-5.3757,-5.3101,0.0,-4.7444,-4.6679,0.0,0.0,0.0,0.0,0.0,0.0,0.0,0.0,0.0,0.0,0.0,0.0,0.0,0.0,0.0,0.0,0.0,0.0,0.0,0.0,0.0,0.0,-4.6071,-4.6745,-4.6854,-4.7007,0.0,-4.348,-4.0629,-4.1529,-4.0957,0.0,0.0,0.0,0.0,0.0,0.0,0.0,-4.6388,-5.017,-5.3452,-5.4962,-5.5197,-5.5128,-5.5197,-5.4668,-5.4003,-5.3056,-5.283,-5.2162,-5.0763,-5.3447,0.0,0.0,0.0,0.0,0.0,0.0,0.0,0.0,0.0,0.0,0.0,0.0,0.0,0.0,0.0,0.0,0.0,0.0,0.0,0.0,0.0,0.0,0.0,0.0,0.0,0.0,0.0,0.0,0.0,-3.8144,-3.998,-4.0226,-4.0555,-4.0246,0.0,0.0,0.0,0.0,0.0,0.0,0.0,0.0,0.0,-4.6891,-4.768,-4.8962,-5.0837,-5.2265,-5.3538,-5.4895,-5.6159,-5.7023,-5.7322,-5.7792,-5.7733,-5.7332,-5.6838,-5.5398,-5.3078,-4.9936,-4.7421,-4.5144,0.0,0.0,0.0,0.0,-4.2007,-4.3067,-4.3386,-4.4155,0.0,-4.4672,0.0,0.0,0.0,0.0,0.0,0.0,0.0,0.0,0.0,0.0,-4.6695,-4.7761,-4.789,-4.7942,-4.7997,-4.5771,-4.3838,0.0,-4.2606,-4.1551,-4.0578,0.0,0.0,0.0,0.0,-4.6302,-4.7535,-5.1008,-5.3819,-5.5082,-5.5449,-5.5943,-5.7055,-5.656,-5.6726,-5.7938,-5.7399,-5.681,-5.634,-5.6931,-5.5767,0.0,0.0,0.0,0.0,0.0,0.0,0.0,0.0,0.0,0.0,0.0,0.0,0.0,0.0,0.0,0.0,0.0,0.0,0.0,0.0,0.0,0.0,0.0,0.0,0.0,0.0,0.0,0.0,-4.0612,-4.2148,-4.1681,-4.3103,-4.3037,0.0,0.0,0.0,0.0,0.0,0.0,-4.6532,-4.7425,-4.8962,-5.1542,-5.2631,-5.3821,-5.522,-5.6478,-5.7807,-5.9196,-5.9962,-6.0592,-6.0885,-6.1123,-6.0848,-6.0218,-5.973,-5.9009,-5.7716,-5.3142,-4.9868,-4.7483,-4.6269,-4.5101,-4.4408,-4.4353,-4.4933,-4.5814,-4.6528,-4.7333,-4.7956,-4.7719,0.0,-4.5274,-4.4576,0.0,0.0,0.0,0.0,-4.4241,-4.5901,-4.6819,-4.7773,-4.8783,-4.9145,-4.9353,-4.8916,-4.82,-4.7216,0.0,-4.477,-4.3463,-4.2038,0.0,0.0,0.0,0.0,-4.8026,-4.9283,-5.2192,-5.4671,-5.6299,-5.6624,-5.7621,-5.9528,-5.9066,-5.9573,-6.1373,-6.084,-6.0526,-6.0688,-5.975,-5.827,-5.5934,0.0,0.0,0.0,0.0,0.0,0.0,0.0,0.0,0.0,0.0,0.0,0.0,0.0,0.0,0.0,0.0,0.0,0.0,0.0,0.0,0.0,0.0,0.0,0.0,0.0,0.0,0.0,0.0,0.0,-4.3804,-4.581,0.0,0.0,0.0,0.0,-4.5115,-4.6646,-4.8764,-5.1522,-5.2869,-5.4652,-5.7563,-5.8181,-5.9182,-6.0681,-6.0221,-6.1237,-6.3674,-6.2665,-6.2998,-6.4335,-6.3904,-6.35,-6.2846,-6.2357,-6.1219,-5.9628,-5.5935,-5.3485,-5.1779,-4.9468,-4.828,-4.7954,-4.739,-4.7837,-4.8651,-4.8698,-4.9661,-5.0883,-5.0422,-4.8945,-4.7259,-4.6241,-4.5642,0.0,0.0,-4.6529,-4.7987,-4.8532,-5.0175,-5.1368,-5.1018,-5.1681,-5.1874,-5.0565,-4.9871,-4.9103,0.0,-4.6948,-4.6268,-4.5276,0.0,-4.5684,-4.519,-4.7502,-4.9829,-5.1353,-5.368,-5.6345,-5.9643,-5.9522,-6.0063,-6.2383,-6.2094,-6.1316,-6.0393,-6.1347,-6.1267,-6.0236,-6.08,-6.0316,-5.8482,-5.5573,0.0,0.0,0.0,0.0,0.0,0.0,0.0,0.0,0.0,0.0,0.0,0.0,0.0,0.0,0.0,0.0,0.0,0.0,0.0,0.0,0.0,0.0,0.0,0.0,0.0,0.0,0.0,0.0,-4.7484,-4.9927,0.0,-4.858,-4.8917,-4.9541,-5.0188,-5.2004,-5.3968,-5.6309,-5.7138,-5.8751,-6.1337,-6.1907,-6.2937,-6.4351,-6.4469,-6.4992,-6.588,-6.5775,-6.5887,-6.5952,-6.5345,-6.4676,-6.3707,-6.3028,-6.2053,-6.1091,-5.8927,-5.6453,-5.4103,-5.2851,-5.18,-5.0867,-5.1015,-5.1336,-5.1722,-5.2017,-5.243,-5.2715,-5.1658,-5.0493,-4.9286,-4.8938,-4.8453,-4.823,-4.8371,-4.8875,-4.9379,-5.0167,-5.0843,-5.1365,-5.1475,-5.1726,-5.1988,-5.1465,-5.135,-5.1218,-5.0397,-4.9038,-4.7619,-4.6334,-4.7626,-4.852,-4.7547,-5.0026,-5.2299,-5.2879,-5.4898,-5.6996,-5.9331,-5.969,-6.0997,-6.4126,-6.3462,-6.3234,-6.3943,-6.3618,-6.3031,-6.2228,-6.1949,-6.1356,-6.0061,-5.7871,-5.5101,0.0,0.0,0.0,0.0,0.0,0.0,0.0,0.0,0.0,0.0,0.0,0.0,0.0,0.0,0.0,0.0,0.0,0.0,0.0,0.0,0.0,0.0,0.0,0.0,0.0,0.0,-5.0337,-5.1147,-5.3952,-5.5181,-5.3388,-5.3631,-5.4317,-5.5488,-5.7012,-5.8853,-6.0963,-6.1644,-6.2756,-6.4678,-6.5203,-6.5923,-6.6885,-6.695,-6.7254,-6.7626,-6.7337,-6.7045,-6.675,-6.6155,-6.5508,-6.4476,-6.3687,-6.2969,-6.242,-6.1437,-5.9741,-5.7301,-5.6143,-5.4863,-5.394,-5.444,-5.4541,-5.4472,-5.4825,-5.4753,-5.4294,-5.3253,-5.2304,-5.1482,-5.1477,-5.1265,-5.1183,-5.1167,-5.1251,-5.1435,-5.1862,-5.2102,-5.2416,-5.273,-5.2793,-5.2611,-5.2611,-5.2563,-5.2671,-5.2482,-5.1229,-4.965,-4.7874,-4.9428,-5.0551,-4.9428,-5.1304,-5.3153,-5.3842,-5.6017,-5.7944,-5.9428,-6.0601,-6.2151,-6.4595,-6.3544,-6.3354,-6.4733,-6.3884,-6.3225,-6.3128,-6.1712,-6.0508,-5.989,-5.7212,-5.4676,-5.2007,0.0,0.0,0.0,0.0,0.0,0.0,0.0,0.0,0.0,0.0,0.0,0.0,0.0,0.0,0.0,0.0,0.0,0.0,0.0,0.0,0.0,0.0,0.0,-4.5788,-4.9583,-5.3064,-5.4586,-5.7718,-5.9362,-5.8291,-5.8234,-5.9129,-6.1048,-6.1688,-6.3084,-6.5421,-6.5989,-6.6688,-6.7649,-6.8108,-6.837,-6.837,-6.769,-6.7711,-6.8863,-6.7257,-6.6596,-6.7015,-6.6554,-6.5861,-6.5063,-6.4788,-6.4207,-6.3678,-6.3438,-6.2866,-6.181,-5.9098,-5.7753,-5.7339,-5.7297,-5.7092,-5.6605,-5.6719,-5.6084,-5.5451,-5.532,-5.4719,-5.407,-5.3937,-5.3986,-5.4008,-5.3451,-5.3972,-5.4422,-5.3977,-5.4288,-5.4655,-5.4677,-5.4677,-5.4514,-5.3982,-5.3632,-5.3464,-5.3889,-5.3744,-5.2542,-5.0235,-5.0994,-5.1611,-5.1129,-5.1424,0.0,-5.4184,-5.7055,-5.9189,-6.019,-6.2288,-6.3615,-6.3779,-6.2395,-6.1784,-6.2413,-6.1693,-6.1624,-6.2591,-5.9773,-5.8085,-5.7816,-5.3673,-5.162,-5.1972,0.0,0.0,0.0,0.0,0.0,0.0,0.0,0.0,0.0,0.0,0.0,0.0,0.0,0.0,0.0,0.0,0.0,0.0,0.0,0.0,0.0,-4.7459,-4.9729,-5.0241,-5.4016,-5.7722,-6.057,-6.2652,-6.3573,-6.2827,-6.3178,-6.3836,-6.4734,-6.5487,-6.6753,-6.8479,-6.8042,-6.8195,-6.9134,-6.8938,-6.8802,-6.8678,-6.9381,-6.9251,-6.865,-6.8543,-6.8543,-6.8169,-6.7266,-6.6701,-6.6428,-6.5183,-6.4522,-6.4352,-6.359,-6.3238,-6.2866,-6.1458,-6.0423,-5.9657,-5.9364,-5.8725,-5.8076,-5.7528,-5.708,-5.674,-5.6478,-5.5979,-5.5398,-5.5492,-5.534,-5.4978,-5.4775,-5.4701,-5.4732,-5.4832,-5.5027,-5.5177,-5.5514,-5.5661,-5.5508,-5.5316,-5.5599,-5.5757,-5.5407,-5.5897,-5.5778,-5.4211,-5.4646,-5.5199,-5.4622,-5.4948,0.0,-5.6023,-5.854,-6.0868,-6.2406,-6.3033,-6.4269,-6.633,-6.4017,-6.2751,-6.3488,-6.2665,-6.2124,-6.212,-6.0776,-5.9807,-5.9117,-5.5976,-5.4451,0.0,0.0,0.0,0.0,0.0,0.0,0.0,0.0,0.0,0.0,0.0,0.0,0.0,0.0,0.0,0.0,0.0,0.0,0.0,0.0,0.0,0.0,-5.1444,-5.4807,-5.7327,-5.9518,-6.1773,-6.4744,-6.6186,-6.6994,-6.7125,-6.7016,-6.7321,-6.8195,-6.8414,-6.9069,-7.0292,-6.9659,-6.9397,-6.9768,-6.9877,-6.976,-6.9598,-7.002,-6.9903,-6.9207,-6.8975,-6.8763,-6.8508,-6.7581,-6.7141,0.0,-6.5765,-6.5204,-6.4643,-6.3901,-6.3549,0.0,0.0,0.0,0.0,0.0,-5.957,-5.8968,-5.8155,-5.7928,-5.7932,-5.7763,-5.75,-5.7271,-5.7011,-5.6642,-5.6132,-5.5764,-5.545,-5.5223,-5.532,-5.5409,-5.5745,-5.6395,-5.6411,-5.63,-5.6704,-5.6633,-5.6504,-5.7076,-5.7387,0.0,-5.7514,-5.6709,-5.5892,-5.5458,-5.5404,-5.5946,-5.7285,-6.0051,-6.2288,-6.335,-6.4606,-6.5366,-6.5817,-6.3805,0.0,0.0,0.0,-6.0827,-5.9634,-5.922,0.0,0.0,0.0,-5.5067,-5.5464,-5.4523,0.0,0.0,-5.2614,-5.2141,0.0,0.0,0.0,0.0,0.0,0.0,0.0,0.0,0.0,0.0,0.0,0.0,0.0,0.0,0.0,0.0,-5.5775,-6.0369,-6.5028,-6.5203,-6.5596,-6.7671,-6.8654,-6.9593,-7.0489,-6.979,-6.9855,-7.1275,-7.0554,-7.0511,-7.1494,0.0,0.0,0.0,0.0,-7.1188,-7.05,-7.0441,-7.0143,-6.9865,-6.894,-6.8206,-6.8165,-6.7689,-6.7281,-6.6932,-6.6429,-6.5702,-6.4945,-6.4477,-6.388,-6.33,-6.2431,-6.2079,-6.1872,-6.0547,-5.9843,-5.945,-5.8829,0.0,0.0,-5.8755,-5.888,-5.8917,-5.8469,-5.8053,-5.7402,-5.665,-5.6371,-5.62,-5.5662,-5.5892,-5.6437,-5.7214,-5.7088,-5.7094,-5.7906,-5.7166,-5.6924,-5.8611,-5.8278,-5.8295,-6.0204,-5.7831,-5.554,-5.5151,-5.469,-5.5412,-5.8283,-6.1457,-6.3569,-6.3994,0.0,0.0,-6.45,-6.3101,-6.2385,-6.2538,-6.092,-5.9146,-5.7342,-5.7259,-5.6114,-5.3619,-5.4351,-5.5264,-5.6059,-5.7106,-5.7906,-5.8419,-5.4781,-5.4074,0.0,0.0,0.0,0.0,0.0,0.0,0.0,0.0,0.0,0.0,0.0,0.0,0.0,0.0,0.0,-5.5885,-6.011,-6.3914,-6.7278,-6.8938,-6.9877,-6.9943,-7.0096,-7.0423,-7.1013,-7.0882,-7.1231,-7.228,-7.2171,-7.2498,-7.3459,-7.2695,-7.2367,-7.2651,-7.2498,-7.1812,-7.0764,-7.1579,-7.0973,-6.8922,0.0,0.0,-6.8165,-6.7689,-6.7378,-6.7426,-6.6819,-6.6323,-6.591,-6.5308,-6.4439,-6.33,-6.2741,-6.2348,-6.1913,-6.1324,-6.1136,-6.0713,-5.9573,-5.9385,-5.9677,-5.8956,-5.8818,-5.8877,-5.8686,-5.8643,0.0,-5.8299,-5.832,-5.8166,-5.8055,-5.8161,-5.8267,-5.8458,-5.8415,-5.8373,-5.8063,-5.8166,-5.8384,-5.8846,-5.8765,-5.9064,-6.025,-5.9651,-5.8739,-5.871,-5.8281,-5.8296,-5.889,-6.2713,-6.5503,-6.5487,-6.722,-6.8626,-6.902,-6.6048,-6.4452,-6.5409,-6.3861,-6.2564,-6.1772,-6.1716,-6.1417,-6.0924,-6.1035,-6.1277,-6.1417,-6.1641,-6.1295,-6.0325,-5.8255,-5.7232,0.0,0.0,0.0,0.0,0.0,0.0,0.0,0.0,0.0,0.0,0.0,-4.647,-4.9074,0.0,-5.5067,-5.9847,-6.2814,-6.5648,-6.8982,-7.0882,-7.1756,-7.1231,-7.1428,-7.1756,-7.2236,-7.2302,-7.2586,-7.3307,-7.311,-7.3328,-7.4006,-7.3394,-7.3044,-7.2979,-7.3044,-7.2656,-7.1665,-7.214,-7.1792,-7.0622,-7.0383,-6.9651,-6.8974,-6.8278,-6.7689,-6.744,-6.6737,-6.6426,-6.6426,-6.5722,-6.4604,-6.3362,-6.3114,-6.2617,-6.1976,-6.1735,-6.1569,-6.121,-6.0509,-6.0407,-6.0302,-5.98,-5.9718,-5.9485,-5.9627,-5.9438,-5.9268,-5.8877,-5.8877,-5.8724,-5.8387,-5.862,-5.8831,-5.8662,-5.8725,-5.8662,-5.8431,-5.8378,-5.8591,-5.9436,-5.9482,-5.9649,-6.1074,-6.1006,-6.1117,-6.1897,-6.1817,-6.2432,-6.4579,-6.6808,-6.8603,-6.9522,-7.0469,-7.0934,-7.0951,-6.8089,-6.6395,-6.6257,-6.5195,-6.4047,-6.3124,-6.3096,-6.2956,-6.2942,-6.3223,-6.3364,-6.3364,-6.3701,-6.3101,-6.1816,-6.1075,-5.9577,0.0,0.0,0.0,0.0,0.0,0.0,0.0,-4.476,-4.5711,-4.7091,-4.8785,-5.0792,-5.3492,-5.5825,-5.8917,-6.3171,-6.5323,-6.7601,-7.0314,-7.204,-7.2848,-7.2367,-7.2651,-7.3044,-7.3459,-7.3525,-7.3722,-7.4202,-7.3874,-7.3809,-7.4202,-7.3874,-7.3459,-7.3044,-7.3459,-7.3481,-7.2786,-7.2702,-7.2636,-7.2289,-7.1349,-7.0572,-6.9765,-6.9015,-6.834,-6.744,-6.6488,-6.6364,-6.6737,-6.5805,-6.4729,-6.3611,-6.3549,-6.299,-6.2286,-6.2203,-6.1934,-6.1603,-6.1499,-6.1216,-6.1013,-6.0908,-6.0674,-6.0324,-6.0387,-6.0239,-5.9777,-5.9378,-5.9166,-5.9215,-5.8536,-5.8524,-5.8754,-5.8723,-5.8681,-5.8656,-5.8461,-5.8197,-5.8368,-5.996,-5.9935,-6.0144,-6.1752,-6.2199,-6.248,-6.372,-6.4163,-6.5734,-6.8963,-7.0178,-7.1306,-7.2761,-7.3288,-7.2939,-7.1582,-6.9999,-6.8501,-6.7028,-6.6473,-6.5642,-6.4497,-6.4358,-6.4159,-6.3841,-6.4291,-6.4459,-6.4347,-6.4853,-6.4386,-6.3087,-6.3087,-6.1383,-4.357,-4.133,-4.0998,-4.265,-4.3697,-4.5187,0.0,-5.0103,-5.1884,-5.33,-5.5292,-5.7453,-5.9151,-6.1754,-6.422,-6.5618,-6.8916,-7.1253,-7.1144,-7.311,-7.4399,-7.3874,-7.3874,-7.394,-7.4006,-7.4006,-7.4202,-7.4683,-7.4661,-7.4661,-7.4726,-7.4661,-7.4617,-7.4552,-7.4595,-7.4376,-7.3584,-7.3606,-7.3191,-7.2321,-7.2079,-7.113,-6.9765,-7.0143,-6.914,-6.744,-6.6488,-6.6364,-6.6737,-6.5805,-6.5101,-6.4542,-6.4128,-6.3673,-6.3176,-6.2741,-6.2555,-6.2472,-6.21,-6.1893,-6.1748,-6.1334,-6.099,-6.074,-6.1139,-6.0908,-6.0716,-6.0509,-6.0574,-6.0343,-5.999,-5.9531,-5.9355,-5.9214,-5.8989,-5.8577,-5.8116,-5.8095,-5.8273,-5.9527,-5.9572,-6.0172,-6.228,-6.2556,-6.2475,-6.2341,-6.3674,-6.4921,-6.551,-6.8951,-7.1372,-7.157,-7.3184,-7.3373,-7.1636,-7.1947,-7.1484,-6.9716,-6.9719,-6.9489,-6.8787,-6.8253,-6.7663,-6.7016,-6.7073,-6.682,-6.6286,-6.6062,-6.5361,-6.4358,-6.4076,-6.2368,-4.5578,-4.456,-4.4604,-4.5932,-4.8056,-5.0357,-5.2348,-5.4384,-5.6086,-5.7541,-5.982,-6.2039,-6.3792,-6.5057,-6.6581,0.0,-6.9999,-7.1044,-7.1952,-7.3394,-7.4006,-7.2935,-7.283,-7.2962,-7.3526,-7.4071,-7.4223,-7.3895,-7.4397,-7.4792,-7.4792,-7.4792,-7.4792,-7.4792,-7.4792,-7.4572,-7.4286,-7.4329,-7.4221,-7.3783,-7.3277,-7.2692,-7.1766,-7.1498,-7.0622,-6.9035,-6.8417,-6.7681,-6.6848,-6.6512,-6.5619,-6.4729,-6.4542,-6.4227,-6.3742,-6.3064,-6.2679,-6.2679,-6.2472,-6.2245,-6.1996,-6.181,-6.1527,-6.1199,-6.1306,-6.1558,-6.1558,-6.1286,-6.1327,-6.1449,-6.0837,-6.0509,-6.0157,-5.9886,-5.9531,-5.9235,-5.8218,-5.8468,-5.9082,-5.9911,-6.0264,-6.1074,-6.2764,-6.3162,-6.3058,-6.2934,-6.4741,-6.7104,-6.9458,-7.1262,-7.2716,-7.3433,-7.3844,-7.3862,-7.3129,-7.2558,-7.2106,-7.1336,-7.0837,-7.0489,-7.0175,-6.9559,-6.8944,-6.8618,-6.8253,-6.7775,-6.7129,-6.6987,-6.6254,-6.5103,-6.4961,-6.3794,-4.6624,-4.6972,-4.7702,-4.9451,-5.2314,-5.5111,-5.6509,-5.8247,-6.0106,-6.1579,-6.3551,-6.5508,-6.719,-6.7757,-6.86,-7.0926,-7.1131,-7.1247,-7.2542,-7.3459,-7.3372,-7.1306,-7.103,-7.1101,-7.0828,-7.2702,-7.3743,-7.3524,-7.4506,-7.4945,-7.4814,-7.4923,-7.4945,-7.4792,-7.4792,-7.4792,-7.4792,-7.4792,-7.4792,-7.4792,-7.4307,-7.3783,-7.3067,-7.2129,-7.1292,-7.0183,-6.9519,-6.8464,-6.7016,-6.6616,-6.5805,-6.4915,-6.4892,-6.4617,-6.4371,-6.3565,-6.3137,-6.2919,-6.2919,-6.269,-6.2203,-6.2079,-6.1727,-6.1292,-6.1366,-6.1619,-6.1745,-6.1536,-6.1703,-6.1762,-6.1334,-6.1023,-6.0568,-6.0113,-5.9885,-5.9492,-5.8353,-5.8847,-5.9528,-6.0226,-6.0778,-6.1708,-6.2936,-6.3365,-6.3333,-6.3569,-6.566,-6.8426,-7.1551,-7.3127,-7.4206,-7.5373,-7.5001,-7.4594,-7.4431,-7.3404,-7.2637,-7.2304,-7.1898,-7.1379,-7.1059,-7.0612,-7.0147,-6.9658,-6.9208,-6.8506,-6.7494,-6.7237,-6.6644,-6.549,-6.5204,-6.467,-4.594,-4.6651,-4.775,-5.1987,-5.522,-5.7994,-6.0353,-6.2407,-6.422,-6.5683,-6.6775,-6.778,-6.8785,-6.9746,-7.0598,-7.1144,-7.2782,-7.3656,-7.276,-7.3459,-7.2786,-6.9457,-6.899,-6.8138,0.0,-6.9393,-7.2594,-7.4683,-7.5251,-7.5316,-7.4814,-7.5251,-7.5272,-7.4814,-7.4792,-7.4792,-7.4792,-7.4792,-7.4792,-7.4792,-7.4792,-7.4267,-7.3067,-7.1425,-7.0756,-7.0353,-6.8548,-6.7306,-6.6695,-6.5805,-6.5432,-6.5308,-6.5092,-6.4959,-6.4812,-6.4543,-6.3987,-6.3594,-6.3594,-6.3116,-6.2617,-6.2162,-6.1727,-6.1334,-6.1334,-6.1023,-6.0796,-6.121,-6.1334,-6.1334,-6.1355,-6.1023,-6.0568,-6.0113,-5.9636,-5.9181,-5.8705,-5.9031,-5.9642,-6.0187,-6.1015,-6.2039,-6.2437,-6.3004,-6.3446,-6.3446,-6.5682,-6.7723,-6.922,-7.3216,-7.6114,-7.6711,-7.6222,-7.5625,-7.5028,-7.4767,-7.417,-7.2706,-7.2988,-7.2902,-7.2215,-7.2131,-7.154,-7.0304,-7.0248,-6.9349,-6.7494,-6.6807,-6.6098,-6.549,-6.4745,-6.431,-4.5728,-4.8499,-5.2166,-5.5603,-5.8471,-6.1265,-6.3859,-6.5465,-6.6622,-6.7431,-6.6864,-6.6321,-6.6647,-6.6232,-6.6707,-6.8419,-6.9725,-7.0975,-7.2285,-7.1901,-7.0609,-6.8432,-6.7289,0.0,0.0,0.0,0.0,-7.1601,-7.3439,-7.4617,-7.4792,-7.4945,-7.4988,-7.4792,-7.4792,-7.4792,-7.4792,-7.4792,-7.4792,-7.4792,-7.4464,-7.4421,-7.4267,-7.3092,-7.2485,-7.2355,-7.0892,-6.9738,-6.8612,-6.7351,-6.6472,-6.5409,-6.5388,-6.5055,-6.4917,-6.5264,-6.4727,-6.4014,-6.3678,-6.295,-6.2224,-6.2079,-6.1727,-6.1292,-6.1003,-6.1003,-6.1085,-6.0941,-6.1106,-6.1355,-6.1355,-6.1023,-6.0651,-6.0485,-6.0092,-5.9636,-5.916,-5.9719,-6.0442,-6.0536,-6.1566,-6.2509,-6.3412,-6.381,-6.5126,-6.9043,-6.9323,-6.9997,-7.1988,-7.4738,-7.6602,-7.6819,-7.6277,-7.5815,-7.5625,-7.4899,-7.4058,-7.3539,-7.3556,-7.3293,-7.2957,-7.2848,-7.2608,-7.2187,-7.1344,-7.0192,-6.8759,-6.8177,-6.7384,-6.6098,-6.5518,-6.52,-4.8682,-5.2405,-5.6653,-5.9829,-6.2459,-6.4702,-6.6472,-6.7518,-6.8042,-6.7846,-6.6581,-6.5258,-6.4585,-6.3494,-6.3478,-6.5823,-6.6685,-6.7819,-7.1066,-7.0041,-6.8496,-6.7124,-6.6017,-6.5369,0.0,0.0,0.0,-7.0079,-7.2528,-7.3962,-7.4027,-7.4617,-7.4792,-7.4792,-7.4792,-7.4792,-7.4792,-7.4792,-7.4792,-7.4792,-7.4464,-7.4399,-7.453,-7.3722,-7.2895,-7.2137,-7.1555,-7.0372,-6.8601,-6.7854,-6.6826,-6.5861,-6.5368,-6.5238,-6.5139,-6.5484,-6.5144,-6.4431,-6.4114,-6.3167,-6.2245,-6.2079,-6.1831,-6.1499,-6.1065,-6.1106,-6.1313,-6.1402,-6.1569,-6.2053,-6.2199,-6.1928,-6.1553,-6.1386,-6.0779,-6.0113,-5.9636,-6.0385,-6.1113,-6.1229,-6.2038,-6.2988,-6.3698,-6.4125,-6.5827,-7.0534,-7.1187,-7.2313,-7.545,-7.666,-7.7226,-7.7443,-7.6738,-7.6222,-7.6222,-7.5164,-7.43,-7.3979,-7.4086,-7.4103,-7.3749,-7.3801,-7.3648,-7.3451,-7.2411,-7.1288,-7.0051,-6.9384,-6.8447,-6.7037,-6.6377,-6.5718,-5.4233,-5.7915,-6.0746,-6.4613,-6.6385,-6.7561,-6.8239,-6.8654,-6.8501,-6.7037,-6.5792,-6.4373,-6.2428,-6.0961,-6.0848,-6.3293,-6.3587,-6.485,-6.9309,-6.8304,-6.6886,0.0,0.0,0.0,0.0,0.0,0.0,-7.0005,0.0,-7.3113,-7.2723,-7.4027,-7.4792,-7.4792,-7.4792,-7.4792,-7.4792,-7.4792,-7.4792,-7.4792,-7.4748,-7.4486,-7.4071,-7.359,-7.2351,-7.0372,-7.0329,-6.928,-6.7356,-6.7368,-6.6971,-6.6197,-6.5357,-6.5202,-6.5718,-6.552,-6.5391,-6.5133,-6.4679,-6.377,-6.2576,-6.2162,-6.2017,-6.1913,-6.1479,-6.1355,-6.1652,-6.2519,-6.2839,-6.3159,-6.4013,-6.3607,-6.2734,-6.2251,-6.1407,-6.0547,-6.0092,-6.0803,-6.1612,-6.1612,-6.2459,-6.328,-6.328,-6.3923,-6.5408,-6.8468,-7.1154,-7.4319,-7.8803,-7.8475,-7.8013,-7.8556,-7.7579,-7.6874,-7.6846,-7.5734,-7.4735,-7.3896,-7.4856,-7.5128,-7.439,-7.4652,-7.4688,-7.4069,-7.3451,-7.2524,-7.1259,-7.0193,-6.9132,-6.8225,-6.7173,-6.6126,-5.5506,-5.9073,-6.297,-6.5844,-6.6101,-6.6396,-6.8361,-6.8108,-6.6841,-6.4238,-6.1026,-5.7436,-5.4284,-5.4111,-5.5723,-5.9804,-6.2587,-6.5612,-7.0171,-6.9796,0.0,-6.7763,0.0,-6.7662,-6.7536,-6.8257,0.0,0.0,-7.1421,-7.2891,-7.4114,-7.4683,-7.4792,-7.4792,-7.4792,-7.4792,-7.4792,-7.4792,-7.4792,-7.4792,-7.4071,-7.3874,-7.4071,-7.3197,-7.2608,-7.2024,-7.2024,-7.1197,-6.9663,-6.913,-6.7988,-6.6515,-6.6579,-6.5995,-6.5202,-6.6416,-6.5789,-6.4515,-6.4974,-6.4289,-6.3459,-6.3353,-6.3078,-6.2761,-6.223,-6.1975,-6.1996,-6.2335,-6.2356,-6.259,-6.3357,-6.3293,-6.2868,-6.198,-6.1579,-6.1159,-6.0302,-6.0803,-6.1612,-6.1612,-6.287,-6.4097,-6.4503,-6.4998,-6.6975,-7.1581,-7.2927,-7.4038,-7.6245,-7.8013,-7.8936,-7.8637,-7.7932,-7.7308,-7.6874,-7.6114,-7.5191,-7.4191,-7.4579,-7.4829,-7.4546,-7.4975,-7.5016,-7.4716,-7.4097,-7.317,-7.1934,-7.0532,-6.9619,-6.886,-6.7504,-6.6604,-6.0104,-6.2635,-6.516,-6.7246,-6.7049,-6.6107,-6.6234,-6.5688,-6.3673,-5.8967,-5.585,-5.2859,-4.9273,-4.9828,-5.2512,-5.68,-6.0208,-6.4123,-6.9121,-6.9345,-6.8815,-6.8819,-6.9014,0.0,-6.9986,-7.0227,-7.0674,0.0,-7.1785,-7.2351,-7.3613,-7.4355,-7.4595,-7.4792,-7.4792,-7.4792,-7.4792,-7.4792,-7.4792,-7.4792,-7.4268,-7.4006,-7.4071,-7.3307,-7.2629,-7.2018,0.0,-7.1362,-6.9899,-6.9423,-6.8159,-6.6825,-6.6663,-6.6121,-6.5741,-6.6652,-6.6573,-6.5619,-6.5667,-6.5217,-6.453,-6.367,-6.3222,-6.3226,-6.2561,-6.2345,-6.2561,-6.2797,-6.3012,-6.3205,-6.3868,-6.3932,-6.3696,-6.3016,-6.2571,-6.2149,-6.1474,-6.2041,-6.2668,-6.2876,-6.3707,-6.4466,-6.4859,-6.5987,-6.7942,-7.0907,-7.3433,-7.4942,-7.5512,-7.7812,-7.937,-7.9017,-7.823,-7.7471,-7.6874,-7.6521,-7.5924,-7.5001,-7.5285,-7.5652,-7.5793,-7.5731,-7.547,-7.5362,-7.4744,-7.3801,-7.2665,-7.1589,-7.0782,-6.9989,-6.8651,-6.761,-6.4997,-6.6229,-6.6899,-6.847,-6.7819,-6.6344,-6.366,-6.2319,-6.0026,-5.318,-5.1167,-4.9539,-4.6023,-4.7411,-5.0528,-5.5215,-5.8192,-6.1926,-6.754,-6.8194,-6.8475,-6.979,-6.9941,-7.0366,-7.1646,-7.1581,-7.2061,-7.3459,-7.2717,-7.2373,-7.2767,-7.3701,-7.4355,-7.4792,-7.4792,-7.4792,-7.4792,-7.4792,-7.4792,-7.4792,-7.4726,-7.4464,-7.4071,-7.359,-7.2651,-7.1428,-7.1821,-7.0947,-6.9287,-6.9001,-6.833,-6.7165,-6.6107,-6.6121,-6.6729,-6.6809,-6.7233,-6.7343,-6.6559,-6.6146,-6.5777,-6.372,-6.3355,-6.3573,-6.2898,-6.296,-6.32,-6.3678,-6.4093,-6.4743,-6.5197,-6.5046,-6.4467,-6.4402,-6.3633,-6.3101,-6.2826,-6.3461,-6.3882,-6.4534,-6.4678,-6.4504,-6.4893,-6.6686,-6.8235,-6.8795,-7.3016,-7.6111,-7.5904,-7.7892,-7.9451,-7.937,-7.8447,-7.7606,-7.7009,-7.6955,-7.6684,-7.6059,-7.6321,-7.6832,-7.7253,-7.6567,-7.6168,-7.5988,-7.5502,-7.467,-7.3655,-7.2885,-7.2083,-7.1186,-7.0036,-6.8852,-6.4527,-6.5815,-6.7101,-6.7412,-6.6857,-6.5725,-6.4585,-6.07,-5.6154,-5.1317,-4.8028,-4.5492,-4.37,-4.6103,-5.0439,-5.6864,-6.0175,-6.3676,-6.834,-7.0037,-7.0956,-7.1126,-7.1687,-7.2485,-7.4093,-7.2962,0.0,0.0,0.0,-7.3918,-7.4289,-7.4639,-7.4726,-7.4792,-7.4792,-7.4792,-7.4792,-7.4792,-7.4792,-7.4792,-7.4399,-7.4137,-7.4071,-7.359,-7.3044,-7.2367,-7.2498,0.0,-7.0248,-6.9738,-6.8743,-6.7862,-6.7122,-6.707,-6.7217,-6.7763,-6.7397,-6.6991,-6.7073,-6.6922,-6.6229,-6.4697,-6.4204,-6.4204,-6.3573,-6.4065,-6.4819,-6.4798,-6.5037,-6.5234,-6.567,-6.5088,-6.4208,-6.3395,-6.3033,-6.265,-6.1845,-6.2401,-6.3461,-6.4534,-6.3977,-6.3881,-6.526,-6.5063,-6.5915,-6.8942,-7.2088,-7.4685,-7.6789,-7.8582,-7.9289,-7.88,-7.8583,-7.8203,-7.7633,-7.7552,-7.7308,-7.6711,-7.6195,-7.6484,-7.7518,-7.6702,-7.6511,-7.6866,-7.6633,-7.5924,-7.4614,-7.3368,-7.2313,-7.1631,-7.0317,-6.895,-6.6046,-6.5945,-6.6284,-6.8065,-6.6484,-6.3622,-6.0319,-5.6552,-5.1809,-4.518,-4.2704,-4.1304,-4.0541,-4.3425,-4.8104,-5.4388,-5.7592,-6.1413,-6.7356,-6.8879,-7.0178,-7.1706,-7.2375,-7.3178,-7.4377,-7.3526,-7.3178,-7.4377,-7.3962,-7.4005,-7.4792,-7.4792,-7.4792,-7.4792,-7.4792,-7.4792,-7.4792,-7.4792,-7.4792,-7.4792,-7.4552,-7.4464,-7.4421,-7.394,-7.3459,-7.2979,-7.2498,0.0,-6.9768,-6.9327,-6.827,-6.6973,-6.722,-6.7305,-6.7337,-6.7819,-6.8073,-6.7927,-6.7662,-6.731,-6.7008,-6.564,-6.5384,-6.5341,-6.4233,-6.4275,-6.4642,-6.417,-6.4149,-6.4346,-6.4782,-6.4591,-6.4357,-6.3712,-6.367,-6.3607,-6.3395,-6.3782,-6.4424,-6.5275,-6.5079,-6.4839,-6.5415,-6.6349,-6.7291,-6.8781,-7.2205,-7.5078,-7.6793,-7.8346,-7.9506,-7.9533,-7.9261,-7.8692,-7.7796,-7.8013,-7.7932,-7.7335,-7.6711,-7.6693,-7.7511,-7.653,-7.6206,-7.6678,-7.6287,-7.5703,-7.4768,-7.3505,-7.2579,-7.2117,-7.0737,-6.9683,-6.7647,-6.6722,-6.6509,-6.87,-6.6451,-6.1999,-5.6589,-5.2752,-4.8221,-4.0306,-3.8702,-3.8582,-3.8819,-4.1592,-4.5834,-5.1873,-5.4611,-5.8428,-6.5863,-6.7174,-6.8819,-7.2118,-7.2959,-7.3567,-7.4508,-7.3743,0.0,-7.4377,-7.3787,0.0,-7.4792,-7.4726,-7.4683,-7.4792,-7.4683,-7.4683,-7.4792,-7.4792,-7.4792,-7.4792,-7.4792,-7.4792,-7.4792,-7.4202,-7.3722,-7.3328,-7.2236,0.0,0.0,-6.8916,-6.784,-6.628,-6.6888,-6.7186,-6.7412,-6.7883,-6.8578,-6.878,-6.8187,-6.7835,-6.7792,-6.6938,-6.6459,-6.6202,-6.4938,-6.4696,-6.4696,-6.3878,-6.3816,-6.4254,-6.4035,-6.4149,-6.4262,-6.4156,-6.4289,-6.442,-6.4874,-6.5305,-6.5542,-6.6186,-6.6098,-6.5902,-6.5698,-6.7554,-6.8985,-6.8762,-7.2701,-7.5826,-7.6401,-7.8159,-7.9668,-8.0184,-7.9777,-7.9044,-7.7986,-7.8339,-7.842,-7.7932,-7.7362,-7.7265,-7.7721,-7.6607,-7.6118,-7.6564,-7.6041,-7.5517,-7.5185,-7.3924,-7.3241,-7.2886,-7.1528,-7.066,-6.7711,-6.8571,-6.9111,-6.8408,-6.5885,-6.2653,-5.7906,-5.1638,-4.566,-4.1358,-3.9146,-3.8722,-4.1065,-4.2536,-4.5531,-5.2606,-5.3507,-5.6136,-6.4101,-6.678,-6.9294,-7.2614,-7.3433,-7.4324,-7.5928,-7.4329,-7.3697,-7.5316,0.0,0.0,-7.4792,-7.4399,-7.4333,-7.4792,-7.4399,-7.4333,-7.4792,-7.4792,-7.4792,-7.4792,-7.4792,-7.4792,-7.4792,-7.3853,-7.3459,-7.3328,-7.1909,0.0,0.0,-6.9068,-6.828,-6.7217,-6.7262,-6.7433,-6.813,-6.8108,-6.8578,-6.9047,-6.878,-6.878,-6.896,-6.8693,-6.7461,-6.6046,-6.5782,-6.6344,-6.711,-6.6335,-6.6335,-6.6091,-6.5665,-6.4721,-6.4041,-6.3646,-6.3669,-6.3791,-6.442,-6.4874,-6.5542,-6.6186,-6.5388,-6.5084,-6.6099,-6.7258,-6.8363,-6.9358,-7.2941,-7.5826,-7.6401,-7.8159,-7.9506,-7.956,-7.9533,-7.9234,-7.8583,-7.8583,-7.8583,-7.8529,-7.7959,-7.7878,-7.842,-7.7284,-7.6799,-7.7346,-7.673,-7.6318,-7.6096,-7.5103,-7.4636,-7.447,-7.294,-7.1881,-6.5294,-6.6992,-6.8466,-6.842,-6.532,-6.1265,-5.643,-5.0628,-4.4806,-4.0477,-3.8378,-3.8061,-4.0252,-4.1017,-4.3184,-4.8265,-4.8742,-5.1179,-5.929,-6.1389,-6.4455,-7.0683,-7.2137,-7.3548,-7.56,0.0,-7.3827,-7.4134,0.0,0.0,-7.4792,-7.4617,-7.4464,-7.4355,-7.4464,-7.4464,-7.4355,-7.4661,-7.4792,-7.4792,-7.4792,-7.4661,-7.4333,-7.3984,-7.3459,-7.2891,-7.2018,0.0,0.0,-6.9477,-6.8289,-6.6319,-6.7711,-6.8141,-6.8108,-6.8108,-6.8578,-6.9047,-6.9047,-6.8998,-6.8808,-6.8808,-6.8302,-6.7444,-6.6909,-6.6844,-6.6707,-6.5964,-6.5455,-6.5008,-6.4805,-6.4414,-6.3942,-6.3487,-6.3679,-6.4107,-6.4267,-6.4874,-6.5542,-6.6186,-6.5797,-6.5688,-6.6115,-6.7733,-6.9049,-6.9857,-7.3236,-7.5952,-7.6898,-7.8555,-7.9479,-7.9479,-7.9479,-7.9261,-7.8664,-7.861,-7.861,-7.861,-7.804,-7.7823,-7.8067,-7.721,-7.6938,-7.7537,-7.6893,-7.6819,-7.7147,-7.5994,-7.553,-7.5361,-7.4164,-7.3129,-6.3283,-6.5865,-6.8129,-6.8275,-6.4463,-5.962,-5.5322,-4.9582,-4.3952,-3.9728,-3.8187,-3.8081,-3.9477,-3.9931,-4.1284,-4.4976,-4.5675,-4.8339,-5.5832,-5.7929,-6.1205,-6.7977,-6.9484,-7.1231,0.0,-7.4676,-7.4519,0.0,0.0,0.0,-7.5207,-7.4945,-7.4661,-7.4289,-7.4464,-7.4486,-7.4268,-7.4617,-7.4792,-7.4792,-7.4792,-7.4399,-7.3656,-7.3809,-7.3263,-7.2171,-7.1843,0.0,0.0,-6.9943,-6.8665,-6.6319,-6.8376,-6.8743,-6.8108,-6.8354,-6.8578,-6.9047,-6.8998,-6.8808,-6.8819,-6.8819,-6.8614,-6.8442,-6.7892,-6.7432,-6.6857,-6.5686,-6.4888,-6.4439,-6.4294,-6.417,-6.3942,-6.3729,-6.392,-6.441,-6.4722,-6.509,-6.5757,-6.6186,-6.6186,-6.6378,-6.6995,-6.8996,-7.1054,-7.2035,-7.4839,-7.7192,-7.7957,-7.8656,-7.9234,-7.9234,-7.9234,-7.9044,-7.8637,-7.861,-7.861,-7.861,-7.8203,-7.7986,-7.7986,-7.7416,-7.7308,-7.7715,-7.7145,-7.7118,-7.7715,-7.6684,-7.6277,-7.6412,-7.5245,-7.4269,-6.2317,-6.6223,-6.952,-6.8159,-6.3439,-5.819,-5.5119,-4.8648,-4.2635,-3.9805,-3.9109,-3.9174,-3.9558,-3.9558,-4.0672,-4.4058,-4.5784,-4.8755,-5.4587,-5.7885,-6.0943,-6.4394,-6.5203,-6.7365,-7.2214,-7.5272,-7.6758,0.0,0.0,0.0,-7.6146,-7.5338,-7.4792,-7.4792,-7.4333,-7.4333,-7.4792,-7.4792,-7.4792,-7.4792,-7.4792,-7.4049,-7.2629,-7.3175,-7.2586,-7.1231,0.0,-7.0947,0.0,-7.0489,-6.9468,-6.813,-6.9346,-6.899,-6.813,-6.8802,-6.9047,-6.8911,-6.8873,-6.8819,-6.8819,-6.8819,-6.8387,-6.7846,-6.8012,-6.8108,-6.7883,-6.655,-6.5868,-6.5288,-6.4853,-6.4377,-6.4165,-6.4171,-6.4325,-6.4637,-6.509,-6.5757,-6.6186,-6.6186,-6.6186,-6.6782,-6.9037,-7.1589,-7.3971,-7.6164,-7.8116,-7.9479,-7.9506,-7.899,-7.861,-7.861,-7.861,-7.861,-7.861,-7.861,-7.861,-7.861,-7.8583,-7.8583,-7.8583,-7.8013,-7.7715,-7.7715,-7.7145,-7.7118,-7.7715,-7.7118,-7.7118,-7.766,-7.6439,-7.5273,-5.5124,-5.8484,-6.1062,-5.9502,-5.7058,-5.4374,-5.1488,-4.7183,-4.3236,-4.1022,-3.969,-3.9282,-3.9995,-3.9777,-4.0869,-4.491,-4.5675,-4.7793,-5.3582,-5.7448,-6.1314,-6.5705,-7.0685,-7.4268,0.0,0.0,0.0,0.0,0.0,0.0,-7.5272,-7.56,-7.5469,-7.4814,-7.4661,-7.4486,-7.4333,-7.4617,-7.4792,-7.4792,-7.4792,-7.3853,-7.2171,-7.3001,-7.2433,0.0,-7.1428,-7.0882,-6.9593,-7.0904,-7.0065,-6.8453,-6.979,-6.9964,-6.9259,-6.9156,-6.9047,-6.8911,-6.8873,-6.8819,-6.8657,-6.8292,-6.7936,-6.7639,-6.7055,-6.6781,-6.6755,-6.5889,-6.564,-6.537,-6.5225,-6.5328,-6.5552,-6.5273,-6.5497,-6.5731,-6.5431,-6.5758,-6.595,-6.5068,-6.6738,-6.8408,-6.8782,-7.2687,-7.6121,-7.7481,-7.9144,-8.0496,-8.1269,-8.0455,-7.9668,-7.9261,-7.9207,-7.9044,-7.8637,-7.861,-7.861,-7.861,-7.8965,-7.8965,-7.861,-7.8774,-7.8665,-7.8312,-7.8149,-7.8122,-7.8312,-7.8122,-7.7932,-7.7688,-7.6901,-7.6114,-4.9589,-5.3734,-5.6781,-5.5512,-5.3751,-5.1744,-4.9897,-4.6158,-4.2797,-4.1438,-4.0731,-4.03,-4.0323,-4.0323,-4.1175,-4.3709,-4.5085,-4.7291,-5.1463,-5.5985,0.0,-6.5268,0.0,0.0,0.0,0.0,0.0,0.0,0.0,0.0,-7.5338,-7.5556,-7.5491,-7.5076,-7.4879,-7.4661,-7.4333,-7.4661,-7.4792,-7.4792,-7.4792,-7.3787,-7.1952,-7.2913,-7.2324,-7.0554,-7.1494,-7.1231,0.0,-7.1428,-7.0904,-6.9462,-7.0205,-7.0161,-6.9702,-6.92,-6.9047,-6.8911,-6.8863,-6.8622,-6.8686,-6.8087,-6.7957,-6.7406,-6.6285,-6.5868,-6.5868,-6.5412,-6.5412,-6.537,-6.5225,-6.5618,-6.5945,-6.5686,-6.6259,-6.6642,-6.61,-6.6126,-6.5996,-6.511,-6.6421,-6.8009,-6.9825,-7.3121,-7.6529,-7.9333,-8.0422,-8.1283,-8.2436,-8.1486,-8.0618,-8.0211,-8.0184,-7.994,-7.9343,-7.8882,-7.861,-7.861,-7.8965,-7.8965,-7.861,-7.8965,-7.8965,-7.861,-7.861,-7.861,-7.861,-7.861,-7.842,-7.804,-7.7443,-7.6955,0.0,-5.1223,-5.4969,-5.4293,-5.2017,-4.9859,-4.9448,-4.5362,0.0,-4.1374,-4.1885,-4.2027,-4.076,-4.1262,-4.1743,-4.1415,-4.4451,-4.7378,-4.8886,-5.4325,0.0,0.0,-6.8785,0.0,0.0,0.0,0.0,0.0,0.0,0.0,-7.6146,-7.5338,-7.5054,-7.5469,-7.5054,-7.4792,-7.4792,-7.4792,-7.4748,-7.4726,-7.4792,-7.3722,-7.1843,-7.2935,-7.2367,0.0,-7.1515,-7.1909,-7.1843,-7.1909,-7.1625,-7.1144,-7.0685,-7.0161,-6.9702,-6.9265,-6.9047,-6.8954,-6.8772,-6.859,-6.8548,-6.8526,-6.7931,-6.7003,-6.5847,-6.5432,-6.5412,-6.5412,-6.5412,-6.5308,-6.4915,-6.5243,-6.5792,-6.5815,-6.6352,-6.697,-6.743,-6.6798,-6.5995,-6.5995,-6.5412,-6.6465,-7.1884,-7.3193,-7.5628,-8.1572,-8.1901,-8.1957,-8.3115,-8.2165,-8.1405,-8.1378,-8.1324,-8.1079,-8.0482,-7.9343,-7.8664,-7.8664,-7.8637,-7.861,-7.861,-7.861,-7.861,-7.861,-7.861,-7.861,-7.861,-7.861,-7.861,-7.8583,-7.7986,-7.7715,-4.0614,0.0,-4.4635,-4.444,-4.4166,-4.3939,0.0,-4.2873,-4.2,-4.3001,0.0,-4.2551,-4.2944,-4.3206,-4.3665,-4.467,-4.6526,-4.8602,-5.0808,-5.8628,0.0,-6.9593,0.0,0.0,0.0,0.0,0.0,0.0,0.0,-7.56,-7.5666,-7.5469,-7.5251,-7.4988,-7.4857,-7.4792,-7.4792,-7.4792,-7.4464,-7.3722,-7.4464,-7.3394,-7.0904,-7.2979,-7.2651,0.0,-7.1887,-7.204,-7.1428,-7.1756,-7.1428,-7.062,-7.0554,-7.0161,-6.9746,-6.9615,-6.9353,-6.8976,-6.9229,-6.9057,-6.8925,-6.8475,-6.7378,-6.655,-6.6095,-6.5661,-6.5412,-6.5412,-6.5412,-6.5412,-6.5288,-6.5928,-6.6791,-6.6931,-6.7303,-6.7909,-6.7532,-6.7081,-6.6451,-6.5559,-6.7141,-6.9585,-7.2139,-7.5168,-7.8339,-8.2009,-8.2672,-8.3006,-8.3789,-8.3197,-8.249,-8.2029,-8.1568,-8.1079,-8.0482,-7.9723,-7.9289,-7.9289,-7.921,-7.8965,-7.861,-7.8965,-7.8965,-7.861,-7.861,-7.861,-7.861,-7.861,-7.861,-7.8583,-7.7986,-7.7715,-3.8114,-4.008,-4.1988,-4.2842,-4.3012,-4.3035,-4.3968,-4.2718,-4.1786,-4.325,-4.2944,-4.266,-4.3403,-4.3393,-4.3643,-4.515,-4.6615,-4.9555,-5.5002,0.0,-6.6863,-7.1362,-7.418,0.0,0.0,0.0,0.0,0.0,0.0,-7.5447,-7.5207,-7.5403,-7.5316,-7.4814,-7.4792,-7.4792,-7.4792,-7.4792,-7.4333,-7.3394,-7.4333,-7.3656,-7.1515,-7.3066,-7.2913,-7.1494,-7.1625,-7.1625,-7.1494,-7.11,-7.0882,-7.0816,-7.0554,-7.0161,-6.9768,-6.9768,-6.9462,-6.8932,-6.9198,-6.9133,-6.8904,-6.8227,-6.7356,-6.655,-6.6281,-6.5868,-6.5412,-6.5412,-6.5412,-6.5412,-6.5412,-6.6323,-6.7207,-6.7207,-6.7914,-6.8453,-6.8231,-6.7251,-6.6426,-6.6181,-6.6908,-6.8796,-7.2801,-7.5006,-7.7885,-8.2219,-8.303,-8.3539,-8.4054,-8.3684,-8.3277,-8.2653,-8.2301,-8.1866,-8.1297,-8.0672,-8.0075,-7.9533,-7.9114,-7.9074,-7.899,-7.8924,-7.8788,-7.861,-7.861,-7.861,-7.861,-7.861,-7.861,-7.8583,-7.8285,-7.8122,-3.7623,-4.0149,-4.2904,-4.4306,-4.4098,-4.3905,-4.5347,-4.325,-4.1524,-4.3337,-4.3272,-4.3075,-4.3796,-4.3946,0.0,-4.483,-4.6724,-5.1173,-5.9895,-6.3149,-6.647,-7.1297,0.0,0.0,0.0,0.0,0.0,0.0,0.0,-7.5272,-7.4923,-7.5251,-7.5207,-7.4814,-7.4792,-7.4792,-7.4792,-7.4792,-7.4268,-7.3307,-7.4333,-7.3984,-7.2564,-7.3197,-7.3175,-7.2564,0.0,0.0,-7.169,-7.0489,-7.0358,-7.0947,-7.0554,-7.0096,-6.9681,-6.9746,-6.9462,-6.9091,-6.8787,-6.8733,-6.8712,-6.8031,-6.7548,-6.7003,-6.655,-6.5847,-6.5412,-6.5432,-6.5432,-6.564,-6.5619,-6.655,-6.7433,-6.7433,-6.813,-6.9047,-6.9047,-6.7483,-6.6545,-6.7375,-6.6131,-6.6864,-7.3252,-7.4264,-7.6369,-8.25,-8.3577,-8.3793,-8.4156,-8.4251,-8.401,-8.3277,-8.3115,-8.2843,-8.2246,-8.1649,-8.0862,-7.9831,-7.9207,-7.9099,-7.9614,-7.9153,-7.8882,-7.8882,-7.8773,-7.8746,-7.8746,-7.8637,-7.861,-7.861,-7.861,-7.861,-3.9384,-4.119,-4.2365,-4.1869,-4.1896,-4.2398,-4.3862,-4.2529,-4.1983,-4.5478,-4.5478,-4.5244,-4.6636,-4.8764,-4.9555,0.0,0.0,-5.6007,0.0,0.0,0.0,0.0,0.0,0.0,0.0,0.0,0.0,0.0,0.0,-7.5076,-7.5403,-7.5076,-7.4879,-7.4792,-7.4792,-7.4792,-7.4792,-7.4792,-7.4115,-7.276,-7.4137,-7.3809,-7.204,-7.3394,-7.3459,-7.2629,0.0,-7.1952,-7.1297,-7.1078,-7.062,-6.9964,-6.9899,-6.9593,-6.92,-6.9615,-6.9462,-6.9047,-6.8911,-6.8665,-6.8216,-6.8194,-6.7701,-6.7003,-6.655,-6.6302,-6.6116,-6.564,-6.5661,-6.6302,-6.6776,-6.7412,-6.7883,-6.7883,-6.8578,-6.9047,-6.9047,-6.8366,-6.7775,-6.7418,-6.7088,-6.8636,-7.4077,-7.4787,-7.6817,-8.3239,-8.457,-8.4797,-8.4995,-8.5272,-8.5095,-8.3983,-8.3386,-8.2843,-8.2246,-8.1649,-8.1215,-8.1052,-8.0482,-8.0184,-8.0265,-8.0184,-8.013,-8.013,-7.9614,-7.9343,-7.9343,-7.8854,-7.861,-7.861,-7.861,-7.861,-3.8466,-4.0192,-4.1928,-4.3119,-4.3457,-4.4349,-4.6746,0.0,-4.3055,-4.7356,-4.594,-4.4603,-4.7389,0.0,-5.0978,-5.2845,0.0,0.0,0.0,0.0,0.0,0.0,0.0,0.0,0.0,0.0,0.0,0.0,0.0,0.0,-7.5141,-7.5185,-7.5076,-7.4814,-7.4792,-7.4792,-7.4792,-7.4792,-7.4202,-7.3044,-7.3984,-7.3656,-7.2302,-7.2979,-7.2913,-7.2214,0.0,-7.1231,-7.0773,-7.027,-6.9943,-6.9768,-6.9768,-6.9462,-6.9091,-6.8795,-6.8998,-6.9025,-6.8578,-6.8354,-6.8108,-6.8108,-6.7433,-6.655,-6.6281,-6.6116,-6.5847,-6.5868,-6.5868,-6.5847,-6.6529,-6.7207,-6.768,-6.813,-6.8556,-6.9047,-6.9047,-6.8209,-6.7569,-6.8086,-6.7316,-6.8567,-7.4733,-7.5524,-7.7328,-8.3345,-8.4897,-8.5436,-8.5116,-8.5541,-8.5313,-8.4146,-8.344,-8.2843,-8.2246,-8.1948,-8.1514,-8.0862,-8.0862,-8.0754,-8.0428,-8.0727,-8.0754,-8.0428,-8.013,-7.9831,-7.9479,-7.956,-7.9234,-7.861,-7.8936,-7.8909,-3.827,-3.9821,-4.1847,-4.4648,-4.5103,0.0,0.0,0.0,0.0,0.0,0.0,-4.5535,-4.8682,-4.9933,0.0,-5.8296,0.0,0.0,0.0,0.0,0.0,0.0,0.0,0.0,0.0,0.0,0.0,0.0,0.0,0.0,-7.4814,-7.5141,-7.5185,-7.4814,-7.4792,-7.4792,-7.4792,-7.4792,-7.4399,-7.3547,-7.3918,-7.3656,-7.2782,-7.2564,-7.2236,-7.1843,-7.1013,-7.0554,-7.0292,-6.9659,-6.9462,-6.9615,-6.9615,-6.9397,-6.9025,-6.8354,-6.8578,-6.8845,-6.813,-6.7883,-6.8086,-6.7883,-6.6982,-6.6302,-6.6075,-6.5661,-6.5391,-6.5847,-6.5868,-6.5847,-6.6508,-6.6982,-6.7454,-6.813,-6.8556,-6.8802,-6.8802,-6.7625,-6.7113,-6.8044,-6.768,-6.9139,-7.5149,-7.6575,-7.8689,-8.4171,-8.5628,-8.5996,-8.5743,-8.608,-8.5828,-8.4363,-8.3793,-8.3142,-8.2273,-8.2192,-8.1812,-8.089,-8.1269,-8.1297,-8.0862,-8.1134,-8.1161,-8.0835,-8.0564,-8.0265,-7.9913,-8.0265,-7.994,-7.9044,-7.9506,-7.9397,-4.0891,-4.1559,-4.2397,-4.4678,-4.4402,0.0,-5.1471,-4.8661,0.0,-5.2951,0.0,0.0,0.0,-5.333,-5.5964,-6.1399,0.0,0.0,0.0,0.0,0.0,0.0,0.0,0.0,0.0,0.0,0.0,0.0,0.0,0.0,-7.4792,-7.4857,-7.4857,-7.4792,-7.4792,-7.4792,-7.4792,-7.4792,-7.453,-7.4006,-7.4071,-7.3809,-7.3307,-7.2367,-7.1952,-7.1887,-7.1362,-7.0642,-6.9833,-7.0227,-6.9877,-6.9113,-6.9113,-6.9047,-6.9025,-6.8354,-6.8578,-6.8824,-6.7658,-6.7658,-6.7862,-6.6776,-6.6344,-6.6095,-6.5619,-6.5432,-6.5412,-6.5432,-6.5868,-6.655,-6.7658,-6.7905,-6.813,-6.8802,-6.86,-6.813,-6.813,-6.7658,-6.6982,-6.6571,-6.9041,-7.2072,-7.5243,-7.7916,-8.1312,-8.594,-8.6706,-8.6944,-8.7322,-8.7871,-8.7375,-8.5068,-8.4797,-8.4064,-8.2328,-8.2192,-8.2138,-8.2083,-8.2111,-8.2111,-8.2056,-8.1568,-8.1541,-8.2056,-8.0971,-8.0672,-8.1161,-8.0672,-8.0374,-8.0293,-8.032,-8.0021,-3.9711,-4.0998,-4.2892,-4.5565,-4.5639,0.0,0.0,-5.1313,-5.0503,-5.6522,-5.5224,0.0,0.0,0.0,-5.9656,0.0,0.0,0.0,0.0,0.0,0.0,0.0,0.0,0.0,0.0,0.0,0.0,0.0,0.0,0.0,-7.4792,-7.4792,-7.4792,-7.4792,-7.4792,-7.4792,-7.4792,-7.4792,-7.4552,-7.4071,-7.3787,-7.3394,-7.2891,-7.1909,-7.1166,-7.0576,-7.0707,-7.0205,-6.9331,-6.9833,-6.9659,-6.9047,-6.9047,-6.9047,-6.9025,-6.8354,-6.8578,-6.8824,-6.7658,-6.7433,-6.7454,-6.6529,-6.6095,-6.564,-6.5432,-6.5412,-6.5391,-6.5868,-6.6075,-6.655,-6.7433,-6.7883,-6.8332,-6.8824,-6.86,-6.8108,-6.8108,-6.7433,-6.6655,-6.6701,-6.7278,-6.9484,-7.5154,-7.6836,-7.9402,-8.542,-8.6898,-8.7354,-8.7558,-8.8047,-8.7646,-8.5665,-8.4444,-8.3332,-8.2273,-8.2518,-8.2735,-8.2735,-8.2409,-8.2192,-8.2192,-8.1975,-8.1785,-8.1649,-8.1568,-8.1269,-8.0754,-8.1269,-8.1134,-8.0428,-8.0808,-8.0428,-3.9384,-4.0584,-4.2675,-4.5412,0.0,0.0,-5.4761,-5.4051,-5.3844,-5.981,-5.8512,0.0,0.0,0.0,0.0,0.0,0.0,0.0,0.0,0.0,0.0,0.0,0.0,0.0,0.0,0.0,0.0,0.0,0.0,0.0,0.0,-7.4792,-7.4792,-7.4792,-7.4792,-7.4792,-7.4792,-7.4661,-7.4399,-7.4071,-7.3263,-7.2826,-7.2564,-7.1494,-7.062,-7.0008,-7.0161,-6.9812,-6.9113,-6.9549,-6.9484,-6.9047,-6.9047,-6.9047,-6.9025,-6.8354,-6.8354,-6.86,-6.7433,-6.6982,-6.6776,-6.6095,-6.5951,-6.5619,-6.5682,-6.5827,-6.6035,-6.6407,-6.6655,-6.7009,-6.7689,-6.7787,-6.813,-6.8802,-6.8151,-6.7637,-6.7883,-6.6982,-6.6158,-6.6493,-6.7612,-7.0245,-7.5201,-7.7799,-8.0702,-8.5707,-8.7083,-8.7674,-8.7879,-8.8344,-8.8107,-8.6506,-8.4553,-8.3277,-8.306,-8.306,-8.3169,-8.3359,-8.2979,-8.268,-8.2463,-8.2301,-8.2002,-8.1595,-8.1622,-8.1324,-8.07,-8.1514,-8.1486,-8.07,-8.1107,-8.0754,-4.041,-4.0713,-4.1611,0.0,0.0,0.0,-5.7415,-5.6724,-5.6071,-6.261,-6.2415,-6.0987,-6.055,0.0,0.0,0.0,0.0,0.0,0.0,0.0,0.0,0.0,0.0,0.0,0.0,0.0,0.0,0.0,0.0,0.0,0.0,-7.4792,-7.4792,-7.4792,-7.4792,-7.4792,-7.4792,-7.4333,-7.4071,-7.4006,-7.2586,-7.2171,-7.2564,-7.1144,-7.0489,-7.0445,-6.9964,-6.9484,-6.9113,-6.9549,-6.9484,-6.9047,-6.9047,-6.9047,-6.9025,-6.8354,-6.8108,-6.7883,-6.6755,-6.6323,-6.6095,-6.5661,-6.5722,-6.6033,-6.6263,-6.6514,-6.6824,-6.7236,-6.7548,-6.8137,-6.8614,-6.8065,-6.7433,-6.86,-6.7701,-6.655,-6.6982,-6.6302,-6.5412,-6.5412,-7.0915,-7.5727,-7.5751,-8.1517,-8.628,-8.6876,-8.7289,-8.7879,-8.8518,-8.8897,-8.8867,-8.77,-8.5448,-8.4254,-8.4824,-8.3793,-8.3359,-8.3983,-8.401,-8.3739,-8.3115,-8.2518,-8.2192,-8.2192,-8.1052,-8.0727,-8.1297,-8.1324,-8.1324,-8.1297,-8.1297,-8.0971,-4.0869,-4.1234,0.0,-4.4581,0.0,0.0,0.0,-5.644,0.0,0.0,-6.3725,-6.2492,-6.2341,0.0,0.0,0.0,0.0,0.0,0.0,0.0,0.0,0.0,0.0,0.0,0.0,0.0,0.0,0.0,0.0,0.0,0.0,-7.4792,-7.4792,-7.4792,-7.4464,-7.4268,-7.4268,-7.3809,-7.3241,-7.252,-7.2433,-7.2302,-7.2083,-7.062,-6.9964,-6.9964,-6.9462,-6.9178,-6.9047,-6.92,-6.9178,-6.9047,-6.9047,-6.9047,-6.9025,-6.8354,-6.8376,-6.8578,-6.6982,-6.6529,-6.6755,-6.564,-6.5722,-6.6074,-6.618,-6.6325,-6.6492,-6.7326,-6.759,-6.7732,-6.9207,-6.896,-6.8421,-6.8873,-6.8194,-6.7427,-6.6613,-6.5847,-6.5412,-6.5412,-6.7675,-7.0778,-7.5024,-7.8113,-8.1389,-8.5759,-8.7083,-8.8083,-8.8924,-8.8396,-8.7809,-8.7022,-8.5937,-8.5152,-8.4851,-8.4851,-8.496,-8.5151,-8.5151,-8.4716,-8.3739,-8.3142,-8.2599,-8.2192,-8.2246,-8.1975,-8.1297,-8.1731,-8.1704,-8.1297,-8.0862,-8.0347,-4.2354,-4.284,0.0,-4.8118,-5.0703,-5.3309,-5.6781,0.0,0.0,0.0,0.0,-6.5196,-6.5778,0.0,0.0,0.0,0.0,0.0,0.0,0.0,0.0,0.0,0.0,0.0,0.0,0.0,0.0,0.0,0.0,0.0,0.0,-7.4792,-7.4726,-7.453,-7.4202,-7.4006,-7.3809,-7.3132,-7.2498,-7.1909,-7.1625,-7.1428,-7.1297,-7.0445,-6.9964,-6.9746,-6.9265,-6.9047,-6.9047,-6.9047,-6.9047,-6.9047,-6.9047,-6.9047,-6.9025,-6.8556,-6.86,-6.8354,-6.7229,-6.6755,-6.6798,-6.5848,-6.5991,-6.6385,-6.6595,-6.7098,-6.756,-6.8314,-6.8223,-6.8528,-6.9738,-6.9825,-6.9598,-6.9598,-6.8893,-6.8144,-6.7639,-6.7097,-6.6618,-6.616,-6.7995,-7.0907,-7.5071,-7.7702,-8.1009,-8.5367,-8.7083,-8.8003,-8.8802,-8.8352,-8.77,-8.7469,-8.6651,-8.6135,-8.6024,-8.586,-8.5697,-8.5943,-8.578,-8.5452,-8.4716,-8.4119,-8.3522,-8.2925,-8.3006,-8.2599,-8.1649,-8.2002,-8.1894,-8.1297,-8.07,-8.0211,-4.4408,-4.501,0.0,-5.2895,-5.3429,0.0,-5.9919,-6.3783,-6.7037,-7.0413,0.0,-6.8829,0.0,0.0,0.0,0.0,0.0,0.0,0.0,0.0,0.0,0.0,0.0,0.0,0.0,0.0,0.0,0.0,0.0,0.0,-7.4661,-7.4661,-7.4464,-7.4006,-7.394,-7.3656,-7.3263,-7.2258,-7.1756,-7.169,-7.0423,-7.003,-7.0358,-7.0358,-7.0096,-6.9681,-6.9244,-6.9047,-6.9047,-6.9047,-6.9047,-6.9047,-6.9047,-6.9047,-6.9047,-6.9025,-6.8556,-6.7905,-6.7433,-6.6755,-6.6158,-6.6159,-6.6364,-6.7011,-6.7413,-6.8296,-6.9077,-6.9329,-6.9553,-6.9782,-7.0326,-7.0554,-7.0554,-7.062,-6.966,-6.8906,-6.9237,-6.9072,-6.8275,-6.7266,-7.0629,-7.4035,-7.5431,-7.9295,-8.3175,-8.5837,-8.7083,-8.7896,-8.8368,-8.846,-8.8388,-8.8184,-8.7312,-8.7012,-8.7892,-8.6518,-8.5916,-8.6491,-8.6161,-8.5774,-8.5774,-8.5204,-8.4634,-8.4091,-8.3522,-8.2925,-8.2273,-8.2273,-8.1921,-8.1215,-8.0618,-8.032,-4.4398,-4.527,0.0,0.0,-5.532,-6.0154,-6.6732,-6.8029,-6.8086,-6.9673,-6.9598,-6.9967,0.0,0.0,0.0,0.0,0.0,0.0,0.0,0.0,0.0,0.0,0.0,0.0,0.0,0.0,0.0,0.0,0.0,0.0,-7.3722,-7.3722,-7.3656,-7.3525,-7.2782,-7.2302,-7.2236,-7.1297,-7.062,-7.0227,-7.0292,-7.0008,-6.9375,-6.9375,-6.9309,-6.92,-6.9113,-6.9047,-6.9047,-6.9047,-6.9047,-6.9047,-6.9047,-6.9047,-6.9025,-6.8578,-6.8311,-6.7883,-6.6982,-6.6302,-6.6116,-6.5785,-6.6116,-6.6949,-6.7037,-6.7834,-6.8677,-6.9265,-6.9553,-6.9868,-7.0718,-7.1078,-7.1144,-7.1494,-7.0857,-6.9329,-6.7326,-6.7872,-6.8378,-6.73,-6.9337,-7.2296,-7.5697,-7.8232,-8.1381,-8.6617,-8.7469,-8.803,-8.8937,-8.9104,-8.8614,-8.7844,-8.7501,-8.7093,-8.6957,-8.6491,-8.6381,-8.6518,-8.6353,-8.6161,-8.5774,-8.5204,-8.4824,-8.4716,-8.458,-8.3956,-8.2898,-8.2898,-8.2111,-8.0591,-7.9967,-7.9451,-4.4961,0.0,0.0,-5.5515,0.0,-6.4896,-6.8122,-6.8795,-6.9142,-7.0314,-7.0609,0.0,0.0,0.0,0.0,0.0,0.0,0.0,0.0,0.0,0.0,0.0,0.0,0.0,0.0,0.0,0.0,0.0,-7.3743,-7.3525,-7.3044,-7.3263,-7.3066,-7.2367,-7.204,-7.169,-7.1231,-7.0489,-7.003,-6.9768,-6.9812,-6.9528,-6.9047,-6.8785,-6.8719,-6.8698,-6.8457,-6.8457,-6.8719,-6.8719,-6.885,-6.9047,-6.9047,-6.9047,-6.9025,-6.8354,-6.8108,-6.7883,-6.6755,-6.6323,-6.6344,-6.591,-6.6053,-6.653,-6.7413,-6.8277,-6.9123,-7.0011,-7.0301,-7.0444,-7.0936,-7.121,-7.1188,-7.0748,-7.09,-7.0582,-6.8879,-6.9345,-6.9474,-6.8472,-6.9596,-7.2179,-7.6246,-7.9973,-8.3601,-8.7236,-8.7638,-8.7885,-8.8693,-8.8703,-8.8439,-8.7942,-8.7754,-8.7642,-8.7339,-8.712,-8.6738,-8.6546,-8.6353,-8.5967,-8.5774,-8.5475,-8.5313,-8.5313,-8.5313,-8.4716,-8.3522,-8.3522,-8.2735,-8.1269,-8.0645,-8.0184,-4.5187,0.0,-5.4911,-6.1172,-6.5066,0.0,-6.7316,-6.8318,-6.9768,-7.0751,-7.1494,0.0,0.0,0.0,0.0,0.0,0.0,0.0,0.0,0.0,0.0,0.0,0.0,0.0,0.0,-7.3874,-7.3656,-7.3175,-7.3132,-7.2848,-7.2302,-7.2717,-7.2433,-7.1144,-7.1362,-7.1166,-7.0358,-6.9812,-6.9484,-6.9484,-6.9003,-6.8785,-6.8785,-6.8304,-6.8173,-6.8304,-6.7802,-6.7868,-6.8326,-6.8326,-6.8588,-6.9047,-6.9047,-6.9047,-6.9025,-6.8354,-6.8086,-6.7883,-6.6734,-6.6302,-6.6179,-6.6097,-6.6053,-6.645,-6.7834,-6.8657,-6.9525,-7.0544,-7.0857,-7.11,-7.121,-7.1144,-7.0783,-7.0128,-7.077,-7.1537,-7.0848,-7.1057,-7.0718,-6.9652,-7.112,-7.3338,-7.7159,-8.242,-8.6488,-8.7469,-8.7602,-8.7684,-8.8368,-8.8439,-8.825,-8.814,-8.8107,-8.8097,-8.8019,-8.7557,-8.7148,-8.649,-8.6215,-8.5967,-8.5774,-8.5774,-8.5774,-8.5774,-8.5774,-8.5204,-8.401,-8.401,-8.3332,-8.2029,-8.1649,-8.1351,-4.3818,0.0,-5.7759,0.0,-6.4144,-6.5667,0.0,0.0,-6.8318,0.0,-7.0969,0.0,0.0,0.0,0.0,0.0,0.0,0.0,0.0,0.0,0.0,0.0,0.0,-7.3459,-7.3459,-7.311,-7.2629,-7.2105,-7.2105,-7.1712,-7.0816,-7.1231,-7.1231,-7.062,-7.0227,-6.9964,-6.9833,-6.8938,-6.8523,-6.8523,-6.7999,-6.778,-6.778,-6.73,-6.7518,-6.8304,-6.7802,-6.7868,-6.8326,-6.8326,-6.8588,-6.9047,-6.9047,-6.9047,-6.9025,-6.8354,-6.7883,-6.7207,-6.6529,-6.5847,-6.5412,-6.5495,-6.5784,-6.6284,-6.7136,-6.808,-6.8906,-6.9707,-7.0336,-7.0685,-7.11,-7.0904,-7.0544,-7.0863,-7.0705,-7.0326,-6.9371,-7.0043,-7.0336,-6.9194,-7.3206,-7.717,-7.8493,-8.2911,-8.6488,-8.7469,-8.7194,-8.7387,-8.891,-8.8686,-8.8195,-8.8357,-8.8166,-8.7885,-8.7451,-8.7396,-8.7149,-8.6702,-8.6433,-8.6161,-8.5774,-8.5774,-8.5774,-8.5774,-8.5774,-8.5204,-8.401,-8.401,-8.3115,-8.1432,-8.1866,-8.1514,-4.8012,-5.2282,-5.686,0.0,-6.4637,-6.451,-6.8824,-6.8361,-6.7619,-6.9506,-7.0292,0.0,0.0,0.0,0.0,0.0,0.0,0.0,0.0,0.0,-7.204,-7.2564,-7.2826,-7.2848,-7.2586,-7.2367,-7.1909,-7.1166,-7.11,-7.0816,-7.0096,-7.0554,-7.0467,-6.9724,-6.9746,-6.9484,-6.8938,-6.8523,-6.8195,-6.7911,-6.7715,-6.7584,-6.7584,-6.7125,-6.7147,-6.7518,-6.7016,-6.7212,-6.7911,-6.7911,-6.837,-6.9047,-6.9047,-6.9047,-6.8845,-6.7883,-6.7412,-6.6982,-6.6075,-6.5661,-6.5412,-6.5412,-6.5785,-6.643,-6.7406,-6.8137,-6.8915,-6.9934,-7.0292,-7.0554,-7.0751,-7.062,-7.0598,-7.0783,-7.0565,-7.0445,-6.9978,-7.0108,-7.0856,-7.2033,-7.5608,-7.8862,-8.0656,-8.4051,-8.6876,-8.7674,-8.7804,-8.802,-8.9247,-8.8937,-8.8636,-8.8634,-8.8603,-8.8181,-8.7479,-8.7561,-8.7397,-8.6181,-8.643,-8.6321,-8.5801,-8.5774,-8.5774,-8.5774,-8.5774,-8.5204,-8.401,-8.401,-8.3413,-8.2301,-8.2219,-8.2273,-4.9759,0.0,-5.4453,-6.2749,-6.3128,-6.2797,0.0,0.0,-6.6599,0.0,-6.944,0.0,0.0,0.0,0.0,0.0,0.0,-7.1494,-7.169,-7.1341,-7.1297,-7.2018,-7.2214,-7.2083,-7.1581,-7.1559,-7.121,-7.0358,-7.0292,-7.0096,-6.9615,-6.9943,-6.9812,-6.9047,-6.9134,-6.8938,-6.8326,-6.8064,-6.7715,-6.7234,-6.7234,-6.7234,-6.7212,-6.6885,-6.6732,-6.671,-6.6338,-6.6644,-6.7409,-6.7409,-6.7911,-6.8654,-6.8654,-6.8519,-6.8426,-6.7487,-6.7101,-6.6776,-6.5661,-6.5412,-6.5412,-6.5412,-6.5847,-6.6592,-6.7427,-6.8194,-6.8981,-6.9782,-7.0139,-7.0183,-7.0173,-7.0152,-7.013,-7.0162,-7.0239,-7.0108,-7.0467,-7.0489,-7.1304,-7.4149,-7.6953,-7.9711,-8.2028,-8.4895,-8.7083,-8.7674,-8.8007,-8.845,-8.9247,-8.8937,-8.8828,-8.9023,-8.8933,-8.8481,-8.7723,-8.8084,-8.7782,-8.6239,-8.6593,-8.6593,-8.5801,-8.5774,-8.5774,-8.5774,-8.5774,-8.5258,-8.4227,-8.4227,-8.3902,-8.3305,-8.3006,-8.3196,-4.4779,-4.8099,-5.1638,-5.6225,-5.8212,-5.9962,0.0,0.0,-6.4466,-6.6577,-6.7992,-6.9244,-6.9746,-7.0969,-7.1756,-7.1297,-7.1625,-7.1712,-7.1297,-7.0816,-7.0554,-7.062,-7.1013,-7.11,-7.062,-7.0554,-7.0358,-6.9833,-6.9812,-6.9615,-6.9113,-6.9113,-6.9113,-6.9047,-6.8173,-6.7911,-6.8326,-6.7431,-6.6732,-6.6251,-6.6251,-6.6251,-6.6251,-6.6229,-6.6229,-6.6229,-6.6186,-6.647,-6.695,-6.695,-6.7234,-6.7649,-6.7649,-6.7515,-6.7483,-6.6793,-6.6396,-6.6302,-6.5661,-6.5412,-6.5412,-6.5412,-6.5847,-6.6529,-6.7024,-6.7701,-6.8376,-6.8889,-6.9113,-6.9107,-6.9544,-6.9229,-6.8872,-6.9333,-6.9072,-6.9219,-7.038,-7.0489,-7.1304,-7.4149,-7.667,-7.9273,-8.1953,-8.4895,-8.7083,-8.7674,-8.7602,-8.8047,-8.9247,-8.8741,-8.8443,-8.9023,-8.8912,-8.8905,-8.8742,-8.8885,-8.8609,-8.7422,-8.7422,-8.6982,-8.5801,-8.5774,-8.5774,-8.5774,-8.5774,-8.5475,-8.4851,-8.4851,-8.4526,-8.3983,-8.4498,-8.4173,-4.4845,-4.6267,-4.82,-5.4412,-5.556,-5.6208,-6.0734,-6.2705,-6.408,-6.4809,-6.7102,-6.8916,-6.8457,-6.9549,-7.0576,-7.0751,-7.062,-7.0576,-7.0751,-7.0358,-7.0161,-7.0423,-7.062,-7.0554,-7.0096,-7.003,-6.9681,-6.8872,-6.8545,-6.8414,-6.8588,-6.8261,-6.8261,-6.8588,-6.8239,-6.7846,-6.7409,-6.6775,-6.636,-6.6186,-6.6186,-6.6186,-6.6186,-6.6186,-6.6186,-6.6186,-6.6186,-6.6448,-6.6906,-6.6906,-6.719,-6.7584,-6.7584,-6.7671,-6.7428,-6.6665,-6.6409,-6.6375,-6.5536,-6.5412,-6.5412,-6.5412,-6.6116,-6.6982,-6.7186,-6.7905,-6.8824,-6.9025,-6.9047,-6.8976,-6.9133,-6.8981,-6.9099,-6.9803,-7.0271,-7.0587,-7.1275,-7.1166,-7.2179,-7.665,-7.8052,-8.0074,-8.4051,-8.6228,-8.7469,-8.7674,-8.833,-8.8883,-8.9301,-8.9003,-8.885,-8.907,-8.9134,-8.8968,-8.8581,-8.8937,-8.8462,-8.7115,-8.7218,-8.7001,-8.5828,-8.5774,-8.5774,-8.5774,-8.5774,-8.5475,-8.4878,-8.4878,-8.4797,-8.458,-8.439,-8.4309,-4.3731,-4.4163,-4.5555,-5.1966,-5.2261,-5.2597,-5.802,-6.0842,-6.2438,-6.3048,-6.6234,-6.8588,-6.7933,-6.8741,-6.9681,-7.0161,-6.9964,-6.9899,-7.0227,-6.9812,-6.9593,-6.9746,-6.9877,-6.9746,-6.9091,-6.9156,-6.8938,-6.813,-6.778,0.0,-6.8064,-6.7649,-6.7431,-6.7584,-6.778,-6.7452,-6.6666,-6.6338,-6.6186,-6.6186,-6.6186,-6.6186,-6.6186,-6.6186,-6.6186,-6.6186,-6.6186,-6.636,-6.6666,-6.6666,-6.6841,-6.7125,-6.7125,-6.6995,-6.6972,-6.6566,-6.642,-6.6388,-6.5928,-6.564,-6.564,-6.564,-6.6281,-6.7207,-6.7207,-6.813,-6.9047,-6.9047,-6.8954,-6.8947,-6.8721,-6.8721,-6.8992,-6.9902,-7.0652,-7.1088,-7.1603,-7.223,-7.3994,-7.8267,-7.9662,-8.1405,-8.5602,-8.7083,-8.7674,-8.7879,-8.8694,-8.9301,-8.9301,-8.9186,-8.9201,-8.9201,-8.9239,-8.8937,-8.8521,-8.8873,-8.8511,-8.7115,-8.7239,-8.7049,-8.5828,-8.5769,-8.5769,-8.5774,-8.5774,-8.5584,-8.5177,-8.5177,-8.5177,-8.5177,-8.4797,-8.4716,0.0,0.0,0.0,-4.8361,-4.828,-4.8875,-5.4974,-5.7592,-5.9202,-6.1179,-6.5153,-6.8173,-6.8239,-6.8654,-6.9134,-6.9615,-6.9702,-6.9702,-6.9746,-6.9331,-6.885,-6.8392,-6.8719,-6.8654,-6.7671,-6.7999,-6.8108,-6.7584,-6.7584,-6.754,-6.7584,-6.7147,-6.6688,-6.6229,-6.6644,-6.6666,-6.6186,-6.6186,-6.6186,-6.6186,-6.6186,-6.6186,-6.6186,-6.6186,-6.6186,-6.6186,-6.6186,-6.6186,-6.6186,-6.6186,-6.6186,-6.6186,-6.6186,-6.6017,-6.606,-6.5896,-6.6165,-6.659,-6.6381,-6.6323,-6.6323,-6.6323,-6.6755,-6.7207,-6.7207,-6.813,-6.9047,-6.9047,-6.8947,-6.8721,-6.8735,-6.8551,-6.8529,-6.9452,-6.9962,-7.0539,-7.121,-7.3583,-7.6374,-7.8584,-8.0947,-8.3363,-8.6436,-8.7289,-8.7879,-8.8518,-8.8924,-8.9301,-8.9301,-8.9213,-8.9229,-8.9229,-8.9229,-8.9207,-8.9189,-8.9097,-8.8709,-8.7531,-8.7409,-8.6995,-8.5828,-8.573,-8.5757,-8.5774,-8.5774,-8.5774,-8.5774,-8.5774,-8.5774,-8.5774,-8.5747,-8.5448,-4.0913,0.0,0.0,0.0,0.0,0.0,-4.8973,-5.2304,-5.5513,-5.8041,-6.1655,-6.4722,-6.6448,-6.7431,-6.8042,-6.8195,-6.8479,-6.885,-6.92,-6.8523,-6.8064,-6.8304,-6.813,-6.7868,-6.7605,-6.7715,-6.7584,0.0,-6.6775,-6.6732,-6.7081,-6.6972,-6.6841,-6.671,-6.6491,-6.6317,-6.6186,-6.6186,-6.6186,-6.6186,-6.6186,-6.6186,-6.6186,-6.6186,-6.6186,-6.6186,-6.6186,-6.6186,-6.6186,-6.6186,-6.6186,-6.6186,-6.6186,-6.647,-6.6516,-6.6116,-6.6366,-6.708,-6.6607,-6.6323,-6.6344,-6.6776,-6.6982,-6.7186,-6.768,-6.8376,-6.9047,-6.9047,-6.8947,-6.8721,-6.8735,-6.8763,-6.9035,-6.9989,-7.0436,-7.148,-7.3696,-7.6281,-7.8338,-7.8781,-8.0947,-8.3363,-8.6436,-8.7289,-8.7879,-8.8518,-8.8924,-8.9301,-8.9301,-8.9367,-8.9258,-8.9258,-8.9258,-8.9204,-8.9241,-8.8769,-8.8306,-8.7572,-8.7049,-8.6561,-8.5801,-8.5742,-8.5742,-8.5774,-8.5774,-8.5774,-8.5774,-8.5774,-8.5774,-8.5774,-8.534,-8.5041,-4.1328,-4.159,-4.2289,-4.3818,0.0,0.0,-4.7303,-5.0066,-5.2908,-5.6327,-5.9724,-6.2822,-6.4635,-6.5749,-6.647,-6.6644,-6.6928,-6.7431,-6.8326,-6.7933,-6.7649,-6.7715,-6.7452,-6.7234,-6.7016,-6.6994,-6.6885,-6.6622,-6.6338,-6.6295,-6.6579,-6.6404,-6.6382,-6.6601,-6.612,-6.5858,-6.5858,-6.5858,-6.5858,-6.5858,-6.6076,-6.6186,-6.6186,-6.6186,-6.6186,-6.6186,-6.6186,-6.6186,-6.6186,-6.6186,-6.6186,-6.6186,-6.6186,-6.6146,-6.6256,-6.5811,-6.6216,-6.678,-6.6748,-6.655,-6.6529,-6.7186,-6.7454,-6.7412,-6.7862,-6.86,-6.9047,-6.9047,-6.883,-6.8708,-6.8751,-6.8742,-6.8946,-7.0156,-7.0501,-7.1399,-7.4812,-7.7448,-7.9222,-8.0319,-8.2293,-8.471,-8.685,-8.7469,-8.7879,-8.8721,-8.9126,-8.9301,-8.9301,-8.9301,-8.9301,-8.9301,-8.9301,-8.9301,-8.9301,-8.8959,-8.8388,-8.7619,-8.7483,-8.7022,-8.6181,-8.6419,-8.6446,-8.6154,-8.6154,-8.6018,-8.5774,-8.5774,-8.5774,-8.5774,-8.5421,-8.5123,-4.2158,-4.2573,-4.3752,-4.5828,-4.4189,0.0,-4.7848,-4.9328,-5.0839,-5.4618,-5.8096,-6.1031,-6.2319,-6.3368,-6.411,-6.4416,-6.4831,-6.5661,-6.7278,-6.7452,-6.7278,-6.6885,-6.6775,-6.6579,-6.6142,-6.6098,-6.6076,-6.6033,-6.6011,-6.6011,-6.6011,-6.5639,-6.5618,-6.6076,-6.5661,-6.5421,-6.5421,-6.5377,-6.5334,-6.5356,-6.5858,-6.6098,-6.6098,-6.6142,-6.6186,-6.6186,-6.6186,-6.6186,-6.6186,-6.6186,-6.6186,-6.6186,-6.6186,-6.5778,-6.5499,-6.5661,-6.5803,-6.6037,-6.6867,-6.6734,-6.6529,-6.7637,-6.7637,-6.7454,-6.813,-6.8556,-6.9047,-6.9091,-6.8819,-6.8693,-6.8764,-6.8467,-6.8522,-7.0063,-7.0474,-7.1523,-7.4994,-7.7671,-8.0076,-8.2483,-8.4736,-8.6488,-8.7469,-8.7674,-8.8083,-8.9099,-8.9301,-8.9301,-8.9301,-8.9301,-8.9301,-8.9301,-8.9301,-8.9301,-8.9301,-8.9159,-8.8614,-8.7728,-8.8107,-8.7863,-8.6805,-8.733,-8.7357,-8.6669,-8.6588,-8.6317,-8.5774,-8.5774,-8.5774,-8.5774,-8.5774,-8.5502,0.0,0.0,0.0,0.0,0.0,0.0,-4.3916,-4.5309,-4.7641,-5.0295,-5.2184,-5.4172,-5.747,-5.8868,-5.9305,-5.8584,-6.1096,-6.4067,-6.6666,-6.671,-6.6426,-6.6338,-6.5967,-6.5661,-6.5574,-6.5574,-6.5421,-6.505,-6.5006,-6.5006,-6.5006,-6.5268,-6.5465,-6.5552,-6.5465,-6.5421,-6.5421,-6.505,-6.4875,-6.4875,-6.5356,-6.5574,-6.5574,-6.5989,-6.6186,-6.6186,-6.6186,-6.6186,-6.6186,-6.6186,-6.6186,-6.6186,-6.6186,-6.5974,-6.5887,-6.5842,-6.6202,-6.6442,-6.6612,-6.691,-6.7186,-6.7905,-6.813,-6.813,-6.8578,-6.8845,-6.8911,-6.8787,-6.8819,-6.8807,-6.865,-6.8487,-6.8741,-7.007,-7.1789,-7.4039,-7.7553,-8.01,-8.2508,-8.4972,-8.5863,-8.6488,-8.7469,-8.7674,-8.8083,-8.9099,-8.9301,-8.9301,-8.9301,-8.9301,-8.9301,-8.9301,-8.9301,-8.9301,-8.9301,-8.8759,-8.8379,-8.827,-8.7945,-8.7646,-8.7429,-8.7158,-8.6886,-8.6669,-8.6181,-8.5882,-8.5774,-8.5774,-8.5774,-8.5774,-8.5774,-8.572,0.0,0.0,0.0,-4.4888,0.0,0.0,0.0,-4.4954,-4.6111,-4.9038,-4.9825,-5.0873,-5.3779,-5.4718,-5.5286,-5.5985,-5.8125,-6.0375,-6.2341,-6.4242,-6.5552,-6.5771,-6.5377,-6.5072,-6.5072,-6.5072,-6.4984,-6.4766,-6.4504,-6.4482,-6.4722,-6.4722,-6.4831,-6.5072,-6.4831,-6.4722,-6.4722,-6.4482,-6.4373,-6.4373,-6.4853,-6.5203,-6.5421,-6.5683,-6.5945,-6.6186,-6.6186,-6.6186,-6.6186,-6.6186,-6.6186,-6.6186,-6.6186,-6.5887,-6.526,-6.5752,-6.5582,-6.5336,-6.6269,-6.6565,-6.6982,-6.7883,-6.8108,-6.8311,-6.8824,-6.9047,-6.9091,-6.8904,-6.8873,-6.8819,-6.8819,-6.8751,-6.8842,-6.9782,-7.1735,-7.4345,-7.748,-8.0164,-8.277,-8.5186,-8.5889,-8.628,-8.7083,-8.7469,-8.7879,-8.8721,-8.9126,-8.9301,-8.9301,-8.9301,-8.9301,-8.9301,-8.9301,-8.9301,-8.9301,-8.903,-8.8732,-8.846,-8.8433,-8.8189,-8.7619,-8.7565,-8.7266,-8.6669,-8.6072,-8.5774,-8.5774,-8.5774,-8.5774,-8.5774,-8.5774,-8.5774,0.0,0.0,0.0,0.0,0.0,-4.4801,0.0,0.0,0.0,-4.8012,-4.8361,-4.8755,0.0,0.0,0.0,-5.3429,0.0,0.0,0.0,-6.0441,0.0,-6.4089,-6.4023,-6.3936,-6.4023,-6.3958,-6.4089,-6.4569,-6.3979,-6.3848,-6.4416,-6.4176,-6.4176,-6.4591,-6.422,-6.4001,-6.4001,-6.3914,-6.387,-6.387,-6.4373,-6.4831,-6.529,-6.5377,-6.5705,-6.6186,-6.6186,-6.612,-6.6033,-6.6142,-6.6076,-6.571,-6.6098,-6.552,-6.4743,-6.5491,-6.5255,-6.4596,-6.5593,-6.6402,-6.6776,-6.7658,-6.8108,-6.8354,-6.8824,-6.9047,-6.9047,-6.9047,-6.886,-6.883,-6.8911,-6.8916,-6.8979,-7.0241,-7.201,-7.4481,-7.7511,-8.0315,-8.3048,-8.49,-8.5758,-8.6333,-8.7035,-8.7342,-8.7932,-8.8679,-8.9086,-8.9491,-8.9491,-8.96,-8.9627,-8.9491,-8.9491,-8.9437,-8.9329,-8.9301,-8.9111,-8.8623,-8.8949,-8.8732,-8.7782,-8.7972,-8.7592,-8.6506,-8.6018,-8.5774,-8.5774,-8.5774,-8.5774,-8.5774,-8.5774,-8.5774,0.0,0.0,0.0,0.0,-4.7527,0.0,0.0,0.0,-4.5587,-4.4692,0.0,-4.6046,0.0,0.0,0.0,0.0,-5.1048,-5.3363,-5.2643,-5.4783,-5.7252,-5.9436,-6.0419,-6.1074,-6.1489,-6.1162,-6.1795,-6.3936,-6.2865,-6.2494,-6.339,-6.3805,-6.4023,-6.4089,-6.4045,-6.4001,-6.4001,-6.3586,-6.3368,-6.3368,-6.3848,-6.4351,-6.4831,-6.5224,-6.5705,-6.6186,-6.6186,-6.5923,-6.5552,-6.5989,-6.5449,-6.4352,-6.5623,-6.5757,-6.5111,-6.5219,-6.5362,-6.5624,-6.5084,-6.6303,-6.7883,-6.7412,-6.813,-6.9025,-6.9047,-6.9047,-6.9047,-6.9047,-6.9091,-6.8911,-6.9047,-6.8911,-6.9511,-7.2293,-7.4533,-7.7172,-8.0528,-8.3182,-8.5133,-8.5889,-8.6046,-8.6438,-8.7354,-8.7608,-8.8066,-8.9217,-8.968,-9.0088,-9.0088,-9.0577,-9.0712,-9.0143,-9.0088,-8.9871,-8.9356,-8.9301,-8.9274,-8.922,-8.8786,-8.846,-8.8325,-8.7375,-8.6561,-8.5882,-8.5801,-8.5774,-8.5774,-8.5774,-8.5774,-8.5774,-8.5774,-8.5774,0.0,0.0,0.0,0.0,0.0,0.0,-4.6963,0.0,-4.4823,0.0,0.0,0.0,0.0,0.0,0.0,0.0,-4.9322,-5.0764,-5.0917,-5.2293,-5.4412,-5.7361,0.0,0.0,-5.8912,-5.913,-5.9698,-6.0987,-6.0528,-6.0615,-6.1577,-6.2625,-6.3302,-6.3586,-6.3586,-6.3586,-6.3586,-6.339,-6.328,-6.328,-6.3477,-6.3848,-6.4329,-6.4504,-6.4875,-6.5356,-6.5618,-6.5253,-6.4628,-6.5127,-6.4507,-6.3525,-6.4424,-6.4682,-6.4531,-6.5067,-6.5491,-6.5646,-6.5476,-6.643,-6.8108,-6.813,-6.8621,-6.9047,-6.9047,-6.9047,-6.9047,-6.9047,-6.9047,-6.9047,-6.9047,-6.9871,-7.1196,-7.2497,-7.5763,-7.9126,-8.044,-8.3189,-8.5262,-8.5523,-8.5837,-8.6255,-8.7014,-8.7453,-8.7754,-8.8431,-8.9368,-9.0061,-8.9736,-9.0522,-9.0767,-8.979,-8.998,-8.9953,-8.9356,-8.9301,-8.9301,-8.9301,-8.846,-8.7782,-8.7429,-8.6588,-8.6018,-8.5774,-8.5774,-8.5774,-8.5774,-8.5774,-8.5774,-8.5774,-8.5774,-8.5774,-4.9259,0.0,0.0,0.0,0.0,0.0,0.0,0.0,0.0,0.0,0.0,0.0,0.0,0.0,-4.6636,-4.8121,0.0,-4.9257,-4.9672,-5.0131,-5.155,-5.4652,-5.4914,0.0,0.0,-5.747,-5.7929,-5.8519,-5.8322,-5.8781,-6.0157,-6.1467,-6.2472,-6.3084,-6.3215,-6.328,-6.328,-6.328,-6.328,-6.328,-6.328,-6.3543,-6.4001,-6.4001,-6.4263,-6.4744,-6.4861,-6.4541,-6.371,-6.3994,-6.3696,-6.2677,-6.3506,-6.374,-6.3631,-6.4416,-6.5116,-6.5867,-6.5539,-6.6718,-6.8086,-6.8802,-6.9047,-6.9047,-6.9047,-6.9047,-6.9047,-6.9047,-6.9047,-6.9047,-6.9671,-7.1174,-7.2634,-7.3907,-7.7296,-8.033,-8.1105,-8.3397,-8.5236,-8.5392,-8.5784,-8.6203,-8.6595,-8.7272,-8.7708,-8.794,-8.9378,-9.0291,-8.9898,-9.0712,-9.0984,-8.9925,-9.0034,-8.9953,-8.9356,-8.9301,-8.9193,-8.8867,-8.8053,-8.7239,-8.6452,-8.5991,-8.5774,-8.5774,-8.5774,-8.5774,-8.5774,-8.5774,-8.5774,-8.5774,-8.5774,-8.5774,0.0,0.0,0.0,-4.951,0.0,0.0,0.0,0.0,-4.7116,0.0,0.0,0.0,0.0,0.0,-4.9847,-4.9017,-4.9279,0.0,0.0,-4.7466,-4.7793,-5.024,-5.3385,-5.557,0.0,-5.6181,-5.6574,0.0,-5.6727,-5.723,-5.9589,-6.0637,-6.1598,-6.2581,-6.304,-6.328,-6.328,-6.328,-6.328,-6.328,-6.328,-6.3543,-6.4001,-6.4001,-6.4263,-6.4744,-6.4114,-6.3624,-6.3214,-6.3057,-6.255,-6.16,-6.3165,-6.3525,-6.2944,-6.3426,-6.4621,-6.5646,-6.5181,-6.6463,-6.8086,-6.8802,-6.9047,-6.9047,-6.9047,-6.9047,-6.9047,-6.9047,-6.9047,-6.9471,-7.1763,-7.2417,-7.3476,-7.7926,-7.9645,-8.0847,-8.355,-8.4765,-8.5366,-8.5941,-8.6072,-8.6098,-8.6124,-8.6961,-8.793,-8.8553,-8.9957,-9.1147,-9.1147,-9.1608,-9.1744,-9.1147,-9.055,-8.9953,-8.9356,-8.9301,-8.884,-8.7728,-8.7619,-8.7049,-8.5855,-8.5774,-8.5774,-8.5774,-8.5774,-8.5774,-8.5774,-8.5774,-8.5774,-8.5774,-8.5774,-8.5774,0.0,0.0,-5.5724,-5.2355,0.0,0.0,0.0,0.0,0.0,0.0,0.0,0.0,0.0,0.0,-5.0589,-4.9934,-4.9978,-4.9541,0.0,-4.6876,-4.6898,-4.8689,-5.1048,-5.2468,-5.2293,0.0,0.0,0.0,-5.3604,0.0,-5.6247,-5.8191,-5.9829,-6.1118,-6.2232,-6.2975,-6.328,-6.328,-6.328,-6.328,-6.328,-6.3368,-6.3521,-6.3521,-6.3424,-6.3184,-6.3487,-6.2711,-6.1681,-6.1937,-6.1642,-6.1157,-6.1762,-6.2178,-6.2554,-6.398,-6.5094,-6.591,-6.675,-6.7871,-6.8824,-6.9025,-6.9047,-6.9047,-6.9047,-6.9047,-6.9047,-6.9047,-7.0093,-7.137,-7.2222,-7.455,-7.73,-7.8781,-8.1006,-8.3241,-8.409,-8.5105,-8.5941,-8.6516,-8.6333,-8.6203,-8.6569,-8.7197,-8.7824,-8.8047,-8.9486,-9.0399,-9.0007,-9.0794,-9.1038,-9.0034,-9.0088,-8.9749,-8.8775,-8.8491,-8.7804,-8.7023,-8.6942,-8.6601,-8.5828,-8.5774,-8.5774,-8.5774,-8.5774,-8.5774,-8.5774,-8.5774,-8.5774,-8.5774,-8.5774,-8.5774,-5.5103,-5.6275,0.0,-5.4317,-5.4006,0.0,-5.1272,0.0,0.0,0.0,0.0,0.0,0.0,0.0,-5.1878,-5.0848,-5.036,-4.9344,0.0,-4.6548,-4.6548,-4.7313,-4.941,-5.0677,-5.0349,-5.107,-5.1376,-5.0983,-5.0851,-5.1529,0.0,-5.5832,-5.806,-5.9851,-6.1467,-6.2625,-6.328,-6.328,-6.328,-6.328,-6.328,-6.328,-6.328,-6.328,-6.3076,-6.2502,-6.2576,-6.1889,-6.0803,-6.0908,-6.1032,-6.1153,-6.123,-6.1727,-6.2804,-6.3993,-6.5306,-6.6186,-6.7401,-6.8354,-6.9047,-6.9047,-6.9047,-6.9047,-6.9047,-6.9047,-6.9424,-7.0936,-7.1913,-7.3013,-7.5472,-7.7653,-7.9424,-8.0269,-8.2261,-8.4085,-8.4295,-8.5079,-8.5941,-8.649,-8.6333,-8.6203,-8.6542,-8.7222,-8.7793,-8.802,-8.9513,-9.0426,-9.0034,-9.0658,-9.074,-8.9736,-8.979,-8.9533,-8.8545,-8.8287,-8.7885,-8.6692,-8.7039,-8.6925,-8.5932,-8.6099,-8.6289,-8.6527,-8.6099,-8.6099,-8.6527,-8.6099,-8.5774,-8.5774,-8.5774,-8.5774]}]]